<?xml version="1.0" encoding="UTF-8" standalone="no" ?>
<gpx xmlns="http://www.topografix.com/GPX/1/1" xmlns:xsi="http://www.w3.org/2001/XMLSchema-instance" xsi:schemaLocation="http://www.topografix.com/GPX/1/1 http://www.topografix.com/GPX/1/1/gpx.xsd" version="1.1" creator="VisuGPX - https://www.visugpx.com">
  <metadata>
    <name>Les Grandes Pennes</name>
    <desc><![CDATA[Tentative échouée de descendre de la crête des Grandes Pennes depuis le point 1078 de la carte IGN pour atteindre le pas de Gardy (et rentrer à La Vacherie par le canyon des Gueulards ...)
NB: itinéraire indiqué par Pascal Sombardier]]></desc>
  </metadata>
  <trk>
    <name><![CDATA[01-MAI-19 16:37:52]]></name>
    <trkseg>
      <trkpt lat="44.88697" lon="5.18605">
        <ele>942.71</ele>
        <time>2019-05-01T08:56:54Z</time>
      </trkpt>
      <trkpt lat="44.88697" lon="5.18603">
        <ele>947.04</ele>
        <time>2019-05-01T08:57:06Z</time>
      </trkpt>
      <trkpt lat="44.88696" lon="5.18603">
        <ele>943.67</ele>
        <time>2019-05-01T08:57:07Z</time>
      </trkpt>
      <trkpt lat="44.88699" lon="5.18604">
        <ele>944.15</ele>
        <time>2019-05-01T08:57:13Z</time>
      </trkpt>
      <trkpt lat="44.88713" lon="5.18609">
        <ele>945.11</ele>
        <time>2019-05-01T08:57:27Z</time>
      </trkpt>
      <trkpt lat="44.88719" lon="5.18612">
        <ele>944.63</ele>
        <time>2019-05-01T08:57:36Z</time>
      </trkpt>
      <trkpt lat="44.8872" lon="5.18616">
        <ele>945.59</ele>
        <time>2019-05-01T08:57:52Z</time>
      </trkpt>
      <trkpt lat="44.88723" lon="5.18623">
        <ele>945.11</ele>
        <time>2019-05-01T08:58:08Z</time>
      </trkpt>
      <trkpt lat="44.88724" lon="5.1863">
        <ele>946.07</ele>
        <time>2019-05-01T08:58:15Z</time>
      </trkpt>
      <trkpt lat="44.88723" lon="5.18633">
        <ele>946.07</ele>
        <time>2019-05-01T08:58:17Z</time>
      </trkpt>
      <trkpt lat="44.88725" lon="5.18654">
        <ele>947.04</ele>
        <time>2019-05-01T08:58:32Z</time>
      </trkpt>
      <trkpt lat="44.88725" lon="5.18661">
        <ele>946.56</ele>
        <time>2019-05-01T08:58:39Z</time>
      </trkpt>
      <trkpt lat="44.88726" lon="5.18681">
        <ele>946.56</ele>
        <time>2019-05-01T08:58:53Z</time>
      </trkpt>
      <trkpt lat="44.88725" lon="5.18698">
        <ele>947.52</ele>
        <time>2019-05-01T08:59:06Z</time>
      </trkpt>
      <trkpt lat="44.88725" lon="5.18708">
        <ele>948.96</ele>
        <time>2019-05-01T08:59:15Z</time>
      </trkpt>
      <trkpt lat="44.88721" lon="5.1873">
        <ele>949.44</ele>
        <time>2019-05-01T08:59:31Z</time>
      </trkpt>
      <trkpt lat="44.88719" lon="5.18736">
        <ele>949.92</ele>
        <time>2019-05-01T08:59:36Z</time>
      </trkpt>
      <trkpt lat="44.88718" lon="5.18756">
        <ele>952.32</ele>
        <time>2019-05-01T08:59:50Z</time>
      </trkpt>
      <trkpt lat="44.88718" lon="5.18773">
        <ele>954.25</ele>
        <time>2019-05-01T09:00:04Z</time>
      </trkpt>
      <trkpt lat="44.88718" lon="5.18773">
        <ele>954.73</ele>
        <time>2019-05-01T09:00:05Z</time>
      </trkpt>
      <trkpt lat="44.88718" lon="5.18787">
        <ele>955.69</ele>
        <time>2019-05-01T09:00:17Z</time>
      </trkpt>
      <trkpt lat="44.88718" lon="5.18789">
        <ele>956.17</ele>
        <time>2019-05-01T09:00:19Z</time>
      </trkpt>
      <trkpt lat="44.88719" lon="5.18809">
        <ele>957.61</ele>
        <time>2019-05-01T09:00:34Z</time>
      </trkpt>
      <trkpt lat="44.8872" lon="5.1883">
        <ele>958.09</ele>
        <time>2019-05-01T09:00:48Z</time>
      </trkpt>
      <trkpt lat="44.88713" lon="5.18846">
        <ele>958.57</ele>
        <time>2019-05-01T09:01:02Z</time>
      </trkpt>
      <trkpt lat="44.88712" lon="5.18848">
        <ele>958.57</ele>
        <time>2019-05-01T09:01:04Z</time>
      </trkpt>
      <trkpt lat="44.887" lon="5.1886">
        <ele>960.49</ele>
        <time>2019-05-01T09:01:19Z</time>
      </trkpt>
      <trkpt lat="44.88692" lon="5.18871">
        <ele>962.9</ele>
        <time>2019-05-01T09:01:31Z</time>
      </trkpt>
      <trkpt lat="44.88686" lon="5.18887">
        <ele>963.38</ele>
        <time>2019-05-01T09:01:45Z</time>
      </trkpt>
      <trkpt lat="44.88684" lon="5.18902">
        <ele>965.78</ele>
        <time>2019-05-01T09:01:57Z</time>
      </trkpt>
      <trkpt lat="44.88685" lon="5.18903">
        <ele>965.78</ele>
        <time>2019-05-01T09:01:58Z</time>
      </trkpt>
      <trkpt lat="44.88686" lon="5.18928">
        <ele>966.74</ele>
        <time>2019-05-01T09:02:14Z</time>
      </trkpt>
      <trkpt lat="44.88682" lon="5.18954">
        <ele>967.7</ele>
        <time>2019-05-01T09:02:31Z</time>
      </trkpt>
      <trkpt lat="44.88676" lon="5.18969">
        <ele>968.18</ele>
        <time>2019-05-01T09:02:43Z</time>
      </trkpt>
      <trkpt lat="44.8867" lon="5.18989">
        <ele>968.18</ele>
        <time>2019-05-01T09:02:57Z</time>
      </trkpt>
      <trkpt lat="44.88666" lon="5.19003">
        <ele>969.63</ele>
        <time>2019-05-01T09:03:07Z</time>
      </trkpt>
      <trkpt lat="44.88666" lon="5.19022">
        <ele>970.11</ele>
        <time>2019-05-01T09:03:19Z</time>
      </trkpt>
      <trkpt lat="44.88669" lon="5.19031">
        <ele>970.11</ele>
        <time>2019-05-01T09:03:25Z</time>
      </trkpt>
      <trkpt lat="44.88666" lon="5.1905">
        <ele>971.07</ele>
        <time>2019-05-01T09:03:39Z</time>
      </trkpt>
      <trkpt lat="44.88658" lon="5.19073">
        <ele>971.55</ele>
        <time>2019-05-01T09:03:55Z</time>
      </trkpt>
      <trkpt lat="44.88651" lon="5.19092">
        <ele>971.55</ele>
        <time>2019-05-01T09:04:10Z</time>
      </trkpt>
      <trkpt lat="44.88647" lon="5.19108">
        <ele>971.07</ele>
        <time>2019-05-01T09:04:20Z</time>
      </trkpt>
      <trkpt lat="44.88649" lon="5.19129">
        <ele>972.99</ele>
        <time>2019-05-01T09:04:35Z</time>
      </trkpt>
      <trkpt lat="44.8864" lon="5.19131">
        <ele>972.51</ele>
        <time>2019-05-01T09:05:11Z</time>
      </trkpt>
      <trkpt lat="44.88639" lon="5.19131">
        <ele>972.51</ele>
        <time>2019-05-01T09:05:24Z</time>
      </trkpt>
      <trkpt lat="44.88631" lon="5.19157">
        <ele>972.51</ele>
        <time>2019-05-01T09:05:40Z</time>
      </trkpt>
      <trkpt lat="44.88631" lon="5.19158">
        <ele>972.99</ele>
        <time>2019-05-01T09:05:41Z</time>
      </trkpt>
      <trkpt lat="44.88622" lon="5.19175">
        <ele>973.95</ele>
        <time>2019-05-01T09:05:54Z</time>
      </trkpt>
      <trkpt lat="44.88611" lon="5.19189">
        <ele>975.39</ele>
        <time>2019-05-01T09:06:09Z</time>
      </trkpt>
      <trkpt lat="44.88606" lon="5.19206">
        <ele>976.36</ele>
        <time>2019-05-01T09:06:25Z</time>
      </trkpt>
      <trkpt lat="44.88601" lon="5.19226">
        <ele>974.91</ele>
        <time>2019-05-01T09:06:39Z</time>
      </trkpt>
      <trkpt lat="44.88595" lon="5.1925">
        <ele>972.99</ele>
        <time>2019-05-01T09:06:56Z</time>
      </trkpt>
      <trkpt lat="44.8859" lon="5.19274">
        <ele>969.15</ele>
        <time>2019-05-01T09:07:11Z</time>
      </trkpt>
      <trkpt lat="44.88588" lon="5.19281">
        <ele>968.67</ele>
        <time>2019-05-01T09:07:17Z</time>
      </trkpt>
      <trkpt lat="44.88585" lon="5.19302">
        <ele>965.3</ele>
        <time>2019-05-01T09:07:30Z</time>
      </trkpt>
      <trkpt lat="44.88591" lon="5.19327">
        <ele>963.86</ele>
        <time>2019-05-01T09:07:45Z</time>
      </trkpt>
      <trkpt lat="44.88596" lon="5.19339">
        <ele>962.9</ele>
        <time>2019-05-01T09:07:54Z</time>
      </trkpt>
      <trkpt lat="44.88607" lon="5.19353">
        <ele>960.49</ele>
        <time>2019-05-01T09:08:07Z</time>
      </trkpt>
      <trkpt lat="44.88608" lon="5.19355">
        <ele>960.49</ele>
        <time>2019-05-01T09:08:09Z</time>
      </trkpt>
      <trkpt lat="44.88609" lon="5.19368">
        <ele>957.13</ele>
        <time>2019-05-01T09:08:23Z</time>
      </trkpt>
      <trkpt lat="44.88608" lon="5.19389">
        <ele>954.73</ele>
        <time>2019-05-01T09:08:36Z</time>
      </trkpt>
      <trkpt lat="44.88594" lon="5.19409">
        <ele>951.84</ele>
        <time>2019-05-01T09:08:51Z</time>
      </trkpt>
      <trkpt lat="44.88598" lon="5.19437">
        <ele>950.4</ele>
        <time>2019-05-01T09:09:06Z</time>
      </trkpt>
      <trkpt lat="44.88604" lon="5.19443">
        <ele>950.4</ele>
        <time>2019-05-01T09:09:14Z</time>
      </trkpt>
      <trkpt lat="44.88617" lon="5.19454">
        <ele>948</ele>
        <time>2019-05-01T09:09:27Z</time>
      </trkpt>
      <trkpt lat="44.88622" lon="5.19457">
        <ele>948.96</ele>
        <time>2019-05-01T09:09:31Z</time>
      </trkpt>
      <trkpt lat="44.88641" lon="5.19472">
        <ele>948.96</ele>
        <time>2019-05-01T09:09:49Z</time>
      </trkpt>
      <trkpt lat="44.88645" lon="5.19476">
        <ele>949.44</ele>
        <time>2019-05-01T09:09:53Z</time>
      </trkpt>
      <trkpt lat="44.88651" lon="5.1948">
        <ele>949.92</ele>
        <time>2019-05-01T09:09:59Z</time>
      </trkpt>
      <trkpt lat="44.88669" lon="5.19498">
        <ele>948.48</ele>
        <time>2019-05-01T09:10:17Z</time>
      </trkpt>
      <trkpt lat="44.88681" lon="5.19511">
        <ele>947.52</ele>
        <time>2019-05-01T09:10:30Z</time>
      </trkpt>
      <trkpt lat="44.88685" lon="5.19519">
        <ele>946.07</ele>
        <time>2019-05-01T09:10:35Z</time>
      </trkpt>
      <trkpt lat="44.88681" lon="5.1953">
        <ele>945.59</ele>
        <time>2019-05-01T09:10:43Z</time>
      </trkpt>
      <trkpt lat="44.88662" lon="5.19543">
        <ele>945.59</ele>
        <time>2019-05-01T09:10:59Z</time>
      </trkpt>
      <trkpt lat="44.88646" lon="5.19546">
        <ele>946.07</ele>
        <time>2019-05-01T09:11:12Z</time>
      </trkpt>
      <trkpt lat="44.88628" lon="5.19547">
        <ele>946.07</ele>
        <time>2019-05-01T09:11:27Z</time>
      </trkpt>
      <trkpt lat="44.88606" lon="5.19557">
        <ele>946.07</ele>
        <time>2019-05-01T09:11:45Z</time>
      </trkpt>
      <trkpt lat="44.88591" lon="5.19568">
        <ele>946.56</ele>
        <time>2019-05-01T09:12:00Z</time>
      </trkpt>
      <trkpt lat="44.88576" lon="5.19583">
        <ele>947.52</ele>
        <time>2019-05-01T09:12:15Z</time>
      </trkpt>
      <trkpt lat="44.88561" lon="5.19594">
        <ele>948</ele>
        <time>2019-05-01T09:12:29Z</time>
      </trkpt>
      <trkpt lat="44.88547" lon="5.19604">
        <ele>948.48</ele>
        <time>2019-05-01T09:12:43Z</time>
      </trkpt>
      <trkpt lat="44.88533" lon="5.19616">
        <ele>949.44</ele>
        <time>2019-05-01T09:12:58Z</time>
      </trkpt>
      <trkpt lat="44.88519" lon="5.19625">
        <ele>951.36</ele>
        <time>2019-05-01T09:13:13Z</time>
      </trkpt>
      <trkpt lat="44.88507" lon="5.19637">
        <ele>952.8</ele>
        <time>2019-05-01T09:13:28Z</time>
      </trkpt>
      <trkpt lat="44.88494" lon="5.1965">
        <ele>954.25</ele>
        <time>2019-05-01T09:13:45Z</time>
      </trkpt>
      <trkpt lat="44.88488" lon="5.19654">
        <ele>955.21</ele>
        <time>2019-05-01T09:13:52Z</time>
      </trkpt>
      <trkpt lat="44.88475" lon="5.19668">
        <ele>957.13</ele>
        <time>2019-05-01T09:14:08Z</time>
      </trkpt>
      <trkpt lat="44.88466" lon="5.19678">
        <ele>957.13</ele>
        <time>2019-05-01T09:14:19Z</time>
      </trkpt>
      <trkpt lat="44.88465" lon="5.19679">
        <ele>957.61</ele>
        <time>2019-05-01T09:14:20Z</time>
      </trkpt>
      <trkpt lat="44.88462" lon="5.19693">
        <ele>958.09</ele>
        <time>2019-05-01T09:14:31Z</time>
      </trkpt>
      <trkpt lat="44.88449" lon="5.19702">
        <ele>959.53</ele>
        <time>2019-05-01T09:14:47Z</time>
      </trkpt>
      <trkpt lat="44.88438" lon="5.19709">
        <ele>962.42</ele>
        <time>2019-05-01T09:15:02Z</time>
      </trkpt>
      <trkpt lat="44.88435" lon="5.19713">
        <ele>962.42</ele>
        <time>2019-05-01T09:15:15Z</time>
      </trkpt>
      <trkpt lat="44.88434" lon="5.19715">
        <ele>962.9</ele>
        <time>2019-05-01T09:15:32Z</time>
      </trkpt>
      <trkpt lat="44.8843" lon="5.1972">
        <ele>963.38</ele>
        <time>2019-05-01T09:15:48Z</time>
      </trkpt>
      <trkpt lat="44.88422" lon="5.19727">
        <ele>964.82</ele>
        <time>2019-05-01T09:16:01Z</time>
      </trkpt>
      <trkpt lat="44.88412" lon="5.19734">
        <ele>966.74</ele>
        <time>2019-05-01T09:16:15Z</time>
      </trkpt>
      <trkpt lat="44.88401" lon="5.19743">
        <ele>967.7</ele>
        <time>2019-05-01T09:16:30Z</time>
      </trkpt>
      <trkpt lat="44.88387" lon="5.19747">
        <ele>968.18</ele>
        <time>2019-05-01T09:16:46Z</time>
      </trkpt>
      <trkpt lat="44.88373" lon="5.19755">
        <ele>968.67</ele>
        <time>2019-05-01T09:17:02Z</time>
      </trkpt>
      <trkpt lat="44.88357" lon="5.19761">
        <ele>969.15</ele>
        <time>2019-05-01T09:17:18Z</time>
      </trkpt>
      <trkpt lat="44.8834" lon="5.19767">
        <ele>968.67</ele>
        <time>2019-05-01T09:17:34Z</time>
      </trkpt>
      <trkpt lat="44.88338" lon="5.19771">
        <ele>968.18</ele>
        <time>2019-05-01T09:17:49Z</time>
      </trkpt>
      <trkpt lat="44.88339" lon="5.19777">
        <ele>967.7</ele>
        <time>2019-05-01T09:17:53Z</time>
      </trkpt>
      <trkpt lat="44.88341" lon="5.19798">
        <ele>965.3</ele>
        <time>2019-05-01T09:18:07Z</time>
      </trkpt>
      <trkpt lat="44.88339" lon="5.19809">
        <ele>964.34</ele>
        <time>2019-05-01T09:18:17Z</time>
      </trkpt>
      <trkpt lat="44.88336" lon="5.19817">
        <ele>962.42</ele>
        <time>2019-05-01T09:18:24Z</time>
      </trkpt>
      <trkpt lat="44.88333" lon="5.19836">
        <ele>960.98</ele>
        <time>2019-05-01T09:18:38Z</time>
      </trkpt>
      <trkpt lat="44.88328" lon="5.19865">
        <ele>959.53</ele>
        <time>2019-05-01T09:18:55Z</time>
      </trkpt>
      <trkpt lat="44.88328" lon="5.1987">
        <ele>960.01</ele>
        <time>2019-05-01T09:19:08Z</time>
      </trkpt>
      <trkpt lat="44.88332" lon="5.19862">
        <ele>959.05</ele>
        <time>2019-05-01T09:19:29Z</time>
      </trkpt>
      <trkpt lat="44.88328" lon="5.19859">
        <ele>958.09</ele>
        <time>2019-05-01T09:19:42Z</time>
      </trkpt>
      <trkpt lat="44.88331" lon="5.1985">
        <ele>959.05</ele>
        <time>2019-05-01T09:19:57Z</time>
      </trkpt>
      <trkpt lat="44.88329" lon="5.19848">
        <ele>958.57</ele>
        <time>2019-05-01T09:20:13Z</time>
      </trkpt>
      <trkpt lat="44.88332" lon="5.19843">
        <ele>958.57</ele>
        <time>2019-05-01T09:20:28Z</time>
      </trkpt>
      <trkpt lat="44.88333" lon="5.19826">
        <ele>958.09</ele>
        <time>2019-05-01T09:20:45Z</time>
      </trkpt>
      <trkpt lat="44.88328" lon="5.19823">
        <ele>956.17</ele>
        <time>2019-05-01T09:20:58Z</time>
      </trkpt>
      <trkpt lat="44.88325" lon="5.19821">
        <ele>955.69</ele>
        <time>2019-05-01T09:21:22Z</time>
      </trkpt>
      <trkpt lat="44.88325" lon="5.19813">
        <ele>955.21</ele>
        <time>2019-05-01T09:21:38Z</time>
      </trkpt>
      <trkpt lat="44.88325" lon="5.19803">
        <ele>953.77</ele>
        <time>2019-05-01T09:21:54Z</time>
      </trkpt>
      <trkpt lat="44.88326" lon="5.19801">
        <ele>953.77</ele>
        <time>2019-05-01T09:22:17Z</time>
      </trkpt>
      <trkpt lat="44.88326" lon="5.19795">
        <ele>952.8</ele>
        <time>2019-05-01T09:22:36Z</time>
      </trkpt>
      <trkpt lat="44.8832" lon="5.19784">
        <ele>952.32</ele>
        <time>2019-05-01T09:22:50Z</time>
      </trkpt>
      <trkpt lat="44.8832" lon="5.19774">
        <ele>951.84</ele>
        <time>2019-05-01T09:23:06Z</time>
      </trkpt>
      <trkpt lat="44.88321" lon="5.19769">
        <ele>949.92</ele>
        <time>2019-05-01T09:23:23Z</time>
      </trkpt>
      <trkpt lat="44.88319" lon="5.19768">
        <ele>948.48</ele>
        <time>2019-05-01T09:23:37Z</time>
      </trkpt>
      <trkpt lat="44.88318" lon="5.19764">
        <ele>947.04</ele>
        <time>2019-05-01T09:23:54Z</time>
      </trkpt>
      <trkpt lat="44.88317" lon="5.19759">
        <ele>947.52</ele>
        <time>2019-05-01T09:24:07Z</time>
      </trkpt>
      <trkpt lat="44.88313" lon="5.19755">
        <ele>945.59</ele>
        <time>2019-05-01T09:24:24Z</time>
      </trkpt>
      <trkpt lat="44.88306" lon="5.19751">
        <ele>944.63</ele>
        <time>2019-05-01T09:24:43Z</time>
      </trkpt>
      <trkpt lat="44.88306" lon="5.19752">
        <ele>944.63</ele>
        <time>2019-05-01T09:25:01Z</time>
      </trkpt>
      <trkpt lat="44.88303" lon="5.19757">
        <ele>944.63</ele>
        <time>2019-05-01T09:25:26Z</time>
      </trkpt>
      <trkpt lat="44.88307" lon="5.19751">
        <ele>945.59</ele>
        <time>2019-05-01T09:25:49Z</time>
      </trkpt>
      <trkpt lat="44.88306" lon="5.19752">
        <ele>946.07</ele>
        <time>2019-05-01T09:26:15Z</time>
      </trkpt>
      <trkpt lat="44.88306" lon="5.1975">
        <ele>948</ele>
        <time>2019-05-01T09:26:34Z</time>
      </trkpt>
      <trkpt lat="44.88315" lon="5.19741">
        <ele>947.52</ele>
        <time>2019-05-01T09:26:55Z</time>
      </trkpt>
      <trkpt lat="44.88311" lon="5.19748">
        <ele>947.52</ele>
        <time>2019-05-01T09:27:18Z</time>
      </trkpt>
      <trkpt lat="44.8831" lon="5.1975">
        <ele>947.04</ele>
        <time>2019-05-01T09:27:40Z</time>
      </trkpt>
      <trkpt lat="44.88309" lon="5.19749">
        <ele>946.56</ele>
        <time>2019-05-01T09:28:00Z</time>
      </trkpt>
      <trkpt lat="44.88312" lon="5.19746">
        <ele>947.04</ele>
        <time>2019-05-01T09:28:02Z</time>
      </trkpt>
      <trkpt lat="44.88325" lon="5.19735">
        <ele>947.52</ele>
        <time>2019-05-01T09:28:21Z</time>
      </trkpt>
      <trkpt lat="44.88318" lon="5.19743">
        <ele>945.11</ele>
        <time>2019-05-01T09:28:40Z</time>
      </trkpt>
      <trkpt lat="44.88324" lon="5.19737">
        <ele>945.11</ele>
        <time>2019-05-01T09:29:00Z</time>
      </trkpt>
      <trkpt lat="44.88315" lon="5.19744">
        <ele>944.63</ele>
        <time>2019-05-01T09:29:26Z</time>
      </trkpt>
      <trkpt lat="44.88314" lon="5.19736">
        <ele>944.15</ele>
        <time>2019-05-01T09:29:53Z</time>
      </trkpt>
      <trkpt lat="44.8831" lon="5.19738">
        <ele>944.15</ele>
        <time>2019-05-01T09:30:17Z</time>
      </trkpt>
      <trkpt lat="44.8831" lon="5.19737">
        <ele>943.67</ele>
        <time>2019-05-01T09:30:44Z</time>
      </trkpt>
      <trkpt lat="44.88312" lon="5.1974">
        <ele>943.67</ele>
        <time>2019-05-01T09:31:13Z</time>
      </trkpt>
      <trkpt lat="44.88307" lon="5.19745">
        <ele>943.67</ele>
        <time>2019-05-01T09:31:42Z</time>
      </trkpt>
      <trkpt lat="44.88316" lon="5.19733">
        <ele>943.67</ele>
        <time>2019-05-01T09:32:01Z</time>
      </trkpt>
      <trkpt lat="44.88312" lon="5.19734">
        <ele>943.67</ele>
        <time>2019-05-01T09:32:12Z</time>
      </trkpt>
      <trkpt lat="44.88311" lon="5.19738">
        <ele>943.67</ele>
        <time>2019-05-01T09:32:32Z</time>
      </trkpt>
      <trkpt lat="44.88315" lon="5.19742">
        <ele>944.15</ele>
        <time>2019-05-01T09:32:57Z</time>
      </trkpt>
      <trkpt lat="44.88318" lon="5.19741">
        <ele>944.15</ele>
        <time>2019-05-01T09:33:20Z</time>
      </trkpt>
      <trkpt lat="44.88325" lon="5.19735">
        <ele>944.15</ele>
        <time>2019-05-01T09:33:43Z</time>
      </trkpt>
      <trkpt lat="44.8832" lon="5.19717">
        <ele>942.71</ele>
        <time>2019-05-01T09:34:06Z</time>
      </trkpt>
      <trkpt lat="44.88325" lon="5.19698">
        <ele>940.79</ele>
        <time>2019-05-01T09:34:24Z</time>
      </trkpt>
      <trkpt lat="44.88321" lon="5.19691">
        <ele>939.83</ele>
        <time>2019-05-01T09:34:38Z</time>
      </trkpt>
      <trkpt lat="44.88333" lon="5.19685">
        <ele>940.79</ele>
        <time>2019-05-01T09:34:58Z</time>
      </trkpt>
      <trkpt lat="44.88327" lon="5.19683">
        <ele>940.31</ele>
        <time>2019-05-01T09:35:18Z</time>
      </trkpt>
      <trkpt lat="44.8832" lon="5.19688">
        <ele>940.79</ele>
        <time>2019-05-01T09:35:39Z</time>
      </trkpt>
      <trkpt lat="44.8832" lon="5.19686">
        <ele>940.79</ele>
        <time>2019-05-01T09:36:00Z</time>
      </trkpt>
      <trkpt lat="44.88319" lon="5.19687">
        <ele>939.35</ele>
        <time>2019-05-01T09:36:03Z</time>
      </trkpt>
      <trkpt lat="44.88319" lon="5.19687">
        <ele>941.27</ele>
        <time>2019-05-01T09:36:04Z</time>
      </trkpt>
      <trkpt lat="44.88326" lon="5.19687">
        <ele>941.27</ele>
        <time>2019-05-01T09:36:28Z</time>
      </trkpt>
      <trkpt lat="44.88322" lon="5.1969">
        <ele>941.27</ele>
        <time>2019-05-01T09:36:55Z</time>
      </trkpt>
      <trkpt lat="44.88327" lon="5.19685">
        <ele>940.79</ele>
        <time>2019-05-01T09:37:17Z</time>
      </trkpt>
      <trkpt lat="44.88331" lon="5.19682">
        <ele>940.31</ele>
        <time>2019-05-01T09:37:37Z</time>
      </trkpt>
      <trkpt lat="44.88329" lon="5.19675">
        <ele>939.83</ele>
        <time>2019-05-01T09:37:51Z</time>
      </trkpt>
      <trkpt lat="44.88314" lon="5.19671">
        <ele>939.35</ele>
        <time>2019-05-01T09:38:08Z</time>
      </trkpt>
      <trkpt lat="44.88318" lon="5.19665">
        <ele>938.86</ele>
        <time>2019-05-01T09:38:23Z</time>
      </trkpt>
      <trkpt lat="44.88321" lon="5.19661">
        <ele>938.86</ele>
        <time>2019-05-01T09:38:50Z</time>
      </trkpt>
      <trkpt lat="44.88315" lon="5.19665">
        <ele>938.38</ele>
        <time>2019-05-01T09:39:10Z</time>
      </trkpt>
      <trkpt lat="44.8833" lon="5.19658">
        <ele>938.38</ele>
        <time>2019-05-01T09:40:14Z</time>
      </trkpt>
      <trkpt lat="44.88334" lon="5.19659">
        <ele>935.02</ele>
        <time>2019-05-01T09:40:36Z</time>
      </trkpt>
      <trkpt lat="44.88333" lon="5.19659">
        <ele>939.83</ele>
        <time>2019-05-01T09:40:37Z</time>
      </trkpt>
      <trkpt lat="44.88332" lon="5.19659">
        <ele>935.98</ele>
        <time>2019-05-01T09:40:39Z</time>
      </trkpt>
      <trkpt lat="44.88331" lon="5.1966">
        <ele>939.35</ele>
        <time>2019-05-01T09:40:40Z</time>
      </trkpt>
      <trkpt lat="44.8833" lon="5.1966">
        <ele>935.98</ele>
        <time>2019-05-01T09:40:42Z</time>
      </trkpt>
      <trkpt lat="44.8833" lon="5.1966">
        <ele>939.35</ele>
        <time>2019-05-01T09:40:43Z</time>
      </trkpt>
      <trkpt lat="44.88327" lon="5.19661">
        <ele>935.98</ele>
        <time>2019-05-01T09:40:47Z</time>
      </trkpt>
      <trkpt lat="44.88326" lon="5.19662">
        <ele>939.35</ele>
        <time>2019-05-01T09:40:49Z</time>
      </trkpt>
      <trkpt lat="44.8832" lon="5.19673">
        <ele>938.86</ele>
        <time>2019-05-01T09:41:09Z</time>
      </trkpt>
      <trkpt lat="44.88327" lon="5.1968">
        <ele>938.86</ele>
        <time>2019-05-01T09:41:18Z</time>
      </trkpt>
      <trkpt lat="44.88338" lon="5.19682">
        <ele>940.31</ele>
        <time>2019-05-01T09:41:34Z</time>
      </trkpt>
      <trkpt lat="44.88343" lon="5.19682">
        <ele>941.27</ele>
        <time>2019-05-01T09:41:55Z</time>
      </trkpt>
      <trkpt lat="44.88339" lon="5.19681">
        <ele>940.79</ele>
        <time>2019-05-01T09:42:17Z</time>
      </trkpt>
      <trkpt lat="44.88335" lon="5.19689">
        <ele>940.79</ele>
        <time>2019-05-01T09:42:45Z</time>
      </trkpt>
      <trkpt lat="44.88333" lon="5.19695">
        <ele>942.23</ele>
        <time>2019-05-01T09:42:51Z</time>
      </trkpt>
      <trkpt lat="44.88325" lon="5.19709">
        <ele>944.15</ele>
        <time>2019-05-01T09:43:09Z</time>
      </trkpt>
      <trkpt lat="44.88315" lon="5.19702">
        <ele>944.15</ele>
        <time>2019-05-01T09:43:21Z</time>
      </trkpt>
      <trkpt lat="44.88303" lon="5.19718">
        <ele>943.19</ele>
        <time>2019-05-01T09:43:44Z</time>
      </trkpt>
      <trkpt lat="44.88301" lon="5.19721">
        <ele>944.15</ele>
        <time>2019-05-01T09:43:53Z</time>
      </trkpt>
      <trkpt lat="44.88321" lon="5.19726">
        <ele>944.15</ele>
        <time>2019-05-01T09:44:15Z</time>
      </trkpt>
      <trkpt lat="44.88271" lon="5.19753">
        <ele>945.59</ele>
        <time>2019-05-01T09:44:34Z</time>
      </trkpt>
      <trkpt lat="44.88267" lon="5.19755">
        <ele>945.59</ele>
        <time>2019-05-01T09:44:53Z</time>
      </trkpt>
      <trkpt lat="44.88299" lon="5.19745">
        <ele>945.59</ele>
        <time>2019-05-01T09:45:11Z</time>
      </trkpt>
      <trkpt lat="44.88313" lon="5.19746">
        <ele>945.59</ele>
        <time>2019-05-01T09:45:28Z</time>
      </trkpt>
      <trkpt lat="44.88326" lon="5.1975">
        <ele>947.04</ele>
        <time>2019-05-01T09:45:50Z</time>
      </trkpt>
      <trkpt lat="44.88332" lon="5.19735">
        <ele>947.52</ele>
        <time>2019-05-01T09:46:15Z</time>
      </trkpt>
      <trkpt lat="44.88325" lon="5.19741">
        <ele>948</ele>
        <time>2019-05-01T09:46:34Z</time>
      </trkpt>
      <trkpt lat="44.88328" lon="5.19742">
        <ele>948</ele>
        <time>2019-05-01T09:47:00Z</time>
      </trkpt>
      <trkpt lat="44.88325" lon="5.19745">
        <ele>948.48</ele>
        <time>2019-05-01T09:47:27Z</time>
      </trkpt>
      <trkpt lat="44.88336" lon="5.19743">
        <ele>949.92</ele>
        <time>2019-05-01T09:47:44Z</time>
      </trkpt>
      <trkpt lat="44.8833" lon="5.1975">
        <ele>950.4</ele>
        <time>2019-05-01T09:48:01Z</time>
      </trkpt>
      <trkpt lat="44.8832" lon="5.19763">
        <ele>951.84</ele>
        <time>2019-05-01T09:48:15Z</time>
      </trkpt>
      <trkpt lat="44.88317" lon="5.19762">
        <ele>952.8</ele>
        <time>2019-05-01T09:48:31Z</time>
      </trkpt>
      <trkpt lat="44.88315" lon="5.19769">
        <ele>953.77</ele>
        <time>2019-05-01T09:48:45Z</time>
      </trkpt>
      <trkpt lat="44.88317" lon="5.19772">
        <ele>955.69</ele>
        <time>2019-05-01T09:48:59Z</time>
      </trkpt>
      <trkpt lat="44.8832" lon="5.19781">
        <ele>957.13</ele>
        <time>2019-05-01T09:49:12Z</time>
      </trkpt>
      <trkpt lat="44.88324" lon="5.19784">
        <ele>957.61</ele>
        <time>2019-05-01T09:49:29Z</time>
      </trkpt>
      <trkpt lat="44.88327" lon="5.19793">
        <ele>958.09</ele>
        <time>2019-05-01T09:49:43Z</time>
      </trkpt>
      <trkpt lat="44.8833" lon="5.198">
        <ele>958.57</ele>
        <time>2019-05-01T09:50:04Z</time>
      </trkpt>
      <trkpt lat="44.88331" lon="5.19806">
        <ele>958.57</ele>
        <time>2019-05-01T09:50:19Z</time>
      </trkpt>
      <trkpt lat="44.8834" lon="5.19816">
        <ele>960.01</ele>
        <time>2019-05-01T09:50:34Z</time>
      </trkpt>
      <trkpt lat="44.88339" lon="5.19823">
        <ele>961.46</ele>
        <time>2019-05-01T09:50:48Z</time>
      </trkpt>
      <trkpt lat="44.88336" lon="5.19828">
        <ele>960.98</ele>
        <time>2019-05-01T09:51:03Z</time>
      </trkpt>
      <trkpt lat="44.88328" lon="5.19832">
        <ele>962.42</ele>
        <time>2019-05-01T09:51:20Z</time>
      </trkpt>
      <trkpt lat="44.88327" lon="5.1984">
        <ele>962.42</ele>
        <time>2019-05-01T09:51:34Z</time>
      </trkpt>
      <trkpt lat="44.88325" lon="5.19842">
        <ele>963.86</ele>
        <time>2019-05-01T09:51:50Z</time>
      </trkpt>
      <trkpt lat="44.88324" lon="5.19841">
        <ele>966.74</ele>
        <time>2019-05-01T09:52:09Z</time>
      </trkpt>
      <trkpt lat="44.88315" lon="5.19837">
        <ele>966.74</ele>
        <time>2019-05-01T09:52:29Z</time>
      </trkpt>
      <trkpt lat="44.88325" lon="5.1984">
        <ele>966.74</ele>
        <time>2019-05-01T09:52:46Z</time>
      </trkpt>
      <trkpt lat="44.88329" lon="5.19831">
        <ele>965.78</ele>
        <time>2019-05-01T09:53:04Z</time>
      </trkpt>
      <trkpt lat="44.88326" lon="5.1983">
        <ele>965.78</ele>
        <time>2019-05-01T09:53:19Z</time>
      </trkpt>
      <trkpt lat="44.88326" lon="5.19835">
        <ele>965.78</ele>
        <time>2019-05-01T09:53:29Z</time>
      </trkpt>
      <trkpt lat="44.88321" lon="5.19844">
        <ele>963.38</ele>
        <time>2019-05-01T09:53:43Z</time>
      </trkpt>
      <trkpt lat="44.88326" lon="5.19841">
        <ele>961.94</ele>
        <time>2019-05-01T09:53:59Z</time>
      </trkpt>
      <trkpt lat="44.88322" lon="5.19838">
        <ele>962.9</ele>
        <time>2019-05-01T09:54:13Z</time>
      </trkpt>
      <trkpt lat="44.88324" lon="5.1983">
        <ele>962.9</ele>
        <time>2019-05-01T09:54:35Z</time>
      </trkpt>
      <trkpt lat="44.88327" lon="5.19829">
        <ele>962.42</ele>
        <time>2019-05-01T09:54:43Z</time>
      </trkpt>
      <trkpt lat="44.8833" lon="5.19822">
        <ele>960.49</ele>
        <time>2019-05-01T09:55:01Z</time>
      </trkpt>
      <trkpt lat="44.88339" lon="5.19814">
        <ele>960.01</ele>
        <time>2019-05-01T09:55:15Z</time>
      </trkpt>
      <trkpt lat="44.88334" lon="5.198">
        <ele>958.57</ele>
        <time>2019-05-01T09:55:32Z</time>
      </trkpt>
      <trkpt lat="44.88336" lon="5.19793">
        <ele>958.09</ele>
        <time>2019-05-01T09:55:47Z</time>
      </trkpt>
      <trkpt lat="44.8832" lon="5.19791">
        <ele>959.05</ele>
        <time>2019-05-01T09:56:07Z</time>
      </trkpt>
      <trkpt lat="44.88327" lon="5.19783">
        <ele>958.09</ele>
        <time>2019-05-01T09:56:21Z</time>
      </trkpt>
      <trkpt lat="44.8832" lon="5.19781">
        <ele>958.09</ele>
        <time>2019-05-01T09:56:43Z</time>
      </trkpt>
      <trkpt lat="44.88327" lon="5.19794">
        <ele>957.61</ele>
        <time>2019-05-01T09:57:02Z</time>
      </trkpt>
      <trkpt lat="44.8832" lon="5.19795">
        <ele>957.61</ele>
        <time>2019-05-01T09:57:23Z</time>
      </trkpt>
      <trkpt lat="44.8832" lon="5.19796">
        <ele>958.57</ele>
        <time>2019-05-01T09:57:43Z</time>
      </trkpt>
      <trkpt lat="44.88324" lon="5.19789">
        <ele>957.61</ele>
        <time>2019-05-01T09:58:11Z</time>
      </trkpt>
      <trkpt lat="44.88325" lon="5.19787">
        <ele>958.09</ele>
        <time>2019-05-01T09:58:31Z</time>
      </trkpt>
      <trkpt lat="44.88321" lon="5.19798">
        <ele>958.09</ele>
        <time>2019-05-01T09:58:49Z</time>
      </trkpt>
      <trkpt lat="44.88321" lon="5.19806">
        <ele>958.57</ele>
        <time>2019-05-01T09:58:59Z</time>
      </trkpt>
      <trkpt lat="44.88316" lon="5.19816">
        <ele>959.53</ele>
        <time>2019-05-01T09:59:13Z</time>
      </trkpt>
      <trkpt lat="44.88317" lon="5.19826">
        <ele>961.94</ele>
        <time>2019-05-01T09:59:31Z</time>
      </trkpt>
      <trkpt lat="44.88309" lon="5.19836">
        <ele>961.94</ele>
        <time>2019-05-01T09:59:47Z</time>
      </trkpt>
      <trkpt lat="44.88312" lon="5.1984">
        <ele>963.38</ele>
        <time>2019-05-01T09:59:59Z</time>
      </trkpt>
      <trkpt lat="44.88313" lon="5.19841">
        <ele>963.38</ele>
        <time>2019-05-01T10:00:01Z</time>
      </trkpt>
      <trkpt lat="44.88319" lon="5.19849">
        <ele>963.38</ele>
        <time>2019-05-01T10:00:15Z</time>
      </trkpt>
      <trkpt lat="44.88322" lon="5.1986">
        <ele>965.3</ele>
        <time>2019-05-01T10:00:31Z</time>
      </trkpt>
      <trkpt lat="44.88323" lon="5.19865">
        <ele>964.82</ele>
        <time>2019-05-01T10:00:45Z</time>
      </trkpt>
      <trkpt lat="44.88323" lon="5.19869">
        <ele>965.3</ele>
        <time>2019-05-01T10:00:54Z</time>
      </trkpt>
      <trkpt lat="44.8833" lon="5.19878">
        <ele>965.78</ele>
        <time>2019-05-01T10:01:09Z</time>
      </trkpt>
      <trkpt lat="44.8833" lon="5.19892">
        <ele>966.74</ele>
        <time>2019-05-01T10:01:37Z</time>
      </trkpt>
      <trkpt lat="44.8833" lon="5.19901">
        <ele>967.22</ele>
        <time>2019-05-01T10:01:43Z</time>
      </trkpt>
      <trkpt lat="44.88329" lon="5.19909">
        <ele>968.18</ele>
        <time>2019-05-01T10:01:54Z</time>
      </trkpt>
      <trkpt lat="44.88329" lon="5.19916">
        <ele>968.67</ele>
        <time>2019-05-01T10:02:14Z</time>
      </trkpt>
      <trkpt lat="44.88324" lon="5.19923">
        <ele>969.63</ele>
        <time>2019-05-01T10:02:20Z</time>
      </trkpt>
      <trkpt lat="44.88306" lon="5.19936">
        <ele>970.11</ele>
        <time>2019-05-01T10:02:32Z</time>
      </trkpt>
      <trkpt lat="44.883" lon="5.19941">
        <ele>969.63</ele>
        <time>2019-05-01T10:02:37Z</time>
      </trkpt>
      <trkpt lat="44.88293" lon="5.19958">
        <ele>971.07</ele>
        <time>2019-05-01T10:02:51Z</time>
      </trkpt>
      <trkpt lat="44.88294" lon="5.19968">
        <ele>972.51</ele>
        <time>2019-05-01T10:03:03Z</time>
      </trkpt>
      <trkpt lat="44.88288" lon="5.19986">
        <ele>974.43</ele>
        <time>2019-05-01T10:03:18Z</time>
      </trkpt>
      <trkpt lat="44.88286" lon="5.19984">
        <ele>975.39</ele>
        <time>2019-05-01T10:03:27Z</time>
      </trkpt>
      <trkpt lat="44.88282" lon="5.19988">
        <ele>976.36</ele>
        <time>2019-05-01T10:03:38Z</time>
      </trkpt>
      <trkpt lat="44.88278" lon="5.19992">
        <ele>976.84</ele>
        <time>2019-05-01T10:03:53Z</time>
      </trkpt>
      <trkpt lat="44.88276" lon="5.19992">
        <ele>977.32</ele>
        <time>2019-05-01T10:04:06Z</time>
      </trkpt>
      <trkpt lat="44.88263" lon="5.20006">
        <ele>976.84</ele>
        <time>2019-05-01T10:04:16Z</time>
      </trkpt>
      <trkpt lat="44.88259" lon="5.20011">
        <ele>975.88</ele>
        <time>2019-05-01T10:04:36Z</time>
      </trkpt>
      <trkpt lat="44.88258" lon="5.20013">
        <ele>976.84</ele>
        <time>2019-05-01T10:04:40Z</time>
      </trkpt>
      <trkpt lat="44.88259" lon="5.20016">
        <ele>975.39</ele>
        <time>2019-05-01T10:04:43Z</time>
      </trkpt>
      <trkpt lat="44.88259" lon="5.20018">
        <ele>977.8</ele>
        <time>2019-05-01T10:04:44Z</time>
      </trkpt>
      <trkpt lat="44.88247" lon="5.20027">
        <ele>978.28</ele>
        <time>2019-05-01T10:04:54Z</time>
      </trkpt>
      <trkpt lat="44.88241" lon="5.20029">
        <ele>978.28</ele>
        <time>2019-05-01T10:05:08Z</time>
      </trkpt>
      <trkpt lat="44.8823" lon="5.20037">
        <ele>978.76</ele>
        <time>2019-05-01T10:05:21Z</time>
      </trkpt>
      <trkpt lat="44.88226" lon="5.20039">
        <ele>979.24</ele>
        <time>2019-05-01T10:05:33Z</time>
      </trkpt>
      <trkpt lat="44.88234" lon="5.20021">
        <ele>979.72</ele>
        <time>2019-05-01T10:06:00Z</time>
      </trkpt>
      <trkpt lat="44.88231" lon="5.20024">
        <ele>980.2</ele>
        <time>2019-05-01T10:06:17Z</time>
      </trkpt>
      <trkpt lat="44.88225" lon="5.2003">
        <ele>980.68</ele>
        <time>2019-05-01T10:06:31Z</time>
      </trkpt>
      <trkpt lat="44.88218" lon="5.20031">
        <ele>980.68</ele>
        <time>2019-05-01T10:06:46Z</time>
      </trkpt>
      <trkpt lat="44.88215" lon="5.20032">
        <ele>982.12</ele>
        <time>2019-05-01T10:07:04Z</time>
      </trkpt>
      <trkpt lat="44.88225" lon="5.20053">
        <ele>981.16</ele>
        <time>2019-05-01T10:07:26Z</time>
      </trkpt>
      <trkpt lat="44.882" lon="5.20047">
        <ele>981.64</ele>
        <time>2019-05-01T10:07:45Z</time>
      </trkpt>
      <trkpt lat="44.88191" lon="5.20044">
        <ele>982.12</ele>
        <time>2019-05-01T10:07:51Z</time>
      </trkpt>
      <trkpt lat="44.88172" lon="5.20043">
        <ele>983.57</ele>
        <time>2019-05-01T10:08:08Z</time>
      </trkpt>
      <trkpt lat="44.88164" lon="5.20041">
        <ele>985.01</ele>
        <time>2019-05-01T10:08:16Z</time>
      </trkpt>
      <trkpt lat="44.88149" lon="5.20038">
        <ele>985.01</ele>
        <time>2019-05-01T10:08:29Z</time>
      </trkpt>
      <trkpt lat="44.8814" lon="5.2004">
        <ele>986.93</ele>
        <time>2019-05-01T10:08:42Z</time>
      </trkpt>
      <trkpt lat="44.88131" lon="5.20046">
        <ele>988.37</ele>
        <time>2019-05-01T10:08:57Z</time>
      </trkpt>
      <trkpt lat="44.88127" lon="5.20055">
        <ele>990.3</ele>
        <time>2019-05-01T10:09:12Z</time>
      </trkpt>
      <trkpt lat="44.88122" lon="5.20065">
        <ele>991.74</ele>
        <time>2019-05-01T10:09:26Z</time>
      </trkpt>
      <trkpt lat="44.88123" lon="5.20066">
        <ele>991.74</ele>
        <time>2019-05-01T10:09:50Z</time>
      </trkpt>
      <trkpt lat="44.8812" lon="5.20064">
        <ele>992.22</ele>
        <time>2019-05-01T10:10:12Z</time>
      </trkpt>
      <trkpt lat="44.88111" lon="5.20075">
        <ele>994.14</ele>
        <time>2019-05-01T10:10:26Z</time>
      </trkpt>
      <trkpt lat="44.88101" lon="5.20084">
        <ele>994.62</ele>
        <time>2019-05-01T10:10:40Z</time>
      </trkpt>
      <trkpt lat="44.88097" lon="5.20086">
        <ele>994.62</ele>
        <time>2019-05-01T10:10:52Z</time>
      </trkpt>
      <trkpt lat="44.88089" lon="5.20097">
        <ele>994.62</ele>
        <time>2019-05-01T10:11:07Z</time>
      </trkpt>
      <trkpt lat="44.88079" lon="5.20108">
        <ele>995.1</ele>
        <time>2019-05-01T10:11:23Z</time>
      </trkpt>
      <trkpt lat="44.88075" lon="5.20111">
        <ele>996.06</ele>
        <time>2019-05-01T10:11:37Z</time>
      </trkpt>
      <trkpt lat="44.88076" lon="5.20112">
        <ele>996.06</ele>
        <time>2019-05-01T10:11:43Z</time>
      </trkpt>
      <trkpt lat="44.88077" lon="5.20117">
        <ele>994.62</ele>
        <time>2019-05-01T10:11:52Z</time>
      </trkpt>
      <trkpt lat="44.8808" lon="5.20119">
        <ele>994.62</ele>
        <time>2019-05-01T10:12:19Z</time>
      </trkpt>
      <trkpt lat="44.88074" lon="5.20118">
        <ele>995.58</ele>
        <time>2019-05-01T10:12:34Z</time>
      </trkpt>
      <trkpt lat="44.88068" lon="5.20122">
        <ele>995.58</ele>
        <time>2019-05-01T10:12:46Z</time>
      </trkpt>
      <trkpt lat="44.88056" lon="5.20127">
        <ele>996.54</ele>
        <time>2019-05-01T10:13:00Z</time>
      </trkpt>
      <trkpt lat="44.88045" lon="5.20136">
        <ele>997.51</ele>
        <time>2019-05-01T10:13:14Z</time>
      </trkpt>
      <trkpt lat="44.8804" lon="5.20144">
        <ele>998.95</ele>
        <time>2019-05-01T10:13:28Z</time>
      </trkpt>
      <trkpt lat="44.88029" lon="5.20152">
        <ele>1000.39</ele>
        <time>2019-05-01T10:13:41Z</time>
      </trkpt>
      <trkpt lat="44.8802" lon="5.20159">
        <ele>1001.35</ele>
        <time>2019-05-01T10:13:54Z</time>
      </trkpt>
      <trkpt lat="44.88008" lon="5.20166">
        <ele>1003.75</ele>
        <time>2019-05-01T10:14:08Z</time>
      </trkpt>
      <trkpt lat="44.87994" lon="5.20173">
        <ele>1004.72</ele>
        <time>2019-05-01T10:14:23Z</time>
      </trkpt>
      <trkpt lat="44.87982" lon="5.20179">
        <ele>1005.68</ele>
        <time>2019-05-01T10:14:37Z</time>
      </trkpt>
      <trkpt lat="44.87971" lon="5.20185">
        <ele>1005.2</ele>
        <time>2019-05-01T10:14:50Z</time>
      </trkpt>
      <trkpt lat="44.87959" lon="5.20191">
        <ele>1006.64</ele>
        <time>2019-05-01T10:15:05Z</time>
      </trkpt>
      <trkpt lat="44.87949" lon="5.20197">
        <ele>1007.12</ele>
        <time>2019-05-01T10:15:17Z</time>
      </trkpt>
      <trkpt lat="44.8793" lon="5.20202">
        <ele>1008.56</ele>
        <time>2019-05-01T10:15:35Z</time>
      </trkpt>
      <trkpt lat="44.87925" lon="5.20206">
        <ele>1010</ele>
        <time>2019-05-01T10:15:42Z</time>
      </trkpt>
      <trkpt lat="44.87913" lon="5.20212">
        <ele>1011.44</ele>
        <time>2019-05-01T10:15:57Z</time>
      </trkpt>
      <trkpt lat="44.87909" lon="5.20216">
        <ele>1012.41</ele>
        <time>2019-05-01T10:16:09Z</time>
      </trkpt>
      <trkpt lat="44.8791" lon="5.20216">
        <ele>1011.44</ele>
        <time>2019-05-01T10:16:22Z</time>
      </trkpt>
      <trkpt lat="44.87897" lon="5.2022">
        <ele>1013.85</ele>
        <time>2019-05-01T10:16:39Z</time>
      </trkpt>
      <trkpt lat="44.87889" lon="5.20224">
        <ele>1015.29</ele>
        <time>2019-05-01T10:16:52Z</time>
      </trkpt>
      <trkpt lat="44.87877" lon="5.20235">
        <ele>1017.21</ele>
        <time>2019-05-01T10:17:10Z</time>
      </trkpt>
      <trkpt lat="44.87872" lon="5.20237">
        <ele>1018.17</ele>
        <time>2019-05-01T10:17:17Z</time>
      </trkpt>
      <trkpt lat="44.87864" lon="5.20248">
        <ele>1019.62</ele>
        <time>2019-05-01T10:17:30Z</time>
      </trkpt>
      <trkpt lat="44.8786" lon="5.20258">
        <ele>1021.06</ele>
        <time>2019-05-01T10:17:43Z</time>
      </trkpt>
      <trkpt lat="44.87852" lon="5.20266">
        <ele>1022.98</ele>
        <time>2019-05-01T10:17:55Z</time>
      </trkpt>
      <trkpt lat="44.87845" lon="5.2027">
        <ele>1024.42</ele>
        <time>2019-05-01T10:18:08Z</time>
      </trkpt>
      <trkpt lat="44.87834" lon="5.20276">
        <ele>1025.38</ele>
        <time>2019-05-01T10:18:22Z</time>
      </trkpt>
      <trkpt lat="44.87825" lon="5.20282">
        <ele>1027.31</ele>
        <time>2019-05-01T10:18:35Z</time>
      </trkpt>
      <trkpt lat="44.87814" lon="5.20289">
        <ele>1028.27</ele>
        <time>2019-05-01T10:18:49Z</time>
      </trkpt>
      <trkpt lat="44.87802" lon="5.20297">
        <ele>1029.71</ele>
        <time>2019-05-01T10:19:04Z</time>
      </trkpt>
      <trkpt lat="44.87791" lon="5.20302">
        <ele>1031.15</ele>
        <time>2019-05-01T10:19:17Z</time>
      </trkpt>
      <trkpt lat="44.87779" lon="5.20305">
        <ele>1031.63</ele>
        <time>2019-05-01T10:19:30Z</time>
      </trkpt>
      <trkpt lat="44.87769" lon="5.2031">
        <ele>1033.07</ele>
        <time>2019-05-01T10:19:44Z</time>
      </trkpt>
      <trkpt lat="44.87754" lon="5.20315">
        <ele>1034.04</ele>
        <time>2019-05-01T10:20:00Z</time>
      </trkpt>
      <trkpt lat="44.87741" lon="5.20318">
        <ele>1035.48</ele>
        <time>2019-05-01T10:20:15Z</time>
      </trkpt>
      <trkpt lat="44.87731" lon="5.20322">
        <ele>1036.44</ele>
        <time>2019-05-01T10:20:26Z</time>
      </trkpt>
      <trkpt lat="44.8772" lon="5.2033">
        <ele>1038.36</ele>
        <time>2019-05-01T10:20:38Z</time>
      </trkpt>
      <trkpt lat="44.87717" lon="5.20332">
        <ele>1037.88</ele>
        <time>2019-05-01T10:20:41Z</time>
      </trkpt>
      <trkpt lat="44.87702" lon="5.20338">
        <ele>1038.84</ele>
        <time>2019-05-01T10:20:56Z</time>
      </trkpt>
      <trkpt lat="44.87686" lon="5.20339">
        <ele>1039.8</ele>
        <time>2019-05-01T10:21:11Z</time>
      </trkpt>
      <trkpt lat="44.87672" lon="5.20341">
        <ele>1041.73</ele>
        <time>2019-05-01T10:21:27Z</time>
      </trkpt>
      <trkpt lat="44.87661" lon="5.20341">
        <ele>1042.69</ele>
        <time>2019-05-01T10:21:39Z</time>
      </trkpt>
      <trkpt lat="44.87655" lon="5.20342">
        <ele>1044.13</ele>
        <time>2019-05-01T10:21:52Z</time>
      </trkpt>
      <trkpt lat="44.87644" lon="5.20345">
        <ele>1045.57</ele>
        <time>2019-05-01T10:22:04Z</time>
      </trkpt>
      <trkpt lat="44.87631" lon="5.20348">
        <ele>1047.49</ele>
        <time>2019-05-01T10:22:18Z</time>
      </trkpt>
      <trkpt lat="44.87618" lon="5.2035">
        <ele>1048.45</ele>
        <time>2019-05-01T10:22:32Z</time>
      </trkpt>
      <trkpt lat="44.8761" lon="5.20355">
        <ele>1049.42</ele>
        <time>2019-05-01T10:22:44Z</time>
      </trkpt>
      <trkpt lat="44.87597" lon="5.20358">
        <ele>1050.38</ele>
        <time>2019-05-01T10:22:59Z</time>
      </trkpt>
      <trkpt lat="44.87587" lon="5.20359">
        <ele>1050.86</ele>
        <time>2019-05-01T10:23:11Z</time>
      </trkpt>
      <trkpt lat="44.87573" lon="5.20362">
        <ele>1052.3</ele>
        <time>2019-05-01T10:23:25Z</time>
      </trkpt>
      <trkpt lat="44.8756" lon="5.20362">
        <ele>1054.7</ele>
        <time>2019-05-01T10:23:39Z</time>
      </trkpt>
      <trkpt lat="44.87548" lon="5.20362">
        <ele>1055.67</ele>
        <time>2019-05-01T10:23:52Z</time>
      </trkpt>
      <trkpt lat="44.87542" lon="5.20362">
        <ele>1057.59</ele>
        <time>2019-05-01T10:24:02Z</time>
      </trkpt>
      <trkpt lat="44.87529" lon="5.20364">
        <ele>1058.55</ele>
        <time>2019-05-01T10:24:18Z</time>
      </trkpt>
      <trkpt lat="44.8752" lon="5.20365">
        <ele>1059.51</ele>
        <time>2019-05-01T10:24:34Z</time>
      </trkpt>
      <trkpt lat="44.87512" lon="5.20368">
        <ele>1059.99</ele>
        <time>2019-05-01T10:24:43Z</time>
      </trkpt>
      <trkpt lat="44.87502" lon="5.20369">
        <ele>1061.43</ele>
        <time>2019-05-01T10:24:57Z</time>
      </trkpt>
      <trkpt lat="44.8749" lon="5.20369">
        <ele>1062.39</ele>
        <time>2019-05-01T10:25:11Z</time>
      </trkpt>
      <trkpt lat="44.87487" lon="5.2037">
        <ele>1062.39</ele>
        <time>2019-05-01T10:25:15Z</time>
      </trkpt>
      <trkpt lat="44.87478" lon="5.20369">
        <ele>1063.36</ele>
        <time>2019-05-01T10:25:26Z</time>
      </trkpt>
      <trkpt lat="44.87468" lon="5.20369">
        <ele>1063.36</ele>
        <time>2019-05-01T10:25:39Z</time>
      </trkpt>
      <trkpt lat="44.87458" lon="5.20368">
        <ele>1062.87</ele>
        <time>2019-05-01T10:25:52Z</time>
      </trkpt>
      <trkpt lat="44.87454" lon="5.20368">
        <ele>1062.87</ele>
        <time>2019-05-01T10:25:56Z</time>
      </trkpt>
      <trkpt lat="44.87447" lon="5.20369">
        <ele>1063.36</ele>
        <time>2019-05-01T10:26:03Z</time>
      </trkpt>
      <trkpt lat="44.87435" lon="5.20372">
        <ele>1064.32</ele>
        <time>2019-05-01T10:26:16Z</time>
      </trkpt>
      <trkpt lat="44.87426" lon="5.20373">
        <ele>1065.76</ele>
        <time>2019-05-01T10:26:26Z</time>
      </trkpt>
      <trkpt lat="44.87414" lon="5.20371">
        <ele>1067.2</ele>
        <time>2019-05-01T10:26:39Z</time>
      </trkpt>
      <trkpt lat="44.87404" lon="5.2037">
        <ele>1067.2</ele>
        <time>2019-05-01T10:26:51Z</time>
      </trkpt>
      <trkpt lat="44.87394" lon="5.20371">
        <ele>1068.64</ele>
        <time>2019-05-01T10:27:03Z</time>
      </trkpt>
      <trkpt lat="44.87392" lon="5.20371">
        <ele>1070.08</ele>
        <time>2019-05-01T10:27:06Z</time>
      </trkpt>
      <trkpt lat="44.8738" lon="5.20375">
        <ele>1070.08</ele>
        <time>2019-05-01T10:27:18Z</time>
      </trkpt>
      <trkpt lat="44.87379" lon="5.20376">
        <ele>1070.08</ele>
        <time>2019-05-01T10:27:19Z</time>
      </trkpt>
      <trkpt lat="44.87365" lon="5.20383">
        <ele>1069.6</ele>
        <time>2019-05-01T10:27:33Z</time>
      </trkpt>
      <trkpt lat="44.87356" lon="5.20387">
        <ele>1071.05</ele>
        <time>2019-05-01T10:27:43Z</time>
      </trkpt>
      <trkpt lat="44.87344" lon="5.20391">
        <ele>1072.97</ele>
        <time>2019-05-01T10:27:56Z</time>
      </trkpt>
      <trkpt lat="44.87333" lon="5.20395">
        <ele>1074.41</ele>
        <time>2019-05-01T10:28:09Z</time>
      </trkpt>
      <trkpt lat="44.87322" lon="5.204">
        <ele>1075.85</ele>
        <time>2019-05-01T10:28:22Z</time>
      </trkpt>
      <trkpt lat="44.87315" lon="5.20405">
        <ele>1078.26</ele>
        <time>2019-05-01T10:28:34Z</time>
      </trkpt>
      <trkpt lat="44.87311" lon="5.20406">
        <ele>1079.22</ele>
        <time>2019-05-01T10:28:46Z</time>
      </trkpt>
      <trkpt lat="44.87312" lon="5.2041">
        <ele>1078.74</ele>
        <time>2019-05-01T10:29:06Z</time>
      </trkpt>
      <trkpt lat="44.87311" lon="5.20412">
        <ele>1079.7</ele>
        <time>2019-05-01T10:29:10Z</time>
      </trkpt>
      <trkpt lat="44.87308" lon="5.20414">
        <ele>1080.18</ele>
        <time>2019-05-01T10:29:20Z</time>
      </trkpt>
      <trkpt lat="44.87307" lon="5.20415">
        <ele>1080.66</ele>
        <time>2019-05-01T10:29:22Z</time>
      </trkpt>
      <trkpt lat="44.873" lon="5.2042">
        <ele>1083.06</ele>
        <time>2019-05-01T10:29:36Z</time>
      </trkpt>
      <trkpt lat="44.8729" lon="5.20424">
        <ele>1084.5</ele>
        <time>2019-05-01T10:29:51Z</time>
      </trkpt>
      <trkpt lat="44.8728" lon="5.20428">
        <ele>1085.47</ele>
        <time>2019-05-01T10:30:07Z</time>
      </trkpt>
      <trkpt lat="44.8727" lon="5.2043">
        <ele>1086.91</ele>
        <time>2019-05-01T10:30:23Z</time>
      </trkpt>
      <trkpt lat="44.8726" lon="5.20433">
        <ele>1089.79</ele>
        <time>2019-05-01T10:30:40Z</time>
      </trkpt>
      <trkpt lat="44.87258" lon="5.20432">
        <ele>1089.79</ele>
        <time>2019-05-01T10:30:41Z</time>
      </trkpt>
      <trkpt lat="44.87246" lon="5.20434">
        <ele>1091.71</ele>
        <time>2019-05-01T10:30:59Z</time>
      </trkpt>
      <trkpt lat="44.87233" lon="5.20437">
        <ele>1094.6</ele>
        <time>2019-05-01T10:31:17Z</time>
      </trkpt>
      <trkpt lat="44.87222" lon="5.20436">
        <ele>1096.52</ele>
        <time>2019-05-01T10:31:32Z</time>
      </trkpt>
      <trkpt lat="44.8721" lon="5.20437">
        <ele>1097.48</ele>
        <time>2019-05-01T10:31:47Z</time>
      </trkpt>
      <trkpt lat="44.872" lon="5.20437">
        <ele>1099.89</ele>
        <time>2019-05-01T10:32:01Z</time>
      </trkpt>
      <trkpt lat="44.87193" lon="5.20437">
        <ele>1101.33</ele>
        <time>2019-05-01T10:32:09Z</time>
      </trkpt>
      <trkpt lat="44.8718" lon="5.20433">
        <ele>1102.29</ele>
        <time>2019-05-01T10:32:23Z</time>
      </trkpt>
      <trkpt lat="44.87175" lon="5.20435">
        <ele>1101.81</ele>
        <time>2019-05-01T10:32:41Z</time>
      </trkpt>
      <trkpt lat="44.87169" lon="5.20439">
        <ele>1105.17</ele>
        <time>2019-05-01T10:32:55Z</time>
      </trkpt>
      <trkpt lat="44.87163" lon="5.20444">
        <ele>1106.13</ele>
        <time>2019-05-01T10:33:08Z</time>
      </trkpt>
      <trkpt lat="44.87158" lon="5.20445">
        <ele>1108.54</ele>
        <time>2019-05-01T10:33:19Z</time>
      </trkpt>
      <trkpt lat="44.8715" lon="5.20446">
        <ele>1110.46</ele>
        <time>2019-05-01T10:33:36Z</time>
      </trkpt>
      <trkpt lat="44.87143" lon="5.20446">
        <ele>1111.42</ele>
        <time>2019-05-01T10:33:50Z</time>
      </trkpt>
      <trkpt lat="44.87134" lon="5.20447">
        <ele>1114.79</ele>
        <time>2019-05-01T10:34:02Z</time>
      </trkpt>
      <trkpt lat="44.87124" lon="5.20445">
        <ele>1118.15</ele>
        <time>2019-05-01T10:34:15Z</time>
      </trkpt>
      <trkpt lat="44.87116" lon="5.20446">
        <ele>1118.63</ele>
        <time>2019-05-01T10:34:27Z</time>
      </trkpt>
      <trkpt lat="44.87112" lon="5.20442">
        <ele>1120.55</ele>
        <time>2019-05-01T10:34:42Z</time>
      </trkpt>
      <trkpt lat="44.87103" lon="5.20445">
        <ele>1121.52</ele>
        <time>2019-05-01T10:34:59Z</time>
      </trkpt>
      <trkpt lat="44.87101" lon="5.20449">
        <ele>1121.52</ele>
        <time>2019-05-01T10:35:26Z</time>
      </trkpt>
      <trkpt lat="44.87099" lon="5.20443">
        <ele>1120.55</ele>
        <time>2019-05-01T10:35:46Z</time>
      </trkpt>
      <trkpt lat="44.871" lon="5.20443">
        <ele>1122.96</ele>
        <time>2019-05-01T10:35:48Z</time>
      </trkpt>
      <trkpt lat="44.87098" lon="5.20445">
        <ele>1121.52</ele>
        <time>2019-05-01T10:35:54Z</time>
      </trkpt>
      <trkpt lat="44.87098" lon="5.20445">
        <ele>1120.55</ele>
        <time>2019-05-01T10:35:56Z</time>
      </trkpt>
      <trkpt lat="44.87098" lon="5.20445">
        <ele>1122</ele>
        <time>2019-05-01T10:35:57Z</time>
      </trkpt>
      <trkpt lat="44.87097" lon="5.20445">
        <ele>1123.44</ele>
        <time>2019-05-01T10:35:58Z</time>
      </trkpt>
      <trkpt lat="44.87096" lon="5.20444">
        <ele>1122</ele>
        <time>2019-05-01T10:36:00Z</time>
      </trkpt>
      <trkpt lat="44.87096" lon="5.20444">
        <ele>1124.4</ele>
        <time>2019-05-01T10:36:01Z</time>
      </trkpt>
      <trkpt lat="44.87095" lon="5.20443">
        <ele>1120.55</ele>
        <time>2019-05-01T10:36:04Z</time>
      </trkpt>
      <trkpt lat="44.87095" lon="5.20443">
        <ele>1124.4</ele>
        <time>2019-05-01T10:36:06Z</time>
      </trkpt>
      <trkpt lat="44.87094" lon="5.20442">
        <ele>1123.92</ele>
        <time>2019-05-01T10:36:07Z</time>
      </trkpt>
      <trkpt lat="44.87092" lon="5.2044">
        <ele>1122.48</ele>
        <time>2019-05-01T10:36:13Z</time>
      </trkpt>
      <trkpt lat="44.87097" lon="5.2044">
        <ele>1123.44</ele>
        <time>2019-05-01T10:36:17Z</time>
      </trkpt>
      <trkpt lat="44.871" lon="5.20442">
        <ele>1125.36</ele>
        <time>2019-05-01T10:36:22Z</time>
      </trkpt>
      <trkpt lat="44.871" lon="5.20442">
        <ele>1122</ele>
        <time>2019-05-01T10:36:23Z</time>
      </trkpt>
      <trkpt lat="44.87101" lon="5.20442">
        <ele>1120.55</ele>
        <time>2019-05-01T10:36:24Z</time>
      </trkpt>
      <trkpt lat="44.87103" lon="5.20442">
        <ele>1123.92</ele>
        <time>2019-05-01T10:36:28Z</time>
      </trkpt>
      <trkpt lat="44.87109" lon="5.2044">
        <ele>1123.92</ele>
        <time>2019-05-01T10:36:41Z</time>
      </trkpt>
      <trkpt lat="44.87104" lon="5.2044">
        <ele>1123.92</ele>
        <time>2019-05-01T10:36:55Z</time>
      </trkpt>
      <trkpt lat="44.87099" lon="5.20453">
        <ele>1122.96</ele>
        <time>2019-05-01T10:37:22Z</time>
      </trkpt>
      <trkpt lat="44.87098" lon="5.20442">
        <ele>1124.88</ele>
        <time>2019-05-01T10:37:42Z</time>
      </trkpt>
      <trkpt lat="44.87096" lon="5.20439">
        <ele>1124.4</ele>
        <time>2019-05-01T10:38:07Z</time>
      </trkpt>
      <trkpt lat="44.87091" lon="5.20442">
        <ele>1127.28</ele>
        <time>2019-05-01T10:38:21Z</time>
      </trkpt>
      <trkpt lat="44.87083" lon="5.20443">
        <ele>1129.69</ele>
        <time>2019-05-01T10:38:35Z</time>
      </trkpt>
      <trkpt lat="44.8708" lon="5.20443">
        <ele>1131.13</ele>
        <time>2019-05-01T10:38:40Z</time>
      </trkpt>
      <trkpt lat="44.87076" lon="5.20442">
        <ele>1131.13</ele>
        <time>2019-05-01T10:38:45Z</time>
      </trkpt>
      <trkpt lat="44.87075" lon="5.20442">
        <ele>1130.17</ele>
        <time>2019-05-01T10:38:47Z</time>
      </trkpt>
      <trkpt lat="44.8707" lon="5.20441">
        <ele>1132.09</ele>
        <time>2019-05-01T10:38:57Z</time>
      </trkpt>
      <trkpt lat="44.87059" lon="5.20439">
        <ele>1134.97</ele>
        <time>2019-05-01T10:39:11Z</time>
      </trkpt>
      <trkpt lat="44.87049" lon="5.20435">
        <ele>1136.9</ele>
        <time>2019-05-01T10:39:24Z</time>
      </trkpt>
      <trkpt lat="44.87048" lon="5.20435">
        <ele>1135.94</ele>
        <time>2019-05-01T10:39:26Z</time>
      </trkpt>
      <trkpt lat="44.87046" lon="5.20435">
        <ele>1137.38</ele>
        <time>2019-05-01T10:39:28Z</time>
      </trkpt>
      <trkpt lat="44.87032" lon="5.20431">
        <ele>1136.42</ele>
        <time>2019-05-01T10:39:44Z</time>
      </trkpt>
      <trkpt lat="44.87022" lon="5.20423">
        <ele>1137.86</ele>
        <time>2019-05-01T10:39:57Z</time>
      </trkpt>
      <trkpt lat="44.87012" lon="5.20421">
        <ele>1139.3</ele>
        <time>2019-05-01T10:40:10Z</time>
      </trkpt>
      <trkpt lat="44.87002" lon="5.20418">
        <ele>1141.22</ele>
        <time>2019-05-01T10:40:21Z</time>
      </trkpt>
      <trkpt lat="44.86991" lon="5.20418">
        <ele>1142.66</ele>
        <time>2019-05-01T10:40:37Z</time>
      </trkpt>
      <trkpt lat="44.86979" lon="5.20414">
        <ele>1144.11</ele>
        <time>2019-05-01T10:40:52Z</time>
      </trkpt>
      <trkpt lat="44.86969" lon="5.20416">
        <ele>1146.51</ele>
        <time>2019-05-01T10:41:07Z</time>
      </trkpt>
      <trkpt lat="44.86954" lon="5.20409">
        <ele>1147.95</ele>
        <time>2019-05-01T10:41:21Z</time>
      </trkpt>
      <trkpt lat="44.86943" lon="5.20409">
        <ele>1149.87</ele>
        <time>2019-05-01T10:41:37Z</time>
      </trkpt>
      <trkpt lat="44.86931" lon="5.2041">
        <ele>1152.28</ele>
        <time>2019-05-01T10:41:54Z</time>
      </trkpt>
      <trkpt lat="44.86925" lon="5.20418">
        <ele>1153.24</ele>
        <time>2019-05-01T10:42:09Z</time>
      </trkpt>
      <trkpt lat="44.86921" lon="5.20415">
        <ele>1154.2</ele>
        <time>2019-05-01T10:42:20Z</time>
      </trkpt>
      <trkpt lat="44.86917" lon="5.20413">
        <ele>1157.56</ele>
        <time>2019-05-01T10:42:30Z</time>
      </trkpt>
      <trkpt lat="44.86916" lon="5.20415">
        <ele>1153.72</ele>
        <time>2019-05-01T10:42:33Z</time>
      </trkpt>
      <trkpt lat="44.86915" lon="5.2041">
        <ele>1157.56</ele>
        <time>2019-05-01T10:42:47Z</time>
      </trkpt>
      <trkpt lat="44.86915" lon="5.20397">
        <ele>1157.08</ele>
        <time>2019-05-01T10:42:59Z</time>
      </trkpt>
      <trkpt lat="44.86919" lon="5.20382">
        <ele>1159.97</ele>
        <time>2019-05-01T10:43:12Z</time>
      </trkpt>
      <trkpt lat="44.86921" lon="5.20371">
        <ele>1160.93</ele>
        <time>2019-05-01T10:43:25Z</time>
      </trkpt>
      <trkpt lat="44.86922" lon="5.20364">
        <ele>1164.29</ele>
        <time>2019-05-01T10:43:33Z</time>
      </trkpt>
      <trkpt lat="44.86925" lon="5.20355">
        <ele>1165.74</ele>
        <time>2019-05-01T10:43:42Z</time>
      </trkpt>
      <trkpt lat="44.86931" lon="5.20343">
        <ele>1166.7</ele>
        <time>2019-05-01T10:43:57Z</time>
      </trkpt>
      <trkpt lat="44.86933" lon="5.20332">
        <ele>1168.62</ele>
        <time>2019-05-01T10:44:10Z</time>
      </trkpt>
      <trkpt lat="44.86939" lon="5.20321">
        <ele>1170.54</ele>
        <time>2019-05-01T10:44:23Z</time>
      </trkpt>
      <trkpt lat="44.86942" lon="5.20312">
        <ele>1172.47</ele>
        <time>2019-05-01T10:44:40Z</time>
      </trkpt>
      <trkpt lat="44.86946" lon="5.20296">
        <ele>1174.39</ele>
        <time>2019-05-01T10:44:57Z</time>
      </trkpt>
      <trkpt lat="44.86953" lon="5.20281">
        <ele>1177.27</ele>
        <time>2019-05-01T10:45:14Z</time>
      </trkpt>
      <trkpt lat="44.86953" lon="5.2027">
        <ele>1180.16</ele>
        <time>2019-05-01T10:45:29Z</time>
      </trkpt>
      <trkpt lat="44.86958" lon="5.20257">
        <ele>1180.64</ele>
        <time>2019-05-01T10:45:42Z</time>
      </trkpt>
      <trkpt lat="44.86957" lon="5.20256">
        <ele>1184</ele>
        <time>2019-05-01T10:46:04Z</time>
      </trkpt>
      <trkpt lat="44.86958" lon="5.20257">
        <ele>1181.12</ele>
        <time>2019-05-01T10:46:07Z</time>
      </trkpt>
      <trkpt lat="44.86957" lon="5.20258">
        <ele>1174.39</ele>
        <time>2019-05-01T10:46:15Z</time>
      </trkpt>
      <trkpt lat="44.86957" lon="5.20258">
        <ele>1185.92</ele>
        <time>2019-05-01T10:46:16Z</time>
      </trkpt>
      <trkpt lat="44.86956" lon="5.20258">
        <ele>1181.6</ele>
        <time>2019-05-01T10:46:17Z</time>
      </trkpt>
      <trkpt lat="44.86954" lon="5.20256">
        <ele>1181.12</ele>
        <time>2019-05-01T10:46:35Z</time>
      </trkpt>
      <trkpt lat="44.86965" lon="5.20247">
        <ele>1183.52</ele>
        <time>2019-05-01T10:46:54Z</time>
      </trkpt>
      <trkpt lat="44.86967" lon="5.20245">
        <ele>1184.48</ele>
        <time>2019-05-01T10:46:56Z</time>
      </trkpt>
      <trkpt lat="44.86975" lon="5.20245">
        <ele>1186.88</ele>
        <time>2019-05-01T10:47:08Z</time>
      </trkpt>
      <trkpt lat="44.86978" lon="5.20242">
        <ele>1187.85</ele>
        <time>2019-05-01T10:47:13Z</time>
      </trkpt>
      <trkpt lat="44.86988" lon="5.20235">
        <ele>1189.77</ele>
        <time>2019-05-01T10:47:28Z</time>
      </trkpt>
      <trkpt lat="44.86996" lon="5.20228">
        <ele>1190.73</ele>
        <time>2019-05-01T10:47:42Z</time>
      </trkpt>
      <trkpt lat="44.87002" lon="5.20226">
        <ele>1194.09</ele>
        <time>2019-05-01T10:47:52Z</time>
      </trkpt>
      <trkpt lat="44.87011" lon="5.20223">
        <ele>1196.02</ele>
        <time>2019-05-01T10:48:08Z</time>
      </trkpt>
      <trkpt lat="44.8702" lon="5.20222">
        <ele>1198.9</ele>
        <time>2019-05-01T10:48:22Z</time>
      </trkpt>
      <trkpt lat="44.87033" lon="5.2022">
        <ele>1201.3</ele>
        <time>2019-05-01T10:48:37Z</time>
      </trkpt>
      <trkpt lat="44.87045" lon="5.20218">
        <ele>1201.79</ele>
        <time>2019-05-01T10:48:54Z</time>
      </trkpt>
      <trkpt lat="44.87057" lon="5.2021">
        <ele>1203.71</ele>
        <time>2019-05-01T10:49:11Z</time>
      </trkpt>
      <trkpt lat="44.87053" lon="5.20203">
        <ele>1203.71</ele>
        <time>2019-05-01T10:49:34Z</time>
      </trkpt>
      <trkpt lat="44.87055" lon="5.20199">
        <ele>1203.71</ele>
        <time>2019-05-01T10:49:59Z</time>
      </trkpt>
      <trkpt lat="44.87067" lon="5.20207">
        <ele>1206.11</ele>
        <time>2019-05-01T10:50:11Z</time>
      </trkpt>
      <trkpt lat="44.87075" lon="5.20209">
        <ele>1207.55</ele>
        <time>2019-05-01T10:50:23Z</time>
      </trkpt>
      <trkpt lat="44.8708" lon="5.20209">
        <ele>1209.48</ele>
        <time>2019-05-01T10:50:32Z</time>
      </trkpt>
      <trkpt lat="44.87085" lon="5.20208">
        <ele>1209.96</ele>
        <time>2019-05-01T10:50:47Z</time>
      </trkpt>
      <trkpt lat="44.87086" lon="5.20189">
        <ele>1212.84</ele>
        <time>2019-05-01T10:51:01Z</time>
      </trkpt>
      <trkpt lat="44.87088" lon="5.20175">
        <ele>1214.28</ele>
        <time>2019-05-01T10:51:14Z</time>
      </trkpt>
      <trkpt lat="44.87087" lon="5.20175">
        <ele>1216.21</ele>
        <time>2019-05-01T10:51:29Z</time>
      </trkpt>
      <trkpt lat="44.8709" lon="5.20173">
        <ele>1212.84</ele>
        <time>2019-05-01T10:51:42Z</time>
      </trkpt>
      <trkpt lat="44.87091" lon="5.20172">
        <ele>1218.13</ele>
        <time>2019-05-01T10:51:43Z</time>
      </trkpt>
      <trkpt lat="44.87092" lon="5.20171">
        <ele>1214.76</ele>
        <time>2019-05-01T10:51:48Z</time>
      </trkpt>
      <trkpt lat="44.87091" lon="5.20171">
        <ele>1218.13</ele>
        <time>2019-05-01T10:51:53Z</time>
      </trkpt>
      <trkpt lat="44.87091" lon="5.20171">
        <ele>1202.27</ele>
        <time>2019-05-01T10:51:54Z</time>
      </trkpt>
      <trkpt lat="44.87091" lon="5.20171">
        <ele>1226.3</ele>
        <time>2019-05-01T10:51:55Z</time>
      </trkpt>
      <trkpt lat="44.87091" lon="5.20171">
        <ele>1226.3</ele>
        <time>2019-05-01T10:51:56Z</time>
      </trkpt>
      <trkpt lat="44.87091" lon="5.20171">
        <ele>1215.72</ele>
        <time>2019-05-01T10:51:57Z</time>
      </trkpt>
      <trkpt lat="44.87092" lon="5.20171">
        <ele>1216.69</ele>
        <time>2019-05-01T10:52:03Z</time>
      </trkpt>
      <trkpt lat="44.87093" lon="5.2017">
        <ele>1215.72</ele>
        <time>2019-05-01T10:52:05Z</time>
      </trkpt>
      <trkpt lat="44.87093" lon="5.20171">
        <ele>1216.69</ele>
        <time>2019-05-01T10:52:08Z</time>
      </trkpt>
      <trkpt lat="44.87089" lon="5.20169">
        <ele>1218.61</ele>
        <time>2019-05-01T10:52:13Z</time>
      </trkpt>
      <trkpt lat="44.8709" lon="5.2017">
        <ele>1214.76</ele>
        <time>2019-05-01T10:52:15Z</time>
      </trkpt>
      <trkpt lat="44.87095" lon="5.20174">
        <ele>1217.65</ele>
        <time>2019-05-01T10:52:22Z</time>
      </trkpt>
      <trkpt lat="44.87097" lon="5.20175">
        <ele>1213.32</ele>
        <time>2019-05-01T10:52:25Z</time>
      </trkpt>
      <trkpt lat="44.87097" lon="5.20176">
        <ele>1223.9</ele>
        <time>2019-05-01T10:52:26Z</time>
      </trkpt>
      <trkpt lat="44.87098" lon="5.20176">
        <ele>1216.69</ele>
        <time>2019-05-01T10:52:27Z</time>
      </trkpt>
      <trkpt lat="44.87103" lon="5.20176">
        <ele>1220.05</ele>
        <time>2019-05-01T10:52:38Z</time>
      </trkpt>
      <trkpt lat="44.87109" lon="5.20171">
        <ele>1221.49</ele>
        <time>2019-05-01T10:52:54Z</time>
      </trkpt>
      <trkpt lat="44.87114" lon="5.20173">
        <ele>1222.45</ele>
        <time>2019-05-01T10:53:12Z</time>
      </trkpt>
      <trkpt lat="44.87117" lon="5.20173">
        <ele>1222.93</ele>
        <time>2019-05-01T10:53:29Z</time>
      </trkpt>
      <trkpt lat="44.87119" lon="5.20176">
        <ele>1223.9</ele>
        <time>2019-05-01T10:53:48Z</time>
      </trkpt>
      <trkpt lat="44.8712" lon="5.20169">
        <ele>1224.38</ele>
        <time>2019-05-01T10:54:06Z</time>
      </trkpt>
      <trkpt lat="44.87123" lon="5.20172">
        <ele>1226.78</ele>
        <time>2019-05-01T10:54:26Z</time>
      </trkpt>
      <trkpt lat="44.87117" lon="5.20172">
        <ele>1224.86</ele>
        <time>2019-05-01T10:54:48Z</time>
      </trkpt>
      <trkpt lat="44.87115" lon="5.20177">
        <ele>1225.34</ele>
        <time>2019-05-01T10:55:11Z</time>
      </trkpt>
      <trkpt lat="44.87115" lon="5.20178">
        <ele>1225.34</ele>
        <time>2019-05-01T10:55:50Z</time>
      </trkpt>
      <trkpt lat="44.87117" lon="5.20173">
        <ele>1225.34</ele>
        <time>2019-05-01T10:56:17Z</time>
      </trkpt>
      <trkpt lat="44.87117" lon="5.20174">
        <ele>1225.34</ele>
        <time>2019-05-01T10:56:52Z</time>
      </trkpt>
      <trkpt lat="44.87118" lon="5.20171">
        <ele>1224.86</ele>
        <time>2019-05-01T10:57:22Z</time>
      </trkpt>
      <trkpt lat="44.87124" lon="5.20179">
        <ele>1224.86</ele>
        <time>2019-05-01T10:58:00Z</time>
      </trkpt>
      <trkpt lat="44.87124" lon="5.20176">
        <ele>1224.86</ele>
        <time>2019-05-01T10:58:50Z</time>
      </trkpt>
      <trkpt lat="44.87127" lon="5.20178">
        <ele>1224.86</ele>
        <time>2019-05-01T10:59:36Z</time>
      </trkpt>
      <trkpt lat="44.87121" lon="5.20175">
        <ele>1225.34</ele>
        <time>2019-05-01T11:00:29Z</time>
      </trkpt>
      <trkpt lat="44.87119" lon="5.20175">
        <ele>1225.34</ele>
        <time>2019-05-01T11:01:03Z</time>
      </trkpt>
      <trkpt lat="44.87122" lon="5.20177">
        <ele>1225.82</ele>
        <time>2019-05-01T11:01:36Z</time>
      </trkpt>
      <trkpt lat="44.87124" lon="5.20174">
        <ele>1226.3</ele>
        <time>2019-05-01T11:02:10Z</time>
      </trkpt>
      <trkpt lat="44.87116" lon="5.20175">
        <ele>1226.78</ele>
        <time>2019-05-01T11:02:55Z</time>
      </trkpt>
      <trkpt lat="44.87118" lon="5.20177">
        <ele>1226.78</ele>
        <time>2019-05-01T11:03:37Z</time>
      </trkpt>
      <trkpt lat="44.87123" lon="5.20176">
        <ele>1226.3</ele>
        <time>2019-05-01T11:04:12Z</time>
      </trkpt>
      <trkpt lat="44.87122" lon="5.20174">
        <ele>1226.78</ele>
        <time>2019-05-01T11:04:48Z</time>
      </trkpt>
      <trkpt lat="44.87122" lon="5.20179">
        <ele>1226.3</ele>
        <time>2019-05-01T11:05:21Z</time>
      </trkpt>
      <trkpt lat="44.87122" lon="5.20179">
        <ele>1226.78</ele>
        <time>2019-05-01T11:05:55Z</time>
      </trkpt>
      <trkpt lat="44.87121" lon="5.20177">
        <ele>1226.78</ele>
        <time>2019-05-01T11:06:43Z</time>
      </trkpt>
      <trkpt lat="44.87123" lon="5.20181">
        <ele>1226.3</ele>
        <time>2019-05-01T11:07:19Z</time>
      </trkpt>
      <trkpt lat="44.87122" lon="5.20182">
        <ele>1226.78</ele>
        <time>2019-05-01T11:08:05Z</time>
      </trkpt>
      <trkpt lat="44.87119" lon="5.20179">
        <ele>1226.78</ele>
        <time>2019-05-01T11:08:46Z</time>
      </trkpt>
      <trkpt lat="44.8712" lon="5.20172">
        <ele>1227.26</ele>
        <time>2019-05-01T11:09:31Z</time>
      </trkpt>
      <trkpt lat="44.87121" lon="5.20167">
        <ele>1226.78</ele>
        <time>2019-05-01T11:10:16Z</time>
      </trkpt>
      <trkpt lat="44.87123" lon="5.20172">
        <ele>1227.26</ele>
        <time>2019-05-01T11:11:02Z</time>
      </trkpt>
      <trkpt lat="44.87122" lon="5.20173">
        <ele>1227.74</ele>
        <time>2019-05-01T11:11:47Z</time>
      </trkpt>
      <trkpt lat="44.87124" lon="5.20172">
        <ele>1227.26</ele>
        <time>2019-05-01T11:12:21Z</time>
      </trkpt>
      <trkpt lat="44.87121" lon="5.2017">
        <ele>1227.74</ele>
        <time>2019-05-01T11:12:56Z</time>
      </trkpt>
      <trkpt lat="44.87126" lon="5.20174">
        <ele>1227.74</ele>
        <time>2019-05-01T11:13:38Z</time>
      </trkpt>
      <trkpt lat="44.87124" lon="5.20175">
        <ele>1228.22</ele>
        <time>2019-05-01T11:14:02Z</time>
      </trkpt>
      <trkpt lat="44.87115" lon="5.20167">
        <ele>1226.78</ele>
        <time>2019-05-01T11:14:33Z</time>
      </trkpt>
      <trkpt lat="44.87117" lon="5.2017">
        <ele>1225.82</ele>
        <time>2019-05-01T11:15:05Z</time>
      </trkpt>
      <trkpt lat="44.87117" lon="5.2017">
        <ele>1229.18</ele>
        <time>2019-05-01T11:15:08Z</time>
      </trkpt>
      <trkpt lat="44.8712" lon="5.20173">
        <ele>1227.26</ele>
        <time>2019-05-01T11:15:49Z</time>
      </trkpt>
      <trkpt lat="44.87117" lon="5.20173">
        <ele>1228.22</ele>
        <time>2019-05-01T11:16:23Z</time>
      </trkpt>
      <trkpt lat="44.87118" lon="5.20168">
        <ele>1227.26</ele>
        <time>2019-05-01T11:16:58Z</time>
      </trkpt>
      <trkpt lat="44.87117" lon="5.20172">
        <ele>1228.7</ele>
        <time>2019-05-01T11:17:19Z</time>
      </trkpt>
      <trkpt lat="44.87115" lon="5.20168">
        <ele>1228.22</ele>
        <time>2019-05-01T11:17:42Z</time>
      </trkpt>
      <trkpt lat="44.8712" lon="5.20166">
        <ele>1228.22</ele>
        <time>2019-05-01T11:18:05Z</time>
      </trkpt>
      <trkpt lat="44.8712" lon="5.2017">
        <ele>1227.26</ele>
        <time>2019-05-01T11:18:28Z</time>
      </trkpt>
      <trkpt lat="44.87115" lon="5.20168">
        <ele>1227.74</ele>
        <time>2019-05-01T11:18:57Z</time>
      </trkpt>
      <trkpt lat="44.87113" lon="5.20168">
        <ele>1226.78</ele>
        <time>2019-05-01T11:19:17Z</time>
      </trkpt>
      <trkpt lat="44.87112" lon="5.20168">
        <ele>1224.86</ele>
        <time>2019-05-01T11:19:33Z</time>
      </trkpt>
      <trkpt lat="44.87107" lon="5.20168">
        <ele>1222.93</ele>
        <time>2019-05-01T11:19:48Z</time>
      </trkpt>
      <trkpt lat="44.87101" lon="5.20173">
        <ele>1221.01</ele>
        <time>2019-05-01T11:20:03Z</time>
      </trkpt>
      <trkpt lat="44.87095" lon="5.20171">
        <ele>1218.61</ele>
        <time>2019-05-01T11:20:18Z</time>
      </trkpt>
      <trkpt lat="44.87089" lon="5.20169">
        <ele>1218.13</ele>
        <time>2019-05-01T11:20:31Z</time>
      </trkpt>
      <trkpt lat="44.87077" lon="5.20166">
        <ele>1216.69</ele>
        <time>2019-05-01T11:20:45Z</time>
      </trkpt>
      <trkpt lat="44.87061" lon="5.20162">
        <ele>1215.24</ele>
        <time>2019-05-01T11:21:02Z</time>
      </trkpt>
      <trkpt lat="44.87048" lon="5.20157">
        <ele>1215.72</ele>
        <time>2019-05-01T11:21:16Z</time>
      </trkpt>
      <trkpt lat="44.87038" lon="5.20161">
        <ele>1215.72</ele>
        <time>2019-05-01T11:21:32Z</time>
      </trkpt>
      <trkpt lat="44.87029" lon="5.20158">
        <ele>1214.76</ele>
        <time>2019-05-01T11:21:46Z</time>
      </trkpt>
      <trkpt lat="44.87015" lon="5.20162">
        <ele>1214.28</ele>
        <time>2019-05-01T11:22:02Z</time>
      </trkpt>
      <trkpt lat="44.87006" lon="5.20162">
        <ele>1215.72</ele>
        <time>2019-05-01T11:22:15Z</time>
      </trkpt>
      <trkpt lat="44.86995" lon="5.20168">
        <ele>1216.21</ele>
        <time>2019-05-01T11:22:28Z</time>
      </trkpt>
      <trkpt lat="44.86984" lon="5.20174">
        <ele>1216.69</ele>
        <time>2019-05-01T11:22:43Z</time>
      </trkpt>
      <trkpt lat="44.86979" lon="5.20175">
        <ele>1218.13</ele>
        <time>2019-05-01T11:22:47Z</time>
      </trkpt>
      <trkpt lat="44.86968" lon="5.20182">
        <ele>1219.57</ele>
        <time>2019-05-01T11:23:03Z</time>
      </trkpt>
      <trkpt lat="44.86961" lon="5.20193">
        <ele>1221.49</ele>
        <time>2019-05-01T11:23:17Z</time>
      </trkpt>
      <trkpt lat="44.86956" lon="5.20185">
        <ele>1221.01</ele>
        <time>2019-05-01T11:23:32Z</time>
      </trkpt>
      <trkpt lat="44.86943" lon="5.20185">
        <ele>1221.01</ele>
        <time>2019-05-01T11:23:45Z</time>
      </trkpt>
      <trkpt lat="44.86929" lon="5.20188">
        <ele>1222.45</ele>
        <time>2019-05-01T11:24:00Z</time>
      </trkpt>
      <trkpt lat="44.86919" lon="5.20192">
        <ele>1223.42</ele>
        <time>2019-05-01T11:24:13Z</time>
      </trkpt>
      <trkpt lat="44.86915" lon="5.20198">
        <ele>1224.38</ele>
        <time>2019-05-01T11:24:27Z</time>
      </trkpt>
      <trkpt lat="44.86906" lon="5.202">
        <ele>1224.86</ele>
        <time>2019-05-01T11:24:43Z</time>
      </trkpt>
      <trkpt lat="44.86905" lon="5.20205">
        <ele>1225.82</ele>
        <time>2019-05-01T11:25:08Z</time>
      </trkpt>
      <trkpt lat="44.86907" lon="5.20208">
        <ele>1226.3</ele>
        <time>2019-05-01T11:25:20Z</time>
      </trkpt>
      <trkpt lat="44.86906" lon="5.20217">
        <ele>1228.22</ele>
        <time>2019-05-01T11:25:31Z</time>
      </trkpt>
      <trkpt lat="44.86902" lon="5.20223">
        <ele>1230.14</ele>
        <time>2019-05-01T11:25:44Z</time>
      </trkpt>
      <trkpt lat="44.869" lon="5.20223">
        <ele>1230.62</ele>
        <time>2019-05-01T11:25:55Z</time>
      </trkpt>
      <trkpt lat="44.86901" lon="5.20225">
        <ele>1230.62</ele>
        <time>2019-05-01T11:26:16Z</time>
      </trkpt>
      <trkpt lat="44.86897" lon="5.20225">
        <ele>1230.62</ele>
        <time>2019-05-01T11:26:34Z</time>
      </trkpt>
      <trkpt lat="44.86894" lon="5.20226">
        <ele>1231.59</ele>
        <time>2019-05-01T11:26:37Z</time>
      </trkpt>
      <trkpt lat="44.86887" lon="5.20228">
        <ele>1232.07</ele>
        <time>2019-05-01T11:26:53Z</time>
      </trkpt>
      <trkpt lat="44.86891" lon="5.20233">
        <ele>1232.55</ele>
        <time>2019-05-01T11:27:20Z</time>
      </trkpt>
      <trkpt lat="44.8689" lon="5.20233">
        <ele>1232.55</ele>
        <time>2019-05-01T11:27:35Z</time>
      </trkpt>
      <trkpt lat="44.86889" lon="5.20231">
        <ele>1232.55</ele>
        <time>2019-05-01T11:27:54Z</time>
      </trkpt>
      <trkpt lat="44.86879" lon="5.20229">
        <ele>1231.59</ele>
        <time>2019-05-01T11:28:08Z</time>
      </trkpt>
      <trkpt lat="44.86871" lon="5.20228">
        <ele>1229.18</ele>
        <time>2019-05-01T11:28:26Z</time>
      </trkpt>
      <trkpt lat="44.86866" lon="5.20233">
        <ele>1230.14</ele>
        <time>2019-05-01T11:28:37Z</time>
      </trkpt>
      <trkpt lat="44.8686" lon="5.20234">
        <ele>1231.11</ele>
        <time>2019-05-01T11:28:45Z</time>
      </trkpt>
      <trkpt lat="44.86852" lon="5.20239">
        <ele>1232.07</ele>
        <time>2019-05-01T11:28:54Z</time>
      </trkpt>
      <trkpt lat="44.86842" lon="5.20249">
        <ele>1234.47</ele>
        <time>2019-05-01T11:29:07Z</time>
      </trkpt>
      <trkpt lat="44.86834" lon="5.20246">
        <ele>1233.03</ele>
        <time>2019-05-01T11:29:23Z</time>
      </trkpt>
      <trkpt lat="44.86832" lon="5.20243">
        <ele>1231.11</ele>
        <time>2019-05-01T11:29:36Z</time>
      </trkpt>
      <trkpt lat="44.8683" lon="5.20244">
        <ele>1230.14</ele>
        <time>2019-05-01T11:29:47Z</time>
      </trkpt>
      <trkpt lat="44.8683" lon="5.20243">
        <ele>1229.66</ele>
        <time>2019-05-01T11:29:48Z</time>
      </trkpt>
      <trkpt lat="44.86831" lon="5.20241">
        <ele>1229.66</ele>
        <time>2019-05-01T11:30:01Z</time>
      </trkpt>
      <trkpt lat="44.86832" lon="5.20242">
        <ele>1230.14</ele>
        <time>2019-05-01T11:30:17Z</time>
      </trkpt>
      <trkpt lat="44.86832" lon="5.20243">
        <ele>1230.14</ele>
        <time>2019-05-01T11:30:48Z</time>
      </trkpt>
      <trkpt lat="44.86834" lon="5.20241">
        <ele>1230.14</ele>
        <time>2019-05-01T11:31:09Z</time>
      </trkpt>
      <trkpt lat="44.86833" lon="5.20241">
        <ele>1230.14</ele>
        <time>2019-05-01T11:31:11Z</time>
      </trkpt>
      <trkpt lat="44.86832" lon="5.20238">
        <ele>1228.7</ele>
        <time>2019-05-01T11:31:25Z</time>
      </trkpt>
      <trkpt lat="44.86833" lon="5.20239">
        <ele>1229.66</ele>
        <time>2019-05-01T11:31:47Z</time>
      </trkpt>
      <trkpt lat="44.8683" lon="5.20237">
        <ele>1229.18</ele>
        <time>2019-05-01T11:32:01Z</time>
      </trkpt>
      <trkpt lat="44.86827" lon="5.20241">
        <ele>1229.18</ele>
        <time>2019-05-01T11:32:15Z</time>
      </trkpt>
      <trkpt lat="44.86822" lon="5.20249">
        <ele>1232.07</ele>
        <time>2019-05-01T11:32:30Z</time>
      </trkpt>
      <trkpt lat="44.86822" lon="5.20258">
        <ele>1233.99</ele>
        <time>2019-05-01T11:32:44Z</time>
      </trkpt>
      <trkpt lat="44.86815" lon="5.20261">
        <ele>1234.47</ele>
        <time>2019-05-01T11:32:58Z</time>
      </trkpt>
      <trkpt lat="44.86809" lon="5.2026">
        <ele>1234.47</ele>
        <time>2019-05-01T11:33:11Z</time>
      </trkpt>
      <trkpt lat="44.86798" lon="5.20261">
        <ele>1233.99</ele>
        <time>2019-05-01T11:33:26Z</time>
      </trkpt>
      <trkpt lat="44.86788" lon="5.20262">
        <ele>1233.51</ele>
        <time>2019-05-01T11:33:43Z</time>
      </trkpt>
      <trkpt lat="44.86782" lon="5.20259">
        <ele>1231.59</ele>
        <time>2019-05-01T11:33:56Z</time>
      </trkpt>
      <trkpt lat="44.86773" lon="5.20257">
        <ele>1231.11</ele>
        <time>2019-05-01T11:34:11Z</time>
      </trkpt>
      <trkpt lat="44.86765" lon="5.20256">
        <ele>1232.07</ele>
        <time>2019-05-01T11:34:29Z</time>
      </trkpt>
      <trkpt lat="44.86758" lon="5.20253">
        <ele>1231.59</ele>
        <time>2019-05-01T11:34:44Z</time>
      </trkpt>
      <trkpt lat="44.8675" lon="5.20258">
        <ele>1234.95</ele>
        <time>2019-05-01T11:35:00Z</time>
      </trkpt>
      <trkpt lat="44.86743" lon="5.20263">
        <ele>1235.91</ele>
        <time>2019-05-01T11:35:14Z</time>
      </trkpt>
      <trkpt lat="44.86736" lon="5.20267">
        <ele>1238.32</ele>
        <time>2019-05-01T11:35:29Z</time>
      </trkpt>
      <trkpt lat="44.86731" lon="5.20276">
        <ele>1241.68</ele>
        <time>2019-05-01T11:35:41Z</time>
      </trkpt>
      <trkpt lat="44.86729" lon="5.20285">
        <ele>1244.56</ele>
        <time>2019-05-01T11:35:53Z</time>
      </trkpt>
      <trkpt lat="44.86724" lon="5.20291">
        <ele>1247.45</ele>
        <time>2019-05-01T11:36:06Z</time>
      </trkpt>
      <trkpt lat="44.8672" lon="5.20299">
        <ele>1249.85</ele>
        <time>2019-05-01T11:36:18Z</time>
      </trkpt>
      <trkpt lat="44.86717" lon="5.20306">
        <ele>1252.25</ele>
        <time>2019-05-01T11:36:29Z</time>
      </trkpt>
      <trkpt lat="44.86711" lon="5.20311">
        <ele>1254.18</ele>
        <time>2019-05-01T11:36:44Z</time>
      </trkpt>
      <trkpt lat="44.86705" lon="5.20309">
        <ele>1254.66</ele>
        <time>2019-05-01T11:36:57Z</time>
      </trkpt>
      <trkpt lat="44.86693" lon="5.20308">
        <ele>1256.1</ele>
        <time>2019-05-01T11:37:12Z</time>
      </trkpt>
      <trkpt lat="44.86687" lon="5.20308">
        <ele>1256.58</ele>
        <time>2019-05-01T11:37:24Z</time>
      </trkpt>
      <trkpt lat="44.86685" lon="5.20313">
        <ele>1256.58</ele>
        <time>2019-05-01T11:37:40Z</time>
      </trkpt>
      <trkpt lat="44.8668" lon="5.20308">
        <ele>1255.14</ele>
        <time>2019-05-01T11:38:01Z</time>
      </trkpt>
      <trkpt lat="44.86679" lon="5.20305">
        <ele>1254.66</ele>
        <time>2019-05-01T11:38:15Z</time>
      </trkpt>
      <trkpt lat="44.86676" lon="5.20306">
        <ele>1255.14</ele>
        <time>2019-05-01T11:38:39Z</time>
      </trkpt>
      <trkpt lat="44.8667" lon="5.20307">
        <ele>1257.06</ele>
        <time>2019-05-01T11:38:52Z</time>
      </trkpt>
      <trkpt lat="44.86668" lon="5.20313">
        <ele>1258.5</ele>
        <time>2019-05-01T11:39:01Z</time>
      </trkpt>
      <trkpt lat="44.86665" lon="5.2032">
        <ele>1261.39</ele>
        <time>2019-05-01T11:39:11Z</time>
      </trkpt>
      <trkpt lat="44.86664" lon="5.20323">
        <ele>1262.35</ele>
        <time>2019-05-01T11:39:31Z</time>
      </trkpt>
      <trkpt lat="44.86663" lon="5.2032">
        <ele>1262.83</ele>
        <time>2019-05-01T11:39:54Z</time>
      </trkpt>
      <trkpt lat="44.86668" lon="5.20322">
        <ele>1261.87</ele>
        <time>2019-05-01T11:40:19Z</time>
      </trkpt>
      <trkpt lat="44.8667" lon="5.20322">
        <ele>1261.39</ele>
        <time>2019-05-01T11:40:35Z</time>
      </trkpt>
      <trkpt lat="44.86666" lon="5.20321">
        <ele>1261.39</ele>
        <time>2019-05-01T11:40:47Z</time>
      </trkpt>
      <trkpt lat="44.86668" lon="5.20321">
        <ele>1261.39</ele>
        <time>2019-05-01T11:41:04Z</time>
      </trkpt>
      <trkpt lat="44.8667" lon="5.20321">
        <ele>1261.87</ele>
        <time>2019-05-01T11:41:20Z</time>
      </trkpt>
      <trkpt lat="44.86669" lon="5.20319">
        <ele>1261.39</ele>
        <time>2019-05-01T11:41:42Z</time>
      </trkpt>
      <trkpt lat="44.8667" lon="5.20317">
        <ele>1260.91</ele>
        <time>2019-05-01T11:41:59Z</time>
      </trkpt>
      <trkpt lat="44.8667" lon="5.20315">
        <ele>1260.43</ele>
        <time>2019-05-01T11:42:24Z</time>
      </trkpt>
      <trkpt lat="44.8667" lon="5.20306">
        <ele>1257.06</ele>
        <time>2019-05-01T11:42:34Z</time>
      </trkpt>
      <trkpt lat="44.8667" lon="5.20305">
        <ele>1257.06</ele>
        <time>2019-05-01T11:42:35Z</time>
      </trkpt>
      <trkpt lat="44.86664" lon="5.20295">
        <ele>1253.7</ele>
        <time>2019-05-01T11:42:47Z</time>
      </trkpt>
      <trkpt lat="44.8666" lon="5.20289">
        <ele>1251.29</ele>
        <time>2019-05-01T11:43:01Z</time>
      </trkpt>
      <trkpt lat="44.86661" lon="5.20288">
        <ele>1250.81</ele>
        <time>2019-05-01T11:43:03Z</time>
      </trkpt>
      <trkpt lat="44.86657" lon="5.2028">
        <ele>1248.41</ele>
        <time>2019-05-01T11:43:16Z</time>
      </trkpt>
      <trkpt lat="44.86658" lon="5.20271">
        <ele>1246.01</ele>
        <time>2019-05-01T11:43:29Z</time>
      </trkpt>
      <trkpt lat="44.86656" lon="5.20268">
        <ele>1245.04</ele>
        <time>2019-05-01T11:43:33Z</time>
      </trkpt>
      <trkpt lat="44.86645" lon="5.20266">
        <ele>1242.64</ele>
        <time>2019-05-01T11:43:46Z</time>
      </trkpt>
      <trkpt lat="44.86642" lon="5.20256">
        <ele>1239.28</ele>
        <time>2019-05-01T11:43:59Z</time>
      </trkpt>
      <trkpt lat="44.86633" lon="5.20253">
        <ele>1238.8</ele>
        <time>2019-05-01T11:44:13Z</time>
      </trkpt>
      <trkpt lat="44.86626" lon="5.2025">
        <ele>1237.83</ele>
        <time>2019-05-01T11:44:27Z</time>
      </trkpt>
      <trkpt lat="44.86619" lon="5.20249">
        <ele>1237.35</ele>
        <time>2019-05-01T11:44:44Z</time>
      </trkpt>
      <trkpt lat="44.86613" lon="5.20251">
        <ele>1236.39</ele>
        <time>2019-05-01T11:45:03Z</time>
      </trkpt>
      <trkpt lat="44.86604" lon="5.20257">
        <ele>1238.8</ele>
        <time>2019-05-01T11:45:17Z</time>
      </trkpt>
      <trkpt lat="44.86598" lon="5.20259">
        <ele>1238.8</ele>
        <time>2019-05-01T11:45:30Z</time>
      </trkpt>
      <trkpt lat="44.86597" lon="5.20258">
        <ele>1238.8</ele>
        <time>2019-05-01T11:45:32Z</time>
      </trkpt>
      <trkpt lat="44.86595" lon="5.20258">
        <ele>1237.83</ele>
        <time>2019-05-01T11:45:38Z</time>
      </trkpt>
      <trkpt lat="44.86585" lon="5.20254">
        <ele>1234.47</ele>
        <time>2019-05-01T11:45:53Z</time>
      </trkpt>
      <trkpt lat="44.86578" lon="5.20248">
        <ele>1231.11</ele>
        <time>2019-05-01T11:46:07Z</time>
      </trkpt>
      <trkpt lat="44.8657" lon="5.20243">
        <ele>1228.22</ele>
        <time>2019-05-01T11:46:21Z</time>
      </trkpt>
      <trkpt lat="44.86565" lon="5.20238">
        <ele>1226.78</ele>
        <time>2019-05-01T11:46:35Z</time>
      </trkpt>
      <trkpt lat="44.86566" lon="5.20237">
        <ele>1226.3</ele>
        <time>2019-05-01T11:46:49Z</time>
      </trkpt>
      <trkpt lat="44.86563" lon="5.2023">
        <ele>1223.42</ele>
        <time>2019-05-01T11:47:01Z</time>
      </trkpt>
      <trkpt lat="44.86562" lon="5.20225">
        <ele>1220.53</ele>
        <time>2019-05-01T11:47:15Z</time>
      </trkpt>
      <trkpt lat="44.86564" lon="5.20218">
        <ele>1218.61</ele>
        <time>2019-05-01T11:47:31Z</time>
      </trkpt>
      <trkpt lat="44.86564" lon="5.20217">
        <ele>1218.61</ele>
        <time>2019-05-01T11:47:32Z</time>
      </trkpt>
      <trkpt lat="44.8657" lon="5.20214">
        <ele>1219.57</ele>
        <time>2019-05-01T11:47:47Z</time>
      </trkpt>
      <trkpt lat="44.86573" lon="5.20211">
        <ele>1219.57</ele>
        <time>2019-05-01T11:48:06Z</time>
      </trkpt>
      <trkpt lat="44.86572" lon="5.20208">
        <ele>1220.53</ele>
        <time>2019-05-01T11:48:26Z</time>
      </trkpt>
      <trkpt lat="44.86576" lon="5.20206">
        <ele>1218.13</ele>
        <time>2019-05-01T11:48:47Z</time>
      </trkpt>
      <trkpt lat="44.86586" lon="5.202">
        <ele>1217.17</ele>
        <time>2019-05-01T11:49:04Z</time>
      </trkpt>
      <trkpt lat="44.86584" lon="5.2019">
        <ele>1213.8</ele>
        <time>2019-05-01T11:49:15Z</time>
      </trkpt>
      <trkpt lat="44.86588" lon="5.2018">
        <ele>1210.44</ele>
        <time>2019-05-01T11:49:28Z</time>
      </trkpt>
      <trkpt lat="44.86583" lon="5.2018">
        <ele>1209</ele>
        <time>2019-05-01T11:49:36Z</time>
      </trkpt>
      <trkpt lat="44.86582" lon="5.2017">
        <ele>1207.07</ele>
        <time>2019-05-01T11:49:54Z</time>
      </trkpt>
      <trkpt lat="44.86582" lon="5.20167">
        <ele>1205.63</ele>
        <time>2019-05-01T11:49:56Z</time>
      </trkpt>
      <trkpt lat="44.86576" lon="5.20164">
        <ele>1204.19</ele>
        <time>2019-05-01T11:50:11Z</time>
      </trkpt>
      <trkpt lat="44.86573" lon="5.20166">
        <ele>1204.67</ele>
        <time>2019-05-01T11:50:33Z</time>
      </trkpt>
      <trkpt lat="44.86574" lon="5.20165">
        <ele>1205.15</ele>
        <time>2019-05-01T11:50:55Z</time>
      </trkpt>
      <trkpt lat="44.86575" lon="5.20165">
        <ele>1199.38</ele>
        <time>2019-05-01T11:50:57Z</time>
      </trkpt>
      <trkpt lat="44.86575" lon="5.20165">
        <ele>1209</ele>
        <time>2019-05-01T11:50:58Z</time>
      </trkpt>
      <trkpt lat="44.86575" lon="5.20166">
        <ele>1203.71</ele>
        <time>2019-05-01T11:50:59Z</time>
      </trkpt>
      <trkpt lat="44.86569" lon="5.20164">
        <ele>1202.27</ele>
        <time>2019-05-01T11:51:17Z</time>
      </trkpt>
      <trkpt lat="44.86568" lon="5.20164">
        <ele>1202.27</ele>
        <time>2019-05-01T11:51:18Z</time>
      </trkpt>
      <trkpt lat="44.86559" lon="5.20161">
        <ele>1200.34</ele>
        <time>2019-05-01T11:51:31Z</time>
      </trkpt>
      <trkpt lat="44.86548" lon="5.20165">
        <ele>1198.42</ele>
        <time>2019-05-01T11:51:44Z</time>
      </trkpt>
      <trkpt lat="44.86541" lon="5.20168">
        <ele>1198.9</ele>
        <time>2019-05-01T11:51:53Z</time>
      </trkpt>
      <trkpt lat="44.86538" lon="5.20169">
        <ele>1196.98</ele>
        <time>2019-05-01T11:51:56Z</time>
      </trkpt>
      <trkpt lat="44.86535" lon="5.20171">
        <ele>1196.98</ele>
        <time>2019-05-01T11:52:00Z</time>
      </trkpt>
      <trkpt lat="44.8652" lon="5.20177">
        <ele>1196.98</ele>
        <time>2019-05-01T11:52:15Z</time>
      </trkpt>
      <trkpt lat="44.8651" lon="5.20182">
        <ele>1194.58</ele>
        <time>2019-05-01T11:52:30Z</time>
      </trkpt>
      <trkpt lat="44.86506" lon="5.20181">
        <ele>1193.61</ele>
        <time>2019-05-01T11:52:44Z</time>
      </trkpt>
      <trkpt lat="44.86509" lon="5.20175">
        <ele>1191.21</ele>
        <time>2019-05-01T11:53:00Z</time>
      </trkpt>
      <trkpt lat="44.86495" lon="5.20171">
        <ele>1188.33</ele>
        <time>2019-05-01T11:53:15Z</time>
      </trkpt>
      <trkpt lat="44.86484" lon="5.20178">
        <ele>1186.88</ele>
        <time>2019-05-01T11:53:29Z</time>
      </trkpt>
      <trkpt lat="44.86487" lon="5.2018">
        <ele>1186.88</ele>
        <time>2019-05-01T11:53:48Z</time>
      </trkpt>
      <trkpt lat="44.86489" lon="5.20177">
        <ele>1186.88</ele>
        <time>2019-05-01T11:54:07Z</time>
      </trkpt>
      <trkpt lat="44.86485" lon="5.20174">
        <ele>1183.52</ele>
        <time>2019-05-01T11:54:17Z</time>
      </trkpt>
      <trkpt lat="44.8648" lon="5.20167">
        <ele>1180.16</ele>
        <time>2019-05-01T11:54:29Z</time>
      </trkpt>
      <trkpt lat="44.86468" lon="5.20164">
        <ele>1176.79</ele>
        <time>2019-05-01T11:54:43Z</time>
      </trkpt>
      <trkpt lat="44.86468" lon="5.20163">
        <ele>1176.79</ele>
        <time>2019-05-01T11:54:44Z</time>
      </trkpt>
      <trkpt lat="44.86465" lon="5.20159">
        <ele>1175.35</ele>
        <time>2019-05-01T11:54:49Z</time>
      </trkpt>
      <trkpt lat="44.86466" lon="5.2016">
        <ele>1174.87</ele>
        <time>2019-05-01T11:55:04Z</time>
      </trkpt>
      <trkpt lat="44.86457" lon="5.20157">
        <ele>1174.87</ele>
        <time>2019-05-01T11:55:18Z</time>
      </trkpt>
      <trkpt lat="44.86454" lon="5.2015">
        <ele>1172.47</ele>
        <time>2019-05-01T11:55:32Z</time>
      </trkpt>
      <trkpt lat="44.86449" lon="5.2014">
        <ele>1169.58</ele>
        <time>2019-05-01T11:55:45Z</time>
      </trkpt>
      <trkpt lat="44.86443" lon="5.20133">
        <ele>1166.7</ele>
        <time>2019-05-01T11:55:58Z</time>
      </trkpt>
      <trkpt lat="44.86435" lon="5.20125">
        <ele>1164.77</ele>
        <time>2019-05-01T11:56:11Z</time>
      </trkpt>
      <trkpt lat="44.86426" lon="5.20117">
        <ele>1163.33</ele>
        <time>2019-05-01T11:56:25Z</time>
      </trkpt>
      <trkpt lat="44.86427" lon="5.20111">
        <ele>1160.45</ele>
        <time>2019-05-01T11:56:32Z</time>
      </trkpt>
      <trkpt lat="44.86433" lon="5.20102">
        <ele>1156.6</ele>
        <time>2019-05-01T11:56:42Z</time>
      </trkpt>
      <trkpt lat="44.86433" lon="5.20101">
        <ele>1157.08</ele>
        <time>2019-05-01T11:56:43Z</time>
      </trkpt>
      <trkpt lat="44.86433" lon="5.20098">
        <ele>1156.12</ele>
        <time>2019-05-01T11:56:47Z</time>
      </trkpt>
      <trkpt lat="44.86428" lon="5.20086">
        <ele>1154.2</ele>
        <time>2019-05-01T11:57:02Z</time>
      </trkpt>
      <trkpt lat="44.86425" lon="5.20084">
        <ele>1151.32</ele>
        <time>2019-05-01T11:57:07Z</time>
      </trkpt>
      <trkpt lat="44.86422" lon="5.20076">
        <ele>1147.95</ele>
        <time>2019-05-01T11:57:19Z</time>
      </trkpt>
      <trkpt lat="44.86418" lon="5.20064">
        <ele>1146.51</ele>
        <time>2019-05-01T11:57:33Z</time>
      </trkpt>
      <trkpt lat="44.86417" lon="5.20062">
        <ele>1145.07</ele>
        <time>2019-05-01T11:57:35Z</time>
      </trkpt>
      <trkpt lat="44.86414" lon="5.20056">
        <ele>1142.18</ele>
        <time>2019-05-01T11:57:42Z</time>
      </trkpt>
      <trkpt lat="44.86405" lon="5.20054">
        <ele>1139.78</ele>
        <time>2019-05-01T11:57:56Z</time>
      </trkpt>
      <trkpt lat="44.86392" lon="5.20049">
        <ele>1137.38</ele>
        <time>2019-05-01T11:58:11Z</time>
      </trkpt>
      <trkpt lat="44.86395" lon="5.20043">
        <ele>1135.94</ele>
        <time>2019-05-01T11:58:27Z</time>
      </trkpt>
      <trkpt lat="44.86394" lon="5.20029">
        <ele>1132.09</ele>
        <time>2019-05-01T11:58:42Z</time>
      </trkpt>
      <trkpt lat="44.86395" lon="5.20025">
        <ele>1133.05</ele>
        <time>2019-05-01T11:58:47Z</time>
      </trkpt>
      <trkpt lat="44.8639" lon="5.20027">
        <ele>1134.01</ele>
        <time>2019-05-01T11:59:01Z</time>
      </trkpt>
      <trkpt lat="44.86393" lon="5.20029">
        <ele>1134.01</ele>
        <time>2019-05-01T11:59:14Z</time>
      </trkpt>
      <trkpt lat="44.86392" lon="5.20029">
        <ele>1133.53</ele>
        <time>2019-05-01T11:59:18Z</time>
      </trkpt>
      <trkpt lat="44.86392" lon="5.20024">
        <ele>1132.57</ele>
        <time>2019-05-01T11:59:35Z</time>
      </trkpt>
      <trkpt lat="44.86391" lon="5.20025">
        <ele>1132.57</ele>
        <time>2019-05-01T11:59:50Z</time>
      </trkpt>
      <trkpt lat="44.86386" lon="5.20025">
        <ele>1132.57</ele>
        <time>2019-05-01T12:00:10Z</time>
      </trkpt>
      <trkpt lat="44.86381" lon="5.20027">
        <ele>1135.45</ele>
        <time>2019-05-01T12:00:16Z</time>
      </trkpt>
      <trkpt lat="44.86371" lon="5.20031">
        <ele>1133.53</ele>
        <time>2019-05-01T12:00:29Z</time>
      </trkpt>
      <trkpt lat="44.86363" lon="5.20031">
        <ele>1135.45</ele>
        <time>2019-05-01T12:00:41Z</time>
      </trkpt>
      <trkpt lat="44.86355" lon="5.2003">
        <ele>1134.49</ele>
        <time>2019-05-01T12:00:53Z</time>
      </trkpt>
      <trkpt lat="44.86347" lon="5.20026">
        <ele>1134.01</ele>
        <time>2019-05-01T12:01:06Z</time>
      </trkpt>
      <trkpt lat="44.86345" lon="5.20023">
        <ele>1132.09</ele>
        <time>2019-05-01T12:01:09Z</time>
      </trkpt>
      <trkpt lat="44.86336" lon="5.20016">
        <ele>1129.21</ele>
        <time>2019-05-01T12:01:23Z</time>
      </trkpt>
      <trkpt lat="44.86328" lon="5.20011">
        <ele>1126.32</ele>
        <time>2019-05-01T12:01:36Z</time>
      </trkpt>
      <trkpt lat="44.86322" lon="5.20009">
        <ele>1123.44</ele>
        <time>2019-05-01T12:01:44Z</time>
      </trkpt>
      <trkpt lat="44.8631" lon="5.20006">
        <ele>1122.48</ele>
        <time>2019-05-01T12:01:55Z</time>
      </trkpt>
      <trkpt lat="44.86301" lon="5.19997">
        <ele>1119.11</ele>
        <time>2019-05-01T12:02:11Z</time>
      </trkpt>
      <trkpt lat="44.86302" lon="5.19997">
        <ele>1120.07</ele>
        <time>2019-05-01T12:02:42Z</time>
      </trkpt>
      <trkpt lat="44.86303" lon="5.20009">
        <ele>1120.55</ele>
        <time>2019-05-01T12:02:56Z</time>
      </trkpt>
      <trkpt lat="44.86303" lon="5.20011">
        <ele>1121.03</ele>
        <time>2019-05-01T12:03:16Z</time>
      </trkpt>
      <trkpt lat="44.863" lon="5.20009">
        <ele>1121.03</ele>
        <time>2019-05-01T12:03:35Z</time>
      </trkpt>
      <trkpt lat="44.86299" lon="5.20005">
        <ele>1120.55</ele>
        <time>2019-05-01T12:03:53Z</time>
      </trkpt>
      <trkpt lat="44.86295" lon="5.20003">
        <ele>1119.59</ele>
        <time>2019-05-01T12:04:15Z</time>
      </trkpt>
      <trkpt lat="44.86296" lon="5.20004">
        <ele>1118.63</ele>
        <time>2019-05-01T12:04:20Z</time>
      </trkpt>
      <trkpt lat="44.86295" lon="5.20006">
        <ele>1119.11</ele>
        <time>2019-05-01T12:04:40Z</time>
      </trkpt>
      <trkpt lat="44.86291" lon="5.2">
        <ele>1116.71</ele>
        <time>2019-05-01T12:04:53Z</time>
      </trkpt>
      <trkpt lat="44.86291" lon="5.19996">
        <ele>1113.34</ele>
        <time>2019-05-01T12:05:00Z</time>
      </trkpt>
      <trkpt lat="44.86289" lon="5.19988">
        <ele>1111.42</ele>
        <time>2019-05-01T12:05:10Z</time>
      </trkpt>
      <trkpt lat="44.86284" lon="5.19985">
        <ele>1108.06</ele>
        <time>2019-05-01T12:05:17Z</time>
      </trkpt>
      <trkpt lat="44.8628" lon="5.19984">
        <ele>1108.54</ele>
        <time>2019-05-01T12:05:22Z</time>
      </trkpt>
      <trkpt lat="44.86277" lon="5.19983">
        <ele>1107.1</ele>
        <time>2019-05-01T12:05:29Z</time>
      </trkpt>
      <trkpt lat="44.8628" lon="5.1998">
        <ele>1107.1</ele>
        <time>2019-05-01T12:05:34Z</time>
      </trkpt>
      <trkpt lat="44.86282" lon="5.19976">
        <ele>1104.21</ele>
        <time>2019-05-01T12:05:40Z</time>
      </trkpt>
      <trkpt lat="44.86282" lon="5.19973">
        <ele>1108.06</ele>
        <time>2019-05-01T12:05:43Z</time>
      </trkpt>
      <trkpt lat="44.86282" lon="5.19968">
        <ele>1104.69</ele>
        <time>2019-05-01T12:05:47Z</time>
      </trkpt>
      <trkpt lat="44.86282" lon="5.19967">
        <ele>1104.69</ele>
        <time>2019-05-01T12:05:48Z</time>
      </trkpt>
      <trkpt lat="44.86281" lon="5.19964">
        <ele>1100.85</ele>
        <time>2019-05-01T12:05:51Z</time>
      </trkpt>
      <trkpt lat="44.86279" lon="5.1996">
        <ele>1103.73</ele>
        <time>2019-05-01T12:05:55Z</time>
      </trkpt>
      <trkpt lat="44.86275" lon="5.19957">
        <ele>1100.85</ele>
        <time>2019-05-01T12:06:02Z</time>
      </trkpt>
      <trkpt lat="44.86274" lon="5.19958">
        <ele>1100.85</ele>
        <time>2019-05-01T12:06:03Z</time>
      </trkpt>
      <trkpt lat="44.86271" lon="5.19957">
        <ele>1098.44</ele>
        <time>2019-05-01T12:06:06Z</time>
      </trkpt>
      <trkpt lat="44.86265" lon="5.19955">
        <ele>1094.12</ele>
        <time>2019-05-01T12:06:14Z</time>
      </trkpt>
      <trkpt lat="44.86262" lon="5.19953">
        <ele>1095.56</ele>
        <time>2019-05-01T12:06:17Z</time>
      </trkpt>
      <trkpt lat="44.86257" lon="5.19952">
        <ele>1092.68</ele>
        <time>2019-05-01T12:06:36Z</time>
      </trkpt>
      <trkpt lat="44.86257" lon="5.19952">
        <ele>1097</ele>
        <time>2019-05-01T12:06:37Z</time>
      </trkpt>
      <trkpt lat="44.86256" lon="5.19953">
        <ele>1093.16</ele>
        <time>2019-05-01T12:06:40Z</time>
      </trkpt>
      <trkpt lat="44.86256" lon="5.19953">
        <ele>1093.16</ele>
        <time>2019-05-01T12:06:41Z</time>
      </trkpt>
      <trkpt lat="44.86253" lon="5.19951">
        <ele>1094.6</ele>
        <time>2019-05-01T12:06:57Z</time>
      </trkpt>
      <trkpt lat="44.86253" lon="5.19955">
        <ele>1095.08</ele>
        <time>2019-05-01T12:07:07Z</time>
      </trkpt>
      <trkpt lat="44.86249" lon="5.19955">
        <ele>1091.71</ele>
        <time>2019-05-01T12:07:11Z</time>
      </trkpt>
      <trkpt lat="44.86248" lon="5.19955">
        <ele>1091.71</ele>
        <time>2019-05-01T12:07:12Z</time>
      </trkpt>
      <trkpt lat="44.86247" lon="5.19955">
        <ele>1095.08</ele>
        <time>2019-05-01T12:07:13Z</time>
      </trkpt>
      <trkpt lat="44.86245" lon="5.19955">
        <ele>1096.04</ele>
        <time>2019-05-01T12:07:15Z</time>
      </trkpt>
      <trkpt lat="44.86244" lon="5.19956">
        <ele>1091.71</ele>
        <time>2019-05-01T12:07:17Z</time>
      </trkpt>
      <trkpt lat="44.86243" lon="5.19957">
        <ele>1094.12</ele>
        <time>2019-05-01T12:07:18Z</time>
      </trkpt>
      <trkpt lat="44.86238" lon="5.19958">
        <ele>1097.48</ele>
        <time>2019-05-01T12:07:23Z</time>
      </trkpt>
      <trkpt lat="44.86237" lon="5.19959">
        <ele>1093.64</ele>
        <time>2019-05-01T12:07:25Z</time>
      </trkpt>
      <trkpt lat="44.8623" lon="5.1996">
        <ele>1097</ele>
        <time>2019-05-01T12:07:31Z</time>
      </trkpt>
      <trkpt lat="44.86218" lon="5.19961">
        <ele>1093.64</ele>
        <time>2019-05-01T12:07:44Z</time>
      </trkpt>
      <trkpt lat="44.86208" lon="5.19949">
        <ele>1095.56</ele>
        <time>2019-05-01T12:07:59Z</time>
      </trkpt>
      <trkpt lat="44.86203" lon="5.19946">
        <ele>1090.75</ele>
        <time>2019-05-01T12:08:04Z</time>
      </trkpt>
      <trkpt lat="44.86202" lon="5.19946">
        <ele>1092.2</ele>
        <time>2019-05-01T12:08:05Z</time>
      </trkpt>
      <trkpt lat="44.86189" lon="5.19937">
        <ele>1092.68</ele>
        <time>2019-05-01T12:08:20Z</time>
      </trkpt>
      <trkpt lat="44.86186" lon="5.19933">
        <ele>1090.27</ele>
        <time>2019-05-01T12:08:30Z</time>
      </trkpt>
      <trkpt lat="44.86185" lon="5.19933">
        <ele>1094.6</ele>
        <time>2019-05-01T12:08:31Z</time>
      </trkpt>
      <trkpt lat="44.86185" lon="5.19932">
        <ele>1093.64</ele>
        <time>2019-05-01T12:08:32Z</time>
      </trkpt>
      <trkpt lat="44.86183" lon="5.1993">
        <ele>1089.31</ele>
        <time>2019-05-01T12:08:34Z</time>
      </trkpt>
      <trkpt lat="44.86183" lon="5.1993">
        <ele>1091.71</ele>
        <time>2019-05-01T12:08:35Z</time>
      </trkpt>
      <trkpt lat="44.86177" lon="5.19921">
        <ele>1091.71</ele>
        <time>2019-05-01T12:08:48Z</time>
      </trkpt>
      <trkpt lat="44.86169" lon="5.19911">
        <ele>1087.39</ele>
        <time>2019-05-01T12:09:00Z</time>
      </trkpt>
      <trkpt lat="44.86169" lon="5.1991">
        <ele>1088.83</ele>
        <time>2019-05-01T12:09:01Z</time>
      </trkpt>
      <trkpt lat="44.86162" lon="5.199">
        <ele>1086.91</ele>
        <time>2019-05-01T12:09:14Z</time>
      </trkpt>
      <trkpt lat="44.8616" lon="5.199">
        <ele>1083.54</ele>
        <time>2019-05-01T12:09:16Z</time>
      </trkpt>
      <trkpt lat="44.86149" lon="5.19903">
        <ele>1086.91</ele>
        <time>2019-05-01T12:09:28Z</time>
      </trkpt>
      <trkpt lat="44.86136" lon="5.19903">
        <ele>1085.95</ele>
        <time>2019-05-01T12:09:42Z</time>
      </trkpt>
      <trkpt lat="44.86123" lon="5.19904">
        <ele>1086.43</ele>
        <time>2019-05-01T12:09:58Z</time>
      </trkpt>
      <trkpt lat="44.86115" lon="5.19906">
        <ele>1087.87</ele>
        <time>2019-05-01T12:10:11Z</time>
      </trkpt>
      <trkpt lat="44.86107" lon="5.19904">
        <ele>1087.39</ele>
        <time>2019-05-01T12:10:27Z</time>
      </trkpt>
      <trkpt lat="44.86096" lon="5.19899">
        <ele>1086.43</ele>
        <time>2019-05-01T12:10:43Z</time>
      </trkpt>
      <trkpt lat="44.86086" lon="5.19895">
        <ele>1085.47</ele>
        <time>2019-05-01T12:10:58Z</time>
      </trkpt>
      <trkpt lat="44.86073" lon="5.19895">
        <ele>1084.02</ele>
        <time>2019-05-01T12:11:14Z</time>
      </trkpt>
      <trkpt lat="44.86061" lon="5.19892">
        <ele>1084.5</ele>
        <time>2019-05-01T12:11:29Z</time>
      </trkpt>
      <trkpt lat="44.8605" lon="5.19889">
        <ele>1083.54</ele>
        <time>2019-05-01T12:11:41Z</time>
      </trkpt>
      <trkpt lat="44.86041" lon="5.19881">
        <ele>1082.1</ele>
        <time>2019-05-01T12:11:56Z</time>
      </trkpt>
      <trkpt lat="44.86035" lon="5.19876">
        <ele>1079.7</ele>
        <time>2019-05-01T12:12:10Z</time>
      </trkpt>
      <trkpt lat="44.86028" lon="5.19883">
        <ele>1082.1</ele>
        <time>2019-05-01T12:12:23Z</time>
      </trkpt>
      <trkpt lat="44.86016" lon="5.19877">
        <ele>1079.7</ele>
        <time>2019-05-01T12:12:36Z</time>
      </trkpt>
      <trkpt lat="44.86009" lon="5.19872">
        <ele>1078.74</ele>
        <time>2019-05-01T12:12:53Z</time>
      </trkpt>
      <trkpt lat="44.86003" lon="5.19868">
        <ele>1075.85</ele>
        <time>2019-05-01T12:13:05Z</time>
      </trkpt>
      <trkpt lat="44.85998" lon="5.19866">
        <ele>1076.33</ele>
        <time>2019-05-01T12:13:19Z</time>
      </trkpt>
      <trkpt lat="44.85991" lon="5.19862">
        <ele>1073.45</ele>
        <time>2019-05-01T12:13:32Z</time>
      </trkpt>
      <trkpt lat="44.85986" lon="5.19863">
        <ele>1073.45</ele>
        <time>2019-05-01T12:13:46Z</time>
      </trkpt>
      <trkpt lat="44.85984" lon="5.19862">
        <ele>1073.45</ele>
        <time>2019-05-01T12:14:01Z</time>
      </trkpt>
      <trkpt lat="44.85978" lon="5.19864">
        <ele>1074.41</ele>
        <time>2019-05-01T12:14:18Z</time>
      </trkpt>
      <trkpt lat="44.85985" lon="5.19862">
        <ele>1073.45</ele>
        <time>2019-05-01T12:14:32Z</time>
      </trkpt>
      <trkpt lat="44.85986" lon="5.19862">
        <ele>1073.93</ele>
        <time>2019-05-01T12:14:56Z</time>
      </trkpt>
      <trkpt lat="44.85983" lon="5.19862">
        <ele>1073.45</ele>
        <time>2019-05-01T12:15:15Z</time>
      </trkpt>
      <trkpt lat="44.85978" lon="5.19864">
        <ele>1073.93</ele>
        <time>2019-05-01T12:15:29Z</time>
      </trkpt>
      <trkpt lat="44.85979" lon="5.19863">
        <ele>1073.93</ele>
        <time>2019-05-01T12:15:44Z</time>
      </trkpt>
      <trkpt lat="44.85975" lon="5.19864">
        <ele>1073.45</ele>
        <time>2019-05-01T12:15:54Z</time>
      </trkpt>
      <trkpt lat="44.85972" lon="5.19865">
        <ele>1074.41</ele>
        <time>2019-05-01T12:15:58Z</time>
      </trkpt>
      <trkpt lat="44.85966" lon="5.1987">
        <ele>1076.33</ele>
        <time>2019-05-01T12:16:06Z</time>
      </trkpt>
      <trkpt lat="44.85963" lon="5.19873">
        <ele>1077.78</ele>
        <time>2019-05-01T12:16:10Z</time>
      </trkpt>
      <trkpt lat="44.85953" lon="5.19875">
        <ele>1079.7</ele>
        <time>2019-05-01T12:16:22Z</time>
      </trkpt>
      <trkpt lat="44.85939" lon="5.19874">
        <ele>1078.74</ele>
        <time>2019-05-01T12:16:38Z</time>
      </trkpt>
      <trkpt lat="44.85935" lon="5.19874">
        <ele>1078.26</ele>
        <time>2019-05-01T12:16:52Z</time>
      </trkpt>
      <trkpt lat="44.85934" lon="5.19873">
        <ele>1077.78</ele>
        <time>2019-05-01T12:17:05Z</time>
      </trkpt>
      <trkpt lat="44.85935" lon="5.19874">
        <ele>1078.26</ele>
        <time>2019-05-01T12:17:24Z</time>
      </trkpt>
      <trkpt lat="44.85933" lon="5.19868">
        <ele>1076.81</ele>
        <time>2019-05-01T12:17:39Z</time>
      </trkpt>
      <trkpt lat="44.8593" lon="5.19862">
        <ele>1073.93</ele>
        <time>2019-05-01T12:17:52Z</time>
      </trkpt>
      <trkpt lat="44.85929" lon="5.19857">
        <ele>1072.01</ele>
        <time>2019-05-01T12:17:59Z</time>
      </trkpt>
      <trkpt lat="44.85928" lon="5.19855">
        <ele>1071.53</ele>
        <time>2019-05-01T12:18:03Z</time>
      </trkpt>
      <trkpt lat="44.85925" lon="5.19847">
        <ele>1069.12</ele>
        <time>2019-05-01T12:18:18Z</time>
      </trkpt>
      <trkpt lat="44.85926" lon="5.19846">
        <ele>1068.16</ele>
        <time>2019-05-01T12:18:34Z</time>
      </trkpt>
      <trkpt lat="44.85925" lon="5.19845">
        <ele>1069.12</ele>
        <time>2019-05-01T12:18:50Z</time>
      </trkpt>
      <trkpt lat="44.85924" lon="5.19843">
        <ele>1069.12</ele>
        <time>2019-05-01T12:19:12Z</time>
      </trkpt>
      <trkpt lat="44.85927" lon="5.19842">
        <ele>1069.12</ele>
        <time>2019-05-01T12:19:34Z</time>
      </trkpt>
      <trkpt lat="44.85926" lon="5.19845">
        <ele>1068.64</ele>
        <time>2019-05-01T12:19:55Z</time>
      </trkpt>
      <trkpt lat="44.85918" lon="5.19846">
        <ele>1068.64</ele>
        <time>2019-05-01T12:20:15Z</time>
      </trkpt>
      <trkpt lat="44.85912" lon="5.19849">
        <ele>1072.01</ele>
        <time>2019-05-01T12:20:25Z</time>
      </trkpt>
      <trkpt lat="44.85912" lon="5.19855">
        <ele>1072.49</ele>
        <time>2019-05-01T12:20:30Z</time>
      </trkpt>
      <trkpt lat="44.85911" lon="5.19864">
        <ele>1074.41</ele>
        <time>2019-05-01T12:20:43Z</time>
      </trkpt>
      <trkpt lat="44.85904" lon="5.19868">
        <ele>1075.85</ele>
        <time>2019-05-01T12:20:57Z</time>
      </trkpt>
      <trkpt lat="44.85899" lon="5.19874">
        <ele>1078.26</ele>
        <time>2019-05-01T12:21:08Z</time>
      </trkpt>
      <trkpt lat="44.85896" lon="5.19876">
        <ele>1078.74</ele>
        <time>2019-05-01T12:21:13Z</time>
      </trkpt>
      <trkpt lat="44.85894" lon="5.19877">
        <ele>1079.22</ele>
        <time>2019-05-01T12:21:15Z</time>
      </trkpt>
      <trkpt lat="44.85881" lon="5.1988">
        <ele>1081.14</ele>
        <time>2019-05-01T12:21:29Z</time>
      </trkpt>
      <trkpt lat="44.85876" lon="5.19876">
        <ele>1078.74</ele>
        <time>2019-05-01T12:21:44Z</time>
      </trkpt>
      <trkpt lat="44.85874" lon="5.19876">
        <ele>1076.81</ele>
        <time>2019-05-01T12:21:59Z</time>
      </trkpt>
      <trkpt lat="44.85869" lon="5.19877">
        <ele>1078.26</ele>
        <time>2019-05-01T12:22:11Z</time>
      </trkpt>
      <trkpt lat="44.85858" lon="5.1988">
        <ele>1078.74</ele>
        <time>2019-05-01T12:22:24Z</time>
      </trkpt>
      <trkpt lat="44.85851" lon="5.19877">
        <ele>1076.81</ele>
        <time>2019-05-01T12:22:39Z</time>
      </trkpt>
      <trkpt lat="44.85842" lon="5.19875">
        <ele>1074.41</ele>
        <time>2019-05-01T12:22:53Z</time>
      </trkpt>
      <trkpt lat="44.85838" lon="5.19868">
        <ele>1073.45</ele>
        <time>2019-05-01T12:23:07Z</time>
      </trkpt>
      <trkpt lat="44.85834" lon="5.19867">
        <ele>1072.49</ele>
        <time>2019-05-01T12:23:17Z</time>
      </trkpt>
      <trkpt lat="44.85831" lon="5.19871">
        <ele>1072.97</ele>
        <time>2019-05-01T12:23:28Z</time>
      </trkpt>
      <trkpt lat="44.85818" lon="5.1987">
        <ele>1072.49</ele>
        <time>2019-05-01T12:23:42Z</time>
      </trkpt>
      <trkpt lat="44.85815" lon="5.19866">
        <ele>1072.01</ele>
        <time>2019-05-01T12:23:56Z</time>
      </trkpt>
      <trkpt lat="44.85812" lon="5.19867">
        <ele>1070.57</ele>
        <time>2019-05-01T12:23:59Z</time>
      </trkpt>
      <trkpt lat="44.85803" lon="5.19864">
        <ele>1068.64</ele>
        <time>2019-05-01T12:24:11Z</time>
      </trkpt>
      <trkpt lat="44.85795" lon="5.1986">
        <ele>1065.76</ele>
        <time>2019-05-01T12:24:26Z</time>
      </trkpt>
      <trkpt lat="44.85793" lon="5.19865">
        <ele>1066.72</ele>
        <time>2019-05-01T12:24:41Z</time>
      </trkpt>
      <trkpt lat="44.85787" lon="5.19864">
        <ele>1066.72</ele>
        <time>2019-05-01T12:24:54Z</time>
      </trkpt>
      <trkpt lat="44.85785" lon="5.19865">
        <ele>1066.24</ele>
        <time>2019-05-01T12:25:11Z</time>
      </trkpt>
      <trkpt lat="44.85785" lon="5.19862">
        <ele>1064.32</ele>
        <time>2019-05-01T12:25:21Z</time>
      </trkpt>
      <trkpt lat="44.85787" lon="5.19865">
        <ele>1064.8</ele>
        <time>2019-05-01T12:25:36Z</time>
      </trkpt>
      <trkpt lat="44.85792" lon="5.19868">
        <ele>1067.68</ele>
        <time>2019-05-01T12:25:48Z</time>
      </trkpt>
      <trkpt lat="44.85796" lon="5.19866">
        <ele>1068.16</ele>
        <time>2019-05-01T12:26:02Z</time>
      </trkpt>
      <trkpt lat="44.85797" lon="5.19864">
        <ele>1067.2</ele>
        <time>2019-05-01T12:26:15Z</time>
      </trkpt>
      <trkpt lat="44.85799" lon="5.19864">
        <ele>1066.72</ele>
        <time>2019-05-01T12:26:32Z</time>
      </trkpt>
      <trkpt lat="44.85803" lon="5.19867">
        <ele>1068.16</ele>
        <time>2019-05-01T12:26:39Z</time>
      </trkpt>
      <trkpt lat="44.85811" lon="5.19868">
        <ele>1071.53</ele>
        <time>2019-05-01T12:26:52Z</time>
      </trkpt>
      <trkpt lat="44.85814" lon="5.19867">
        <ele>1070.57</ele>
        <time>2019-05-01T12:27:03Z</time>
      </trkpt>
      <trkpt lat="44.85816" lon="5.19865">
        <ele>1070.08</ele>
        <time>2019-05-01T12:27:23Z</time>
      </trkpt>
      <trkpt lat="44.85816" lon="5.19865">
        <ele>1070.57</ele>
        <time>2019-05-01T12:27:34Z</time>
      </trkpt>
      <trkpt lat="44.85817" lon="5.19866">
        <ele>1070.08</ele>
        <time>2019-05-01T12:27:51Z</time>
      </trkpt>
      <trkpt lat="44.85817" lon="5.19865">
        <ele>1070.57</ele>
        <time>2019-05-01T12:28:09Z</time>
      </trkpt>
      <trkpt lat="44.85817" lon="5.19863">
        <ele>1071.05</ele>
        <time>2019-05-01T12:28:28Z</time>
      </trkpt>
      <trkpt lat="44.85814" lon="5.19863">
        <ele>1070.57</ele>
        <time>2019-05-01T12:28:57Z</time>
      </trkpt>
      <trkpt lat="44.85817" lon="5.19864">
        <ele>1071.53</ele>
        <time>2019-05-01T12:29:18Z</time>
      </trkpt>
      <trkpt lat="44.85818" lon="5.19864">
        <ele>1071.05</ele>
        <time>2019-05-01T12:29:31Z</time>
      </trkpt>
      <trkpt lat="44.85818" lon="5.19858">
        <ele>1068.64</ele>
        <time>2019-05-01T12:29:47Z</time>
      </trkpt>
      <trkpt lat="44.85819" lon="5.19855">
        <ele>1067.68</ele>
        <time>2019-05-01T12:30:06Z</time>
      </trkpt>
      <trkpt lat="44.8582" lon="5.19854">
        <ele>1067.68</ele>
        <time>2019-05-01T12:30:23Z</time>
      </trkpt>
      <trkpt lat="44.85821" lon="5.19852">
        <ele>1066.24</ele>
        <time>2019-05-01T12:30:35Z</time>
      </trkpt>
      <trkpt lat="44.85821" lon="5.19849">
        <ele>1065.76</ele>
        <time>2019-05-01T12:30:54Z</time>
      </trkpt>
      <trkpt lat="44.85822" lon="5.19849">
        <ele>1065.76</ele>
        <time>2019-05-01T12:31:13Z</time>
      </trkpt>
      <trkpt lat="44.85819" lon="5.19854">
        <ele>1066.24</ele>
        <time>2019-05-01T12:31:31Z</time>
      </trkpt>
      <trkpt lat="44.85816" lon="5.19859">
        <ele>1068.16</ele>
        <time>2019-05-01T12:31:44Z</time>
      </trkpt>
      <trkpt lat="44.85816" lon="5.19864">
        <ele>1069.12</ele>
        <time>2019-05-01T12:31:56Z</time>
      </trkpt>
      <trkpt lat="44.85814" lon="5.19867">
        <ele>1071.05</ele>
        <time>2019-05-01T12:32:08Z</time>
      </trkpt>
      <trkpt lat="44.85815" lon="5.1987">
        <ele>1072.97</ele>
        <time>2019-05-01T12:32:14Z</time>
      </trkpt>
      <trkpt lat="44.85818" lon="5.1987">
        <ele>1072.49</ele>
        <time>2019-05-01T12:32:26Z</time>
      </trkpt>
      <trkpt lat="44.8582" lon="5.1987">
        <ele>1072.01</ele>
        <time>2019-05-01T12:32:39Z</time>
      </trkpt>
      <trkpt lat="44.85822" lon="5.1987">
        <ele>1072.01</ele>
        <time>2019-05-01T12:32:45Z</time>
      </trkpt>
      <trkpt lat="44.85823" lon="5.19871">
        <ele>1072.49</ele>
        <time>2019-05-01T12:32:47Z</time>
      </trkpt>
      <trkpt lat="44.85831" lon="5.19869">
        <ele>1072.97</ele>
        <time>2019-05-01T12:32:59Z</time>
      </trkpt>
      <trkpt lat="44.85837" lon="5.19868">
        <ele>1073.45</ele>
        <time>2019-05-01T12:33:11Z</time>
      </trkpt>
      <trkpt lat="44.85838" lon="5.19873">
        <ele>1072.97</ele>
        <time>2019-05-01T12:33:25Z</time>
      </trkpt>
      <trkpt lat="44.8584" lon="5.19874">
        <ele>1072.97</ele>
        <time>2019-05-01T12:33:27Z</time>
      </trkpt>
      <trkpt lat="44.85842" lon="5.19875">
        <ele>1073.93</ele>
        <time>2019-05-01T12:33:29Z</time>
      </trkpt>
      <trkpt lat="44.85851" lon="5.19878">
        <ele>1076.33</ele>
        <time>2019-05-01T12:33:41Z</time>
      </trkpt>
      <trkpt lat="44.8586" lon="5.19878">
        <ele>1077.78</ele>
        <time>2019-05-01T12:33:53Z</time>
      </trkpt>
      <trkpt lat="44.85864" lon="5.19872">
        <ele>1075.85</ele>
        <time>2019-05-01T12:34:05Z</time>
      </trkpt>
      <trkpt lat="44.85865" lon="5.19876">
        <ele>1076.81</ele>
        <time>2019-05-01T12:34:19Z</time>
      </trkpt>
      <trkpt lat="44.85871" lon="5.19879">
        <ele>1077.78</ele>
        <time>2019-05-01T12:34:30Z</time>
      </trkpt>
      <trkpt lat="44.85873" lon="5.1988">
        <ele>1076.81</ele>
        <time>2019-05-01T12:34:34Z</time>
      </trkpt>
      <trkpt lat="44.85876" lon="5.19878">
        <ele>1077.78</ele>
        <time>2019-05-01T12:34:44Z</time>
      </trkpt>
      <trkpt lat="44.85877" lon="5.19879">
        <ele>1078.26</ele>
        <time>2019-05-01T12:34:55Z</time>
      </trkpt>
      <trkpt lat="44.85882" lon="5.1988">
        <ele>1080.18</ele>
        <time>2019-05-01T12:35:02Z</time>
      </trkpt>
      <trkpt lat="44.85893" lon="5.19877">
        <ele>1079.22</ele>
        <time>2019-05-01T12:35:16Z</time>
      </trkpt>
      <trkpt lat="44.85896" lon="5.19874">
        <ele>1077.29</ele>
        <time>2019-05-01T12:35:22Z</time>
      </trkpt>
      <trkpt lat="44.85902" lon="5.19868">
        <ele>1075.37</ele>
        <time>2019-05-01T12:35:34Z</time>
      </trkpt>
      <trkpt lat="44.85901" lon="5.19864">
        <ele>1074.89</ele>
        <time>2019-05-01T12:35:46Z</time>
      </trkpt>
      <trkpt lat="44.85897" lon="5.19866">
        <ele>1074.41</ele>
        <time>2019-05-01T12:36:02Z</time>
      </trkpt>
      <trkpt lat="44.85891" lon="5.19872">
        <ele>1077.78</ele>
        <time>2019-05-01T12:36:12Z</time>
      </trkpt>
      <trkpt lat="44.85887" lon="5.19878">
        <ele>1078.74</ele>
        <time>2019-05-01T12:36:24Z</time>
      </trkpt>
      <trkpt lat="44.85886" lon="5.19879">
        <ele>1079.22</ele>
        <time>2019-05-01T12:36:25Z</time>
      </trkpt>
      <trkpt lat="44.85877" lon="5.19878">
        <ele>1077.78</ele>
        <time>2019-05-01T12:36:41Z</time>
      </trkpt>
      <trkpt lat="44.85873" lon="5.19873">
        <ele>1075.85</ele>
        <time>2019-05-01T12:36:53Z</time>
      </trkpt>
      <trkpt lat="44.8587" lon="5.19872">
        <ele>1076.33</ele>
        <time>2019-05-01T12:37:04Z</time>
      </trkpt>
      <trkpt lat="44.85866" lon="5.19867">
        <ele>1074.89</ele>
        <time>2019-05-01T12:37:18Z</time>
      </trkpt>
      <trkpt lat="44.85873" lon="5.19864">
        <ele>1074.41</ele>
        <time>2019-05-01T12:37:31Z</time>
      </trkpt>
      <trkpt lat="44.85876" lon="5.19862">
        <ele>1072.97</ele>
        <time>2019-05-01T12:37:46Z</time>
      </trkpt>
      <trkpt lat="44.85875" lon="5.19861">
        <ele>1072.97</ele>
        <time>2019-05-01T12:38:00Z</time>
      </trkpt>
      <trkpt lat="44.85871" lon="5.19861">
        <ele>1074.41</ele>
        <time>2019-05-01T12:38:11Z</time>
      </trkpt>
      <trkpt lat="44.85871" lon="5.19862">
        <ele>1073.93</ele>
        <time>2019-05-01T12:38:18Z</time>
      </trkpt>
      <trkpt lat="44.85867" lon="5.19861">
        <ele>1072.01</ele>
        <time>2019-05-01T12:38:32Z</time>
      </trkpt>
      <trkpt lat="44.85864" lon="5.1986">
        <ele>1071.05</ele>
        <time>2019-05-01T12:38:44Z</time>
      </trkpt>
      <trkpt lat="44.85861" lon="5.19858">
        <ele>1070.08</ele>
        <time>2019-05-01T12:38:56Z</time>
      </trkpt>
      <trkpt lat="44.8586" lon="5.19855">
        <ele>1068.64</ele>
        <time>2019-05-01T12:39:07Z</time>
      </trkpt>
      <trkpt lat="44.85861" lon="5.19856">
        <ele>1068.64</ele>
        <time>2019-05-01T12:39:17Z</time>
      </trkpt>
      <trkpt lat="44.85864" lon="5.1986">
        <ele>1071.53</ele>
        <time>2019-05-01T12:39:32Z</time>
      </trkpt>
      <trkpt lat="44.85866" lon="5.19862">
        <ele>1072.01</ele>
        <time>2019-05-01T12:39:37Z</time>
      </trkpt>
      <trkpt lat="44.85867" lon="5.19864">
        <ele>1073.45</ele>
        <time>2019-05-01T12:39:40Z</time>
      </trkpt>
      <trkpt lat="44.85865" lon="5.19869">
        <ele>1074.41</ele>
        <time>2019-05-01T12:39:51Z</time>
      </trkpt>
      <trkpt lat="44.85867" lon="5.19877">
        <ele>1075.85</ele>
        <time>2019-05-01T12:40:02Z</time>
      </trkpt>
      <trkpt lat="44.85875" lon="5.19879">
        <ele>1075.37</ele>
        <time>2019-05-01T12:40:16Z</time>
      </trkpt>
      <trkpt lat="44.8588" lon="5.1988">
        <ele>1077.29</ele>
        <time>2019-05-01T12:40:24Z</time>
      </trkpt>
      <trkpt lat="44.85889" lon="5.19881">
        <ele>1077.78</ele>
        <time>2019-05-01T12:40:36Z</time>
      </trkpt>
      <trkpt lat="44.85894" lon="5.19878">
        <ele>1077.78</ele>
        <time>2019-05-01T12:40:48Z</time>
      </trkpt>
      <trkpt lat="44.859" lon="5.19872">
        <ele>1075.85</ele>
        <time>2019-05-01T12:41:02Z</time>
      </trkpt>
      <trkpt lat="44.85901" lon="5.19871">
        <ele>1075.85</ele>
        <time>2019-05-01T12:41:18Z</time>
      </trkpt>
      <trkpt lat="44.85904" lon="5.19872">
        <ele>1075.85</ele>
        <time>2019-05-01T12:41:35Z</time>
      </trkpt>
      <trkpt lat="44.85902" lon="5.19866">
        <ele>1073.45</ele>
        <time>2019-05-01T12:41:48Z</time>
      </trkpt>
      <trkpt lat="44.85908" lon="5.19868">
        <ele>1073.45</ele>
        <time>2019-05-01T12:42:01Z</time>
      </trkpt>
      <trkpt lat="44.85911" lon="5.1986">
        <ele>1072.01</ele>
        <time>2019-05-01T12:42:12Z</time>
      </trkpt>
      <trkpt lat="44.85909" lon="5.1985">
        <ele>1069.6</ele>
        <time>2019-05-01T12:42:23Z</time>
      </trkpt>
      <trkpt lat="44.85908" lon="5.19849">
        <ele>1070.08</ele>
        <time>2019-05-01T12:42:25Z</time>
      </trkpt>
      <trkpt lat="44.85905" lon="5.19847">
        <ele>1068.64</ele>
        <time>2019-05-01T12:42:38Z</time>
      </trkpt>
      <trkpt lat="44.85905" lon="5.19842">
        <ele>1066.72</ele>
        <time>2019-05-01T12:42:54Z</time>
      </trkpt>
      <trkpt lat="44.85906" lon="5.1985">
        <ele>1068.64</ele>
        <time>2019-05-01T12:43:05Z</time>
      </trkpt>
      <trkpt lat="44.85908" lon="5.19852">
        <ele>1069.6</ele>
        <time>2019-05-01T12:43:08Z</time>
      </trkpt>
      <trkpt lat="44.85914" lon="5.1985">
        <ele>1068.64</ele>
        <time>2019-05-01T12:43:15Z</time>
      </trkpt>
      <trkpt lat="44.85917" lon="5.19849">
        <ele>1067.2</ele>
        <time>2019-05-01T12:43:17Z</time>
      </trkpt>
      <trkpt lat="44.85922" lon="5.19842">
        <ele>1065.76</ele>
        <time>2019-05-01T12:43:30Z</time>
      </trkpt>
      <trkpt lat="44.85925" lon="5.19832">
        <ele>1062.87</ele>
        <time>2019-05-01T12:43:43Z</time>
      </trkpt>
      <trkpt lat="44.85925" lon="5.19821">
        <ele>1060.47</ele>
        <time>2019-05-01T12:43:56Z</time>
      </trkpt>
      <trkpt lat="44.85924" lon="5.19809">
        <ele>1057.59</ele>
        <time>2019-05-01T12:44:10Z</time>
      </trkpt>
      <trkpt lat="44.85923" lon="5.19805">
        <ele>1056.63</ele>
        <time>2019-05-01T12:44:22Z</time>
      </trkpt>
      <trkpt lat="44.85924" lon="5.198">
        <ele>1054.7</ele>
        <time>2019-05-01T12:44:34Z</time>
      </trkpt>
      <trkpt lat="44.85923" lon="5.19798">
        <ele>1052.78</ele>
        <time>2019-05-01T12:44:46Z</time>
      </trkpt>
      <trkpt lat="44.85925" lon="5.19798">
        <ele>1052.78</ele>
        <time>2019-05-01T12:44:59Z</time>
      </trkpt>
      <trkpt lat="44.85922" lon="5.19794">
        <ele>1052.3</ele>
        <time>2019-05-01T12:45:18Z</time>
      </trkpt>
      <trkpt lat="44.85921" lon="5.19802">
        <ele>1054.22</ele>
        <time>2019-05-01T12:45:32Z</time>
      </trkpt>
      <trkpt lat="44.8592" lon="5.19803">
        <ele>1056.15</ele>
        <time>2019-05-01T12:45:44Z</time>
      </trkpt>
      <trkpt lat="44.85914" lon="5.19805">
        <ele>1056.63</ele>
        <time>2019-05-01T12:45:55Z</time>
      </trkpt>
      <trkpt lat="44.85914" lon="5.198">
        <ele>1054.22</ele>
        <time>2019-05-01T12:46:06Z</time>
      </trkpt>
      <trkpt lat="44.85916" lon="5.19808">
        <ele>1055.67</ele>
        <time>2019-05-01T12:46:19Z</time>
      </trkpt>
      <trkpt lat="44.85919" lon="5.19808">
        <ele>1056.63</ele>
        <time>2019-05-01T12:46:28Z</time>
      </trkpt>
      <trkpt lat="44.85924" lon="5.19814">
        <ele>1057.11</ele>
        <time>2019-05-01T12:46:42Z</time>
      </trkpt>
      <trkpt lat="44.85926" lon="5.19819">
        <ele>1058.07</ele>
        <time>2019-05-01T12:46:54Z</time>
      </trkpt>
      <trkpt lat="44.85925" lon="5.19825">
        <ele>1059.03</ele>
        <time>2019-05-01T12:47:08Z</time>
      </trkpt>
      <trkpt lat="44.85924" lon="5.19827">
        <ele>1060.47</ele>
        <time>2019-05-01T12:47:19Z</time>
      </trkpt>
      <trkpt lat="44.85924" lon="5.19828">
        <ele>1059.99</ele>
        <time>2019-05-01T12:47:39Z</time>
      </trkpt>
      <trkpt lat="44.85929" lon="5.19821">
        <ele>1059.51</ele>
        <time>2019-05-01T12:47:53Z</time>
      </trkpt>
      <trkpt lat="44.85931" lon="5.19819">
        <ele>1059.51</ele>
        <time>2019-05-01T12:48:15Z</time>
      </trkpt>
      <trkpt lat="44.85927" lon="5.19822">
        <ele>1059.99</ele>
        <time>2019-05-01T12:48:24Z</time>
      </trkpt>
      <trkpt lat="44.85926" lon="5.19829">
        <ele>1062.39</ele>
        <time>2019-05-01T12:48:37Z</time>
      </trkpt>
      <trkpt lat="44.85925" lon="5.19831">
        <ele>1062.87</ele>
        <time>2019-05-01T12:48:49Z</time>
      </trkpt>
      <trkpt lat="44.85923" lon="5.19824">
        <ele>1060.47</ele>
        <time>2019-05-01T12:49:03Z</time>
      </trkpt>
      <trkpt lat="44.85924" lon="5.19815">
        <ele>1058.07</ele>
        <time>2019-05-01T12:49:18Z</time>
      </trkpt>
      <trkpt lat="44.85921" lon="5.19809">
        <ele>1056.63</ele>
        <time>2019-05-01T12:49:35Z</time>
      </trkpt>
      <trkpt lat="44.85922" lon="5.19806">
        <ele>1055.67</ele>
        <time>2019-05-01T12:49:50Z</time>
      </trkpt>
      <trkpt lat="44.85925" lon="5.19812">
        <ele>1056.15</ele>
        <time>2019-05-01T12:50:06Z</time>
      </trkpt>
      <trkpt lat="44.85926" lon="5.19823">
        <ele>1059.51</ele>
        <time>2019-05-01T12:50:15Z</time>
      </trkpt>
      <trkpt lat="44.85927" lon="5.1983">
        <ele>1062.87</ele>
        <time>2019-05-01T12:50:26Z</time>
      </trkpt>
      <trkpt lat="44.85934" lon="5.1983">
        <ele>1062.39</ele>
        <time>2019-05-01T12:50:43Z</time>
      </trkpt>
      <trkpt lat="44.85938" lon="5.19829">
        <ele>1062.87</ele>
        <time>2019-05-01T12:50:48Z</time>
      </trkpt>
      <trkpt lat="44.85948" lon="5.19829">
        <ele>1061.91</ele>
        <time>2019-05-01T12:51:01Z</time>
      </trkpt>
      <trkpt lat="44.85949" lon="5.19828">
        <ele>1061.91</ele>
        <time>2019-05-01T12:51:19Z</time>
      </trkpt>
      <trkpt lat="44.85938" lon="5.19827">
        <ele>1061.43</ele>
        <time>2019-05-01T12:51:33Z</time>
      </trkpt>
      <trkpt lat="44.85929" lon="5.19835">
        <ele>1063.36</ele>
        <time>2019-05-01T12:51:47Z</time>
      </trkpt>
      <trkpt lat="44.85928" lon="5.19845">
        <ele>1066.24</ele>
        <time>2019-05-01T12:52:01Z</time>
      </trkpt>
      <trkpt lat="44.85928" lon="5.19849">
        <ele>1067.2</ele>
        <time>2019-05-01T12:52:06Z</time>
      </trkpt>
      <trkpt lat="44.85932" lon="5.19861">
        <ele>1069.6</ele>
        <time>2019-05-01T12:52:18Z</time>
      </trkpt>
      <trkpt lat="44.85932" lon="5.1987">
        <ele>1073.93</ele>
        <time>2019-05-01T12:52:30Z</time>
      </trkpt>
      <trkpt lat="44.85932" lon="5.19871">
        <ele>1073.93</ele>
        <time>2019-05-01T12:52:31Z</time>
      </trkpt>
      <trkpt lat="44.85939" lon="5.19873">
        <ele>1076.33</ele>
        <time>2019-05-01T12:52:45Z</time>
      </trkpt>
      <trkpt lat="44.85949" lon="5.19875">
        <ele>1075.85</ele>
        <time>2019-05-01T12:53:00Z</time>
      </trkpt>
      <trkpt lat="44.85953" lon="5.19877">
        <ele>1075.85</ele>
        <time>2019-05-01T12:53:14Z</time>
      </trkpt>
      <trkpt lat="44.85957" lon="5.19879">
        <ele>1075.37</ele>
        <time>2019-05-01T12:53:24Z</time>
      </trkpt>
      <trkpt lat="44.85956" lon="5.19872">
        <ele>1075.37</ele>
        <time>2019-05-01T12:53:38Z</time>
      </trkpt>
      <trkpt lat="44.85953" lon="5.19872">
        <ele>1075.85</ele>
        <time>2019-05-01T12:53:53Z</time>
      </trkpt>
      <trkpt lat="44.85958" lon="5.19878">
        <ele>1076.33</ele>
        <time>2019-05-01T12:54:20Z</time>
      </trkpt>
      <trkpt lat="44.85959" lon="5.19878">
        <ele>1075.85</ele>
        <time>2019-05-01T12:54:21Z</time>
      </trkpt>
      <trkpt lat="44.85963" lon="5.19873">
        <ele>1074.89</ele>
        <time>2019-05-01T12:54:29Z</time>
      </trkpt>
      <trkpt lat="44.85972" lon="5.19868">
        <ele>1071.05</ele>
        <time>2019-05-01T12:54:44Z</time>
      </trkpt>
      <trkpt lat="44.85976" lon="5.19865">
        <ele>1070.57</ele>
        <time>2019-05-01T12:54:55Z</time>
      </trkpt>
      <trkpt lat="44.85977" lon="5.19865">
        <ele>1071.05</ele>
        <time>2019-05-01T12:54:59Z</time>
      </trkpt>
      <trkpt lat="44.85978" lon="5.19865">
        <ele>1070.08</ele>
        <time>2019-05-01T12:55:01Z</time>
      </trkpt>
      <trkpt lat="44.85986" lon="5.19862">
        <ele>1069.6</ele>
        <time>2019-05-01T12:55:13Z</time>
      </trkpt>
      <trkpt lat="44.85986" lon="5.19853">
        <ele>1067.68</ele>
        <time>2019-05-01T12:55:26Z</time>
      </trkpt>
      <trkpt lat="44.85985" lon="5.19853">
        <ele>1068.64</ele>
        <time>2019-05-01T12:55:46Z</time>
      </trkpt>
      <trkpt lat="44.85984" lon="5.19862">
        <ele>1070.08</ele>
        <time>2019-05-01T12:55:56Z</time>
      </trkpt>
      <trkpt lat="44.85979" lon="5.19862">
        <ele>1070.57</ele>
        <time>2019-05-01T12:56:03Z</time>
      </trkpt>
      <trkpt lat="44.85972" lon="5.19857">
        <ele>1070.08</ele>
        <time>2019-05-01T12:56:17Z</time>
      </trkpt>
      <trkpt lat="44.85973" lon="5.19864">
        <ele>1070.57</ele>
        <time>2019-05-01T12:56:26Z</time>
      </trkpt>
      <trkpt lat="44.85974" lon="5.19866">
        <ele>1070.57</ele>
        <time>2019-05-01T12:56:28Z</time>
      </trkpt>
      <trkpt lat="44.85986" lon="5.19864">
        <ele>1070.08</ele>
        <time>2019-05-01T12:56:41Z</time>
      </trkpt>
      <trkpt lat="44.85998" lon="5.19867">
        <ele>1071.53</ele>
        <time>2019-05-01T12:56:54Z</time>
      </trkpt>
      <trkpt lat="44.86009" lon="5.19873">
        <ele>1074.41</ele>
        <time>2019-05-01T12:57:09Z</time>
      </trkpt>
      <trkpt lat="44.86018" lon="5.1988">
        <ele>1076.33</ele>
        <time>2019-05-01T12:57:21Z</time>
      </trkpt>
      <trkpt lat="44.86028" lon="5.19884">
        <ele>1078.26</ele>
        <time>2019-05-01T12:57:33Z</time>
      </trkpt>
      <trkpt lat="44.86037" lon="5.19877">
        <ele>1076.81</ele>
        <time>2019-05-01T12:57:46Z</time>
      </trkpt>
      <trkpt lat="44.86039" lon="5.19882">
        <ele>1077.29</ele>
        <time>2019-05-01T12:58:01Z</time>
      </trkpt>
      <trkpt lat="44.86047" lon="5.19888">
        <ele>1079.22</ele>
        <time>2019-05-01T12:58:16Z</time>
      </trkpt>
      <trkpt lat="44.86055" lon="5.19893">
        <ele>1079.7</ele>
        <time>2019-05-01T12:58:30Z</time>
      </trkpt>
      <trkpt lat="44.86064" lon="5.19896">
        <ele>1082.1</ele>
        <time>2019-05-01T12:58:44Z</time>
      </trkpt>
      <trkpt lat="44.86075" lon="5.19892">
        <ele>1080.18</ele>
        <time>2019-05-01T12:58:57Z</time>
      </trkpt>
      <trkpt lat="44.86084" lon="5.19896">
        <ele>1081.62</ele>
        <time>2019-05-01T12:59:09Z</time>
      </trkpt>
      <trkpt lat="44.8609" lon="5.19898">
        <ele>1082.1</ele>
        <time>2019-05-01T12:59:20Z</time>
      </trkpt>
      <trkpt lat="44.86103" lon="5.19905">
        <ele>1083.54</ele>
        <time>2019-05-01T12:59:36Z</time>
      </trkpt>
      <trkpt lat="44.86115" lon="5.19909">
        <ele>1084.99</ele>
        <time>2019-05-01T12:59:51Z</time>
      </trkpt>
      <trkpt lat="44.86124" lon="5.19908">
        <ele>1083.54</ele>
        <time>2019-05-01T13:00:04Z</time>
      </trkpt>
      <trkpt lat="44.86134" lon="5.19907">
        <ele>1082.58</ele>
        <time>2019-05-01T13:00:17Z</time>
      </trkpt>
      <trkpt lat="44.86152" lon="5.19907">
        <ele>1082.1</ele>
        <time>2019-05-01T13:00:36Z</time>
      </trkpt>
      <trkpt lat="44.86161" lon="5.19908">
        <ele>1083.54</ele>
        <time>2019-05-01T13:00:53Z</time>
      </trkpt>
      <trkpt lat="44.86161" lon="5.19908">
        <ele>1084.02</ele>
        <time>2019-05-01T13:00:54Z</time>
      </trkpt>
      <trkpt lat="44.86164" lon="5.19916">
        <ele>1085.95</ele>
        <time>2019-05-01T13:01:11Z</time>
      </trkpt>
      <trkpt lat="44.86171" lon="5.19921">
        <ele>1087.87</ele>
        <time>2019-05-01T13:01:24Z</time>
      </trkpt>
      <trkpt lat="44.86178" lon="5.19929">
        <ele>1088.83</ele>
        <time>2019-05-01T13:01:37Z</time>
      </trkpt>
      <trkpt lat="44.86187" lon="5.19942">
        <ele>1089.31</ele>
        <time>2019-05-01T13:01:54Z</time>
      </trkpt>
      <trkpt lat="44.86196" lon="5.19947">
        <ele>1090.27</ele>
        <time>2019-05-01T13:02:07Z</time>
      </trkpt>
      <trkpt lat="44.86206" lon="5.19954">
        <ele>1090.75</ele>
        <time>2019-05-01T13:02:20Z</time>
      </trkpt>
      <trkpt lat="44.86218" lon="5.19964">
        <ele>1092.2</ele>
        <time>2019-05-01T13:02:34Z</time>
      </trkpt>
      <trkpt lat="44.86223" lon="5.19966">
        <ele>1093.64</ele>
        <time>2019-05-01T13:02:40Z</time>
      </trkpt>
      <trkpt lat="44.8623" lon="5.19968">
        <ele>1093.16</ele>
        <time>2019-05-01T13:02:57Z</time>
      </trkpt>
      <trkpt lat="44.86242" lon="5.19966">
        <ele>1092.2</ele>
        <time>2019-05-01T13:03:09Z</time>
      </trkpt>
      <trkpt lat="44.86256" lon="5.19965">
        <ele>1090.75</ele>
        <time>2019-05-01T13:03:22Z</time>
      </trkpt>
      <trkpt lat="44.86255" lon="5.1997">
        <ele>1094.12</ele>
        <time>2019-05-01T13:03:43Z</time>
      </trkpt>
      <trkpt lat="44.86255" lon="5.1997">
        <ele>1087.87</ele>
        <time>2019-05-01T13:03:44Z</time>
      </trkpt>
      <trkpt lat="44.86255" lon="5.1997">
        <ele>1093.16</ele>
        <time>2019-05-01T13:03:45Z</time>
      </trkpt>
      <trkpt lat="44.86254" lon="5.19971">
        <ele>1091.23</ele>
        <time>2019-05-01T13:03:48Z</time>
      </trkpt>
      <trkpt lat="44.86258" lon="5.19968">
        <ele>1090.75</ele>
        <time>2019-05-01T13:04:05Z</time>
      </trkpt>
      <trkpt lat="44.86254" lon="5.19978">
        <ele>1088.35</ele>
        <time>2019-05-01T13:04:20Z</time>
      </trkpt>
      <trkpt lat="44.86256" lon="5.19978">
        <ele>1087.39</ele>
        <time>2019-05-01T13:04:22Z</time>
      </trkpt>
      <trkpt lat="44.86259" lon="5.1998">
        <ele>1086.91</ele>
        <time>2019-05-01T13:04:35Z</time>
      </trkpt>
      <trkpt lat="44.86259" lon="5.19981">
        <ele>1086.91</ele>
        <time>2019-05-01T13:05:01Z</time>
      </trkpt>
      <trkpt lat="44.86254" lon="5.19967">
        <ele>1089.31</ele>
        <time>2019-05-01T13:05:16Z</time>
      </trkpt>
      <trkpt lat="44.86264" lon="5.19957">
        <ele>1090.75</ele>
        <time>2019-05-01T13:05:32Z</time>
      </trkpt>
      <trkpt lat="44.86266" lon="5.19959">
        <ele>1093.64</ele>
        <time>2019-05-01T13:05:47Z</time>
      </trkpt>
      <trkpt lat="44.86273" lon="5.19963">
        <ele>1094.12</ele>
        <time>2019-05-01T13:06:02Z</time>
      </trkpt>
      <trkpt lat="44.86275" lon="5.19962">
        <ele>1097.48</ele>
        <time>2019-05-01T13:06:11Z</time>
      </trkpt>
      <trkpt lat="44.86282" lon="5.19964">
        <ele>1098.92</ele>
        <time>2019-05-01T13:06:25Z</time>
      </trkpt>
      <trkpt lat="44.86287" lon="5.19965">
        <ele>1100.37</ele>
        <time>2019-05-01T13:06:35Z</time>
      </trkpt>
      <trkpt lat="44.86287" lon="5.19964">
        <ele>1101.33</ele>
        <time>2019-05-01T13:06:48Z</time>
      </trkpt>
      <trkpt lat="44.86287" lon="5.19964">
        <ele>1101.81</ele>
        <time>2019-05-01T13:07:05Z</time>
      </trkpt>
      <trkpt lat="44.8629" lon="5.19968">
        <ele>1101.81</ele>
        <time>2019-05-01T13:07:24Z</time>
      </trkpt>
      <trkpt lat="44.86293" lon="5.19968">
        <ele>1102.77</ele>
        <time>2019-05-01T13:07:36Z</time>
      </trkpt>
      <trkpt lat="44.86296" lon="5.19971">
        <ele>1103.73</ele>
        <time>2019-05-01T13:07:41Z</time>
      </trkpt>
      <trkpt lat="44.86299" lon="5.19975">
        <ele>1104.69</ele>
        <time>2019-05-01T13:07:52Z</time>
      </trkpt>
      <trkpt lat="44.8631" lon="5.19978">
        <ele>1107.1</ele>
        <time>2019-05-01T13:08:04Z</time>
      </trkpt>
      <trkpt lat="44.86314" lon="5.19983">
        <ele>1109.02</ele>
        <time>2019-05-01T13:08:17Z</time>
      </trkpt>
      <trkpt lat="44.86321" lon="5.19988">
        <ele>1111.42</ele>
        <time>2019-05-01T13:08:32Z</time>
      </trkpt>
      <trkpt lat="44.8633" lon="5.19985">
        <ele>1112.38</ele>
        <time>2019-05-01T13:08:45Z</time>
      </trkpt>
      <trkpt lat="44.86337" lon="5.19984">
        <ele>1112.38</ele>
        <time>2019-05-01T13:08:57Z</time>
      </trkpt>
      <trkpt lat="44.86338" lon="5.19987">
        <ele>1112.86</ele>
        <time>2019-05-01T13:09:11Z</time>
      </trkpt>
      <trkpt lat="44.86342" lon="5.19991">
        <ele>1115.27</ele>
        <time>2019-05-01T13:09:27Z</time>
      </trkpt>
      <trkpt lat="44.86349" lon="5.19992">
        <ele>1115.75</ele>
        <time>2019-05-01T13:09:43Z</time>
      </trkpt>
      <trkpt lat="44.86349" lon="5.19995">
        <ele>1116.23</ele>
        <time>2019-05-01T13:10:01Z</time>
      </trkpt>
      <trkpt lat="44.86347" lon="5.20002">
        <ele>1118.15</ele>
        <time>2019-05-01T13:10:13Z</time>
      </trkpt>
      <trkpt lat="44.86346" lon="5.20008">
        <ele>1119.59</ele>
        <time>2019-05-01T13:10:26Z</time>
      </trkpt>
      <trkpt lat="44.86344" lon="5.20007">
        <ele>1121.03</ele>
        <time>2019-05-01T13:10:41Z</time>
      </trkpt>
      <trkpt lat="44.86342" lon="5.20011">
        <ele>1122.96</ele>
        <time>2019-05-01T13:10:56Z</time>
      </trkpt>
      <trkpt lat="44.86338" lon="5.20016">
        <ele>1123.92</ele>
        <time>2019-05-01T13:11:14Z</time>
      </trkpt>
      <trkpt lat="44.86338" lon="5.20021">
        <ele>1124.88</ele>
        <time>2019-05-01T13:11:24Z</time>
      </trkpt>
      <trkpt lat="44.86343" lon="5.20024">
        <ele>1126.32</ele>
        <time>2019-05-01T13:11:36Z</time>
      </trkpt>
      <trkpt lat="44.86347" lon="5.20029">
        <ele>1128.24</ele>
        <time>2019-05-01T13:11:48Z</time>
      </trkpt>
      <trkpt lat="44.8635" lon="5.20032">
        <ele>1129.69</ele>
        <time>2019-05-01T13:11:55Z</time>
      </trkpt>
      <trkpt lat="44.86358" lon="5.2003">
        <ele>1129.69</ele>
        <time>2019-05-01T13:12:09Z</time>
      </trkpt>
      <trkpt lat="44.86363" lon="5.20032">
        <ele>1129.21</ele>
        <time>2019-05-01T13:12:24Z</time>
      </trkpt>
      <trkpt lat="44.86369" lon="5.20035">
        <ele>1130.17</ele>
        <time>2019-05-01T13:12:37Z</time>
      </trkpt>
      <trkpt lat="44.86378" lon="5.20036">
        <ele>1128.73</ele>
        <time>2019-05-01T13:12:49Z</time>
      </trkpt>
      <trkpt lat="44.86388" lon="5.20037">
        <ele>1129.21</ele>
        <time>2019-05-01T13:13:00Z</time>
      </trkpt>
      <trkpt lat="44.86388" lon="5.20038">
        <ele>1129.21</ele>
        <time>2019-05-01T13:13:01Z</time>
      </trkpt>
      <trkpt lat="44.86388" lon="5.20042">
        <ele>1129.21</ele>
        <time>2019-05-01T13:13:16Z</time>
      </trkpt>
      <trkpt lat="44.86395" lon="5.20037">
        <ele>1128.73</ele>
        <time>2019-05-01T13:13:35Z</time>
      </trkpt>
      <trkpt lat="44.864" lon="5.2003">
        <ele>1125.84</ele>
        <time>2019-05-01T13:13:49Z</time>
      </trkpt>
      <trkpt lat="44.86401" lon="5.2003">
        <ele>1132.57</ele>
        <time>2019-05-01T13:13:50Z</time>
      </trkpt>
      <trkpt lat="44.86401" lon="5.20029">
        <ele>1129.21</ele>
        <time>2019-05-01T13:13:51Z</time>
      </trkpt>
      <trkpt lat="44.86403" lon="5.20027">
        <ele>1128.24</ele>
        <time>2019-05-01T13:14:10Z</time>
      </trkpt>
      <trkpt lat="44.8641" lon="5.20021">
        <ele>1125.36</ele>
        <time>2019-05-01T13:14:25Z</time>
      </trkpt>
      <trkpt lat="44.86414" lon="5.2002">
        <ele>1123.92</ele>
        <time>2019-05-01T13:14:33Z</time>
      </trkpt>
      <trkpt lat="44.86419" lon="5.20009">
        <ele>1120.55</ele>
        <time>2019-05-01T13:14:46Z</time>
      </trkpt>
      <trkpt lat="44.86424" lon="5.20004">
        <ele>1118.63</ele>
        <time>2019-05-01T13:14:57Z</time>
      </trkpt>
      <trkpt lat="44.86428" lon="5.19995">
        <ele>1116.71</ele>
        <time>2019-05-01T13:15:10Z</time>
      </trkpt>
      <trkpt lat="44.86433" lon="5.19985">
        <ele>1113.82</ele>
        <time>2019-05-01T13:15:22Z</time>
      </trkpt>
      <trkpt lat="44.8644" lon="5.19975">
        <ele>1110.46</ele>
        <time>2019-05-01T13:15:36Z</time>
      </trkpt>
      <trkpt lat="44.86445" lon="5.19971">
        <ele>1107.58</ele>
        <time>2019-05-01T13:15:49Z</time>
      </trkpt>
      <trkpt lat="44.86453" lon="5.19958">
        <ele>1104.69</ele>
        <time>2019-05-01T13:16:04Z</time>
      </trkpt>
      <trkpt lat="44.86454" lon="5.19955">
        <ele>1104.69</ele>
        <time>2019-05-01T13:16:22Z</time>
      </trkpt>
      <trkpt lat="44.86456" lon="5.19955">
        <ele>1102.29</ele>
        <time>2019-05-01T13:16:38Z</time>
      </trkpt>
      <trkpt lat="44.86457" lon="5.19958">
        <ele>1101.81</ele>
        <time>2019-05-01T13:16:56Z</time>
      </trkpt>
      <trkpt lat="44.8646" lon="5.19945">
        <ele>1098.44</ele>
        <time>2019-05-01T13:17:11Z</time>
      </trkpt>
      <trkpt lat="44.86464" lon="5.19944">
        <ele>1097.48</ele>
        <time>2019-05-01T13:17:28Z</time>
      </trkpt>
      <trkpt lat="44.86469" lon="5.19954">
        <ele>1097.48</ele>
        <time>2019-05-01T13:17:47Z</time>
      </trkpt>
      <trkpt lat="44.86474" lon="5.19943">
        <ele>1095.08</ele>
        <time>2019-05-01T13:18:02Z</time>
      </trkpt>
      <trkpt lat="44.86479" lon="5.19933">
        <ele>1092.68</ele>
        <time>2019-05-01T13:18:20Z</time>
      </trkpt>
      <trkpt lat="44.86479" lon="5.19925">
        <ele>1089.79</ele>
        <time>2019-05-01T13:18:32Z</time>
      </trkpt>
      <trkpt lat="44.86474" lon="5.19914">
        <ele>1085.47</ele>
        <time>2019-05-01T13:18:45Z</time>
      </trkpt>
      <trkpt lat="44.86474" lon="5.19912">
        <ele>1085.95</ele>
        <time>2019-05-01T13:18:46Z</time>
      </trkpt>
      <trkpt lat="44.86473" lon="5.19905">
        <ele>1083.54</ele>
        <time>2019-05-01T13:18:53Z</time>
      </trkpt>
      <trkpt lat="44.86475" lon="5.19896">
        <ele>1080.66</ele>
        <time>2019-05-01T13:19:05Z</time>
      </trkpt>
      <trkpt lat="44.86474" lon="5.19894">
        <ele>1082.58</ele>
        <time>2019-05-01T13:19:07Z</time>
      </trkpt>
      <trkpt lat="44.86474" lon="5.1989">
        <ele>1079.22</ele>
        <time>2019-05-01T13:19:10Z</time>
      </trkpt>
      <trkpt lat="44.86475" lon="5.19889">
        <ele>1081.14</ele>
        <time>2019-05-01T13:19:12Z</time>
      </trkpt>
      <trkpt lat="44.86473" lon="5.19878">
        <ele>1078.74</ele>
        <time>2019-05-01T13:19:22Z</time>
      </trkpt>
      <trkpt lat="44.86474" lon="5.19877">
        <ele>1078.74</ele>
        <time>2019-05-01T13:19:28Z</time>
      </trkpt>
      <trkpt lat="44.86476" lon="5.19877">
        <ele>1075.85</ele>
        <time>2019-05-01T13:19:34Z</time>
      </trkpt>
      <trkpt lat="44.86476" lon="5.19877">
        <ele>1078.74</ele>
        <time>2019-05-01T13:19:35Z</time>
      </trkpt>
      <trkpt lat="44.86478" lon="5.19877">
        <ele>1075.37</ele>
        <time>2019-05-01T13:19:41Z</time>
      </trkpt>
      <trkpt lat="44.86478" lon="5.19877">
        <ele>1079.22</ele>
        <time>2019-05-01T13:19:43Z</time>
      </trkpt>
      <trkpt lat="44.86481" lon="5.19874">
        <ele>1077.78</ele>
        <time>2019-05-01T13:19:56Z</time>
      </trkpt>
      <trkpt lat="44.86485" lon="5.19876">
        <ele>1077.78</ele>
        <time>2019-05-01T13:20:04Z</time>
      </trkpt>
      <trkpt lat="44.86468" lon="5.19866">
        <ele>1074.89</ele>
        <time>2019-05-01T13:20:19Z</time>
      </trkpt>
      <trkpt lat="44.86469" lon="5.19863">
        <ele>1078.26</ele>
        <time>2019-05-01T13:20:25Z</time>
      </trkpt>
      <trkpt lat="44.86473" lon="5.19863">
        <ele>1074.41</ele>
        <time>2019-05-01T13:20:31Z</time>
      </trkpt>
      <trkpt lat="44.86473" lon="5.19862">
        <ele>1075.37</ele>
        <time>2019-05-01T13:20:32Z</time>
      </trkpt>
      <trkpt lat="44.86474" lon="5.19857">
        <ele>1074.41</ele>
        <time>2019-05-01T13:20:39Z</time>
      </trkpt>
      <trkpt lat="44.86473" lon="5.19848">
        <ele>1069.6</ele>
        <time>2019-05-01T13:20:48Z</time>
      </trkpt>
      <trkpt lat="44.86473" lon="5.19848">
        <ele>1071.53</ele>
        <time>2019-05-01T13:20:49Z</time>
      </trkpt>
      <trkpt lat="44.86471" lon="5.19846">
        <ele>1070.08</ele>
        <time>2019-05-01T13:20:52Z</time>
      </trkpt>
      <trkpt lat="44.86468" lon="5.19844">
        <ele>1069.12</ele>
        <time>2019-05-01T13:20:58Z</time>
      </trkpt>
      <trkpt lat="44.86469" lon="5.19839">
        <ele>1065.28</ele>
        <time>2019-05-01T13:21:12Z</time>
      </trkpt>
      <trkpt lat="44.86469" lon="5.19838">
        <ele>1065.76</ele>
        <time>2019-05-01T13:21:13Z</time>
      </trkpt>
      <trkpt lat="44.86469" lon="5.19829">
        <ele>1062.39</ele>
        <time>2019-05-01T13:21:26Z</time>
      </trkpt>
      <trkpt lat="44.86468" lon="5.19821">
        <ele>1063.84</ele>
        <time>2019-05-01T13:21:33Z</time>
      </trkpt>
      <trkpt lat="44.86468" lon="5.19819">
        <ele>1062.39</ele>
        <time>2019-05-01T13:21:35Z</time>
      </trkpt>
      <trkpt lat="44.86467" lon="5.19811">
        <ele>1057.59</ele>
        <time>2019-05-01T13:21:43Z</time>
      </trkpt>
      <trkpt lat="44.86467" lon="5.1981">
        <ele>1058.55</ele>
        <time>2019-05-01T13:21:44Z</time>
      </trkpt>
      <trkpt lat="44.86466" lon="5.19793">
        <ele>1057.59</ele>
        <time>2019-05-01T13:21:59Z</time>
      </trkpt>
      <trkpt lat="44.86474" lon="5.19795">
        <ele>1057.59</ele>
        <time>2019-05-01T13:22:20Z</time>
      </trkpt>
      <trkpt lat="44.86474" lon="5.19793">
        <ele>1059.03</ele>
        <time>2019-05-01T13:22:23Z</time>
      </trkpt>
      <trkpt lat="44.8648" lon="5.19788">
        <ele>1059.03</ele>
        <time>2019-05-01T13:22:37Z</time>
      </trkpt>
      <trkpt lat="44.86476" lon="5.19783">
        <ele>1058.07</ele>
        <time>2019-05-01T13:22:48Z</time>
      </trkpt>
      <trkpt lat="44.86473" lon="5.19773">
        <ele>1054.7</ele>
        <time>2019-05-01T13:23:02Z</time>
      </trkpt>
      <trkpt lat="44.86473" lon="5.19771">
        <ele>1049.9</ele>
        <time>2019-05-01T13:23:06Z</time>
      </trkpt>
      <trkpt lat="44.86473" lon="5.1977">
        <ele>1060.47</ele>
        <time>2019-05-01T13:23:07Z</time>
      </trkpt>
      <trkpt lat="44.86473" lon="5.19769">
        <ele>1055.18</ele>
        <time>2019-05-01T13:23:08Z</time>
      </trkpt>
      <trkpt lat="44.86474" lon="5.19768">
        <ele>1059.03</ele>
        <time>2019-05-01T13:23:12Z</time>
      </trkpt>
      <trkpt lat="44.86473" lon="5.19768">
        <ele>1059.03</ele>
        <time>2019-05-01T13:23:13Z</time>
      </trkpt>
      <trkpt lat="44.86473" lon="5.19767">
        <ele>1055.18</ele>
        <time>2019-05-01T13:23:14Z</time>
      </trkpt>
      <trkpt lat="44.86473" lon="5.19764">
        <ele>1048.45</ele>
        <time>2019-05-01T13:23:19Z</time>
      </trkpt>
      <trkpt lat="44.86473" lon="5.19763">
        <ele>1060.95</ele>
        <time>2019-05-01T13:23:20Z</time>
      </trkpt>
      <trkpt lat="44.86472" lon="5.19763">
        <ele>1055.67</ele>
        <time>2019-05-01T13:23:21Z</time>
      </trkpt>
      <trkpt lat="44.86471" lon="5.19765">
        <ele>1052.78</ele>
        <time>2019-05-01T13:23:28Z</time>
      </trkpt>
      <trkpt lat="44.86472" lon="5.19766">
        <ele>1057.59</ele>
        <time>2019-05-01T13:23:29Z</time>
      </trkpt>
      <trkpt lat="44.86472" lon="5.19766">
        <ele>1054.22</ele>
        <time>2019-05-01T13:23:30Z</time>
      </trkpt>
      <trkpt lat="44.8647" lon="5.1976">
        <ele>1051.82</ele>
        <time>2019-05-01T13:23:37Z</time>
      </trkpt>
      <trkpt lat="44.86471" lon="5.19757">
        <ele>1050.86</ele>
        <time>2019-05-01T13:23:41Z</time>
      </trkpt>
      <trkpt lat="44.86471" lon="5.19751">
        <ele>1048.94</ele>
        <time>2019-05-01T13:23:48Z</time>
      </trkpt>
      <trkpt lat="44.86474" lon="5.19747">
        <ele>1047.01</ele>
        <time>2019-05-01T13:23:53Z</time>
      </trkpt>
      <trkpt lat="44.86474" lon="5.1974">
        <ele>1045.09</ele>
        <time>2019-05-01T13:24:02Z</time>
      </trkpt>
      <trkpt lat="44.86474" lon="5.19734">
        <ele>1043.65</ele>
        <time>2019-05-01T13:24:07Z</time>
      </trkpt>
      <trkpt lat="44.8648" lon="5.19721">
        <ele>1040.76</ele>
        <time>2019-05-01T13:24:21Z</time>
      </trkpt>
      <trkpt lat="44.86483" lon="5.1971">
        <ele>1037.88</ele>
        <time>2019-05-01T13:24:34Z</time>
      </trkpt>
      <trkpt lat="44.86483" lon="5.19693">
        <ele>1034.52</ele>
        <time>2019-05-01T13:24:48Z</time>
      </trkpt>
      <trkpt lat="44.86484" lon="5.19679">
        <ele>1032.59</ele>
        <time>2019-05-01T13:24:59Z</time>
      </trkpt>
      <trkpt lat="44.86481" lon="5.19674">
        <ele>1031.63</ele>
        <time>2019-05-01T13:25:15Z</time>
      </trkpt>
      <trkpt lat="44.86483" lon="5.19673">
        <ele>1031.63</ele>
        <time>2019-05-01T13:25:35Z</time>
      </trkpt>
      <trkpt lat="44.86484" lon="5.19672">
        <ele>1031.15</ele>
        <time>2019-05-01T13:25:37Z</time>
      </trkpt>
      <trkpt lat="44.86482" lon="5.19663">
        <ele>1030.19</ele>
        <time>2019-05-01T13:26:00Z</time>
      </trkpt>
      <trkpt lat="44.86488" lon="5.19655">
        <ele>1028.27</ele>
        <time>2019-05-01T13:26:12Z</time>
      </trkpt>
      <trkpt lat="44.86493" lon="5.19645">
        <ele>1024.9</ele>
        <time>2019-05-01T13:26:25Z</time>
      </trkpt>
      <trkpt lat="44.86501" lon="5.19636">
        <ele>1021.54</ele>
        <time>2019-05-01T13:26:38Z</time>
      </trkpt>
      <trkpt lat="44.86514" lon="5.19624">
        <ele>1020.58</ele>
        <time>2019-05-01T13:26:52Z</time>
      </trkpt>
      <trkpt lat="44.86518" lon="5.19619">
        <ele>1018.17</ele>
        <time>2019-05-01T13:27:00Z</time>
      </trkpt>
      <trkpt lat="44.86526" lon="5.1961">
        <ele>1015.29</ele>
        <time>2019-05-01T13:27:14Z</time>
      </trkpt>
      <trkpt lat="44.86531" lon="5.19601">
        <ele>1011.93</ele>
        <time>2019-05-01T13:27:25Z</time>
      </trkpt>
      <trkpt lat="44.86537" lon="5.19588">
        <ele>1009.04</ele>
        <time>2019-05-01T13:27:40Z</time>
      </trkpt>
      <trkpt lat="44.86537" lon="5.19587">
        <ele>1007.6</ele>
        <time>2019-05-01T13:27:42Z</time>
      </trkpt>
      <trkpt lat="44.86544" lon="5.19581">
        <ele>1005.2</ele>
        <time>2019-05-01T13:27:55Z</time>
      </trkpt>
      <trkpt lat="44.86549" lon="5.19582">
        <ele>1004.23</ele>
        <time>2019-05-01T13:28:07Z</time>
      </trkpt>
      <trkpt lat="44.86555" lon="5.19583">
        <ele>1001.83</ele>
        <time>2019-05-01T13:28:16Z</time>
      </trkpt>
      <trkpt lat="44.86562" lon="5.19584">
        <ele>999.91</ele>
        <time>2019-05-01T13:28:26Z</time>
      </trkpt>
      <trkpt lat="44.86574" lon="5.19586">
        <ele>997.99</ele>
        <time>2019-05-01T13:28:40Z</time>
      </trkpt>
      <trkpt lat="44.8658" lon="5.19586">
        <ele>996.54</ele>
        <time>2019-05-01T13:28:46Z</time>
      </trkpt>
      <trkpt lat="44.86593" lon="5.19585">
        <ele>993.66</ele>
        <time>2019-05-01T13:29:00Z</time>
      </trkpt>
      <trkpt lat="44.86602" lon="5.19586">
        <ele>992.7</ele>
        <time>2019-05-01T13:29:12Z</time>
      </trkpt>
      <trkpt lat="44.86614" lon="5.19582">
        <ele>989.33</ele>
        <time>2019-05-01T13:29:25Z</time>
      </trkpt>
      <trkpt lat="44.86615" lon="5.19581">
        <ele>989.33</ele>
        <time>2019-05-01T13:29:26Z</time>
      </trkpt>
      <trkpt lat="44.86621" lon="5.19574">
        <ele>985.49</ele>
        <time>2019-05-01T13:29:38Z</time>
      </trkpt>
      <trkpt lat="44.86628" lon="5.19571">
        <ele>982.6</ele>
        <time>2019-05-01T13:29:48Z</time>
      </trkpt>
      <trkpt lat="44.86634" lon="5.19566">
        <ele>982.12</ele>
        <time>2019-05-01T13:30:00Z</time>
      </trkpt>
      <trkpt lat="44.86636" lon="5.19565">
        <ele>977.8</ele>
        <time>2019-05-01T13:30:04Z</time>
      </trkpt>
      <trkpt lat="44.86636" lon="5.19564">
        <ele>978.28</ele>
        <time>2019-05-01T13:30:05Z</time>
      </trkpt>
      <trkpt lat="44.86637" lon="5.19563">
        <ele>976.84</ele>
        <time>2019-05-01T13:30:08Z</time>
      </trkpt>
      <trkpt lat="44.8664" lon="5.19559">
        <ele>975.88</ele>
        <time>2019-05-01T13:30:13Z</time>
      </trkpt>
      <trkpt lat="44.86646" lon="5.19555">
        <ele>972.51</ele>
        <time>2019-05-01T13:30:23Z</time>
      </trkpt>
      <trkpt lat="44.8665" lon="5.19552">
        <ele>971.55</ele>
        <time>2019-05-01T13:30:28Z</time>
      </trkpt>
      <trkpt lat="44.86653" lon="5.19551">
        <ele>971.07</ele>
        <time>2019-05-01T13:30:33Z</time>
      </trkpt>
      <trkpt lat="44.86653" lon="5.19549">
        <ele>972.03</ele>
        <time>2019-05-01T13:30:35Z</time>
      </trkpt>
      <trkpt lat="44.86654" lon="5.19546">
        <ele>965.78</ele>
        <time>2019-05-01T13:30:45Z</time>
      </trkpt>
      <trkpt lat="44.86654" lon="5.19546">
        <ele>975.88</ele>
        <time>2019-05-01T13:30:46Z</time>
      </trkpt>
      <trkpt lat="44.86654" lon="5.19546">
        <ele>969.63</ele>
        <time>2019-05-01T13:30:47Z</time>
      </trkpt>
      <trkpt lat="44.86654" lon="5.19546">
        <ele>972.99</ele>
        <time>2019-05-01T13:30:48Z</time>
      </trkpt>
      <trkpt lat="44.86653" lon="5.19546">
        <ele>969.63</ele>
        <time>2019-05-01T13:30:51Z</time>
      </trkpt>
      <trkpt lat="44.86653" lon="5.19545">
        <ele>975.88</ele>
        <time>2019-05-01T13:30:52Z</time>
      </trkpt>
      <trkpt lat="44.86653" lon="5.19545">
        <ele>972.99</ele>
        <time>2019-05-01T13:30:53Z</time>
      </trkpt>
      <trkpt lat="44.86653" lon="5.19544">
        <ele>971.07</ele>
        <time>2019-05-01T13:30:55Z</time>
      </trkpt>
      <trkpt lat="44.86659" lon="5.19541">
        <ele>972.03</ele>
        <time>2019-05-01T13:31:20Z</time>
      </trkpt>
      <trkpt lat="44.8666" lon="5.19544">
        <ele>970.59</ele>
        <time>2019-05-01T13:31:37Z</time>
      </trkpt>
      <trkpt lat="44.86659" lon="5.1954">
        <ele>967.7</ele>
        <time>2019-05-01T13:31:50Z</time>
      </trkpt>
      <trkpt lat="44.86665" lon="5.19537">
        <ele>965.78</ele>
        <time>2019-05-01T13:32:03Z</time>
      </trkpt>
      <trkpt lat="44.86673" lon="5.19532">
        <ele>962.9</ele>
        <time>2019-05-01T13:32:16Z</time>
      </trkpt>
      <trkpt lat="44.86678" lon="5.19527">
        <ele>960.01</ele>
        <time>2019-05-01T13:32:29Z</time>
      </trkpt>
      <trkpt lat="44.8668" lon="5.19523">
        <ele>959.53</ele>
        <time>2019-05-01T13:32:35Z</time>
      </trkpt>
      <trkpt lat="44.86682" lon="5.19524">
        <ele>956.65</ele>
        <time>2019-05-01T13:32:49Z</time>
      </trkpt>
      <trkpt lat="44.86678" lon="5.19528">
        <ele>957.61</ele>
        <time>2019-05-01T13:33:08Z</time>
      </trkpt>
      <trkpt lat="44.86683" lon="5.19521">
        <ele>956.65</ele>
        <time>2019-05-01T13:33:36Z</time>
      </trkpt>
      <trkpt lat="44.86683" lon="5.19521">
        <ele>956.17</ele>
        <time>2019-05-01T13:33:38Z</time>
      </trkpt>
      <trkpt lat="44.86687" lon="5.19508">
        <ele>952.8</ele>
        <time>2019-05-01T13:33:50Z</time>
      </trkpt>
      <trkpt lat="44.86688" lon="5.19507">
        <ele>952.8</ele>
        <time>2019-05-01T13:33:51Z</time>
      </trkpt>
      <trkpt lat="44.86691" lon="5.19504">
        <ele>951.84</ele>
        <time>2019-05-01T13:33:56Z</time>
      </trkpt>
      <trkpt lat="44.86697" lon="5.19503">
        <ele>949.44</ele>
        <time>2019-05-01T13:34:07Z</time>
      </trkpt>
      <trkpt lat="44.86703" lon="5.19498">
        <ele>948.96</ele>
        <time>2019-05-01T13:34:16Z</time>
      </trkpt>
      <trkpt lat="44.86704" lon="5.19495">
        <ele>946.56</ele>
        <time>2019-05-01T13:34:19Z</time>
      </trkpt>
      <trkpt lat="44.8671" lon="5.19485">
        <ele>944.63</ele>
        <time>2019-05-01T13:34:32Z</time>
      </trkpt>
      <trkpt lat="44.86711" lon="5.19479">
        <ele>942.71</ele>
        <time>2019-05-01T13:34:37Z</time>
      </trkpt>
      <trkpt lat="44.86708" lon="5.19472">
        <ele>940.31</ele>
        <time>2019-05-01T13:34:51Z</time>
      </trkpt>
      <trkpt lat="44.86702" lon="5.19462">
        <ele>936.94</ele>
        <time>2019-05-01T13:34:59Z</time>
      </trkpt>
      <trkpt lat="44.86701" lon="5.19457">
        <ele>939.35</ele>
        <time>2019-05-01T13:35:04Z</time>
      </trkpt>
      <trkpt lat="44.86701" lon="5.19455">
        <ele>938.38</ele>
        <time>2019-05-01T13:35:06Z</time>
      </trkpt>
      <trkpt lat="44.86695" lon="5.1945">
        <ele>935.5</ele>
        <time>2019-05-01T13:35:13Z</time>
      </trkpt>
      <trkpt lat="44.86694" lon="5.19449">
        <ele>935.5</ele>
        <time>2019-05-01T13:35:14Z</time>
      </trkpt>
      <trkpt lat="44.86691" lon="5.19446">
        <ele>936.46</ele>
        <time>2019-05-01T13:35:18Z</time>
      </trkpt>
      <trkpt lat="44.86686" lon="5.19442">
        <ele>932.62</ele>
        <time>2019-05-01T13:35:24Z</time>
      </trkpt>
      <trkpt lat="44.86679" lon="5.19427">
        <ele>930.69</ele>
        <time>2019-05-01T13:35:39Z</time>
      </trkpt>
      <trkpt lat="44.8668" lon="5.19427">
        <ele>929.73</ele>
        <time>2019-05-01T13:35:44Z</time>
      </trkpt>
      <trkpt lat="44.86688" lon="5.19425">
        <ele>928.29</ele>
        <time>2019-05-01T13:35:55Z</time>
      </trkpt>
      <trkpt lat="44.86696" lon="5.19421">
        <ele>925.89</ele>
        <time>2019-05-01T13:36:07Z</time>
      </trkpt>
      <trkpt lat="44.86707" lon="5.19417">
        <ele>923.48</ele>
        <time>2019-05-01T13:36:21Z</time>
      </trkpt>
      <trkpt lat="44.86707" lon="5.19417">
        <ele>923.48</ele>
        <time>2019-05-01T13:36:22Z</time>
      </trkpt>
      <trkpt lat="44.86714" lon="5.19414">
        <ele>923</ele>
        <time>2019-05-01T13:36:31Z</time>
      </trkpt>
      <trkpt lat="44.86718" lon="5.19414">
        <ele>921.08</ele>
        <time>2019-05-01T13:36:35Z</time>
      </trkpt>
      <trkpt lat="44.86727" lon="5.19407">
        <ele>919.16</ele>
        <time>2019-05-01T13:36:46Z</time>
      </trkpt>
      <trkpt lat="44.86739" lon="5.19404">
        <ele>917.72</ele>
        <time>2019-05-01T13:36:58Z</time>
      </trkpt>
      <trkpt lat="44.86749" lon="5.1941">
        <ele>915.79</ele>
        <time>2019-05-01T13:37:11Z</time>
      </trkpt>
      <trkpt lat="44.86755" lon="5.1942">
        <ele>913.39</ele>
        <time>2019-05-01T13:37:23Z</time>
      </trkpt>
      <trkpt lat="44.86765" lon="5.19424">
        <ele>913.39</ele>
        <time>2019-05-01T13:37:35Z</time>
      </trkpt>
      <trkpt lat="44.86773" lon="5.19411">
        <ele>913.87</ele>
        <time>2019-05-01T13:37:47Z</time>
      </trkpt>
      <trkpt lat="44.86774" lon="5.19405">
        <ele>912.91</ele>
        <time>2019-05-01T13:37:51Z</time>
      </trkpt>
      <trkpt lat="44.8678" lon="5.19396">
        <ele>911.95</ele>
        <time>2019-05-01T13:37:59Z</time>
      </trkpt>
      <trkpt lat="44.86792" lon="5.19393">
        <ele>910.99</ele>
        <time>2019-05-01T13:38:12Z</time>
      </trkpt>
      <trkpt lat="44.86801" lon="5.19386">
        <ele>910.03</ele>
        <time>2019-05-01T13:38:24Z</time>
      </trkpt>
      <trkpt lat="44.8681" lon="5.19383">
        <ele>908.58</ele>
        <time>2019-05-01T13:38:36Z</time>
      </trkpt>
      <trkpt lat="44.8682" lon="5.19378">
        <ele>907.62</ele>
        <time>2019-05-01T13:38:49Z</time>
      </trkpt>
      <trkpt lat="44.86832" lon="5.19373">
        <ele>905.7</ele>
        <time>2019-05-01T13:39:05Z</time>
      </trkpt>
      <trkpt lat="44.86842" lon="5.19368">
        <ele>903.78</ele>
        <time>2019-05-01T13:39:18Z</time>
      </trkpt>
      <trkpt lat="44.8685" lon="5.19364">
        <ele>903.3</ele>
        <time>2019-05-01T13:39:32Z</time>
      </trkpt>
      <trkpt lat="44.86856" lon="5.19359">
        <ele>902.82</ele>
        <time>2019-05-01T13:39:55Z</time>
      </trkpt>
      <trkpt lat="44.86857" lon="5.19358">
        <ele>903.3</ele>
        <time>2019-05-01T13:40:07Z</time>
      </trkpt>
      <trkpt lat="44.86861" lon="5.19358">
        <ele>900.89</ele>
        <time>2019-05-01T13:40:20Z</time>
      </trkpt>
      <trkpt lat="44.86861" lon="5.19357">
        <ele>900.89</ele>
        <time>2019-05-01T13:40:21Z</time>
      </trkpt>
      <trkpt lat="44.86868" lon="5.19346">
        <ele>899.45</ele>
        <time>2019-05-01T13:40:32Z</time>
      </trkpt>
      <trkpt lat="44.86874" lon="5.19339">
        <ele>896.57</ele>
        <time>2019-05-01T13:40:40Z</time>
      </trkpt>
      <trkpt lat="44.86886" lon="5.19336">
        <ele>895.12</ele>
        <time>2019-05-01T13:40:53Z</time>
      </trkpt>
      <trkpt lat="44.86894" lon="5.19322">
        <ele>892.72</ele>
        <time>2019-05-01T13:41:06Z</time>
      </trkpt>
      <trkpt lat="44.86895" lon="5.19306">
        <ele>892.72</ele>
        <time>2019-05-01T13:41:17Z</time>
      </trkpt>
      <trkpt lat="44.86893" lon="5.19299">
        <ele>891.76</ele>
        <time>2019-05-01T13:41:21Z</time>
      </trkpt>
      <trkpt lat="44.86892" lon="5.19282">
        <ele>890.8</ele>
        <time>2019-05-01T13:41:31Z</time>
      </trkpt>
      <trkpt lat="44.8689" lon="5.19278">
        <ele>890.32</ele>
        <time>2019-05-01T13:41:35Z</time>
      </trkpt>
      <trkpt lat="44.86882" lon="5.19267">
        <ele>888.88</ele>
        <time>2019-05-01T13:41:48Z</time>
      </trkpt>
      <trkpt lat="44.8688" lon="5.19261">
        <ele>888.88</ele>
        <time>2019-05-01T13:41:52Z</time>
      </trkpt>
      <trkpt lat="44.8687" lon="5.19249">
        <ele>887.43</ele>
        <time>2019-05-01T13:42:05Z</time>
      </trkpt>
      <trkpt lat="44.86862" lon="5.19242">
        <ele>885.51</ele>
        <time>2019-05-01T13:42:14Z</time>
      </trkpt>
      <trkpt lat="44.86855" lon="5.19241">
        <ele>884.55</ele>
        <time>2019-05-01T13:42:19Z</time>
      </trkpt>
      <trkpt lat="44.86843" lon="5.19235">
        <ele>882.15</ele>
        <time>2019-05-01T13:42:33Z</time>
      </trkpt>
      <trkpt lat="44.86833" lon="5.19229">
        <ele>880.71</ele>
        <time>2019-05-01T13:42:45Z</time>
      </trkpt>
      <trkpt lat="44.86824" lon="5.19221">
        <ele>878.3</ele>
        <time>2019-05-01T13:42:57Z</time>
      </trkpt>
      <trkpt lat="44.86813" lon="5.19213">
        <ele>875.9</ele>
        <time>2019-05-01T13:43:09Z</time>
      </trkpt>
      <trkpt lat="44.86801" lon="5.19197">
        <ele>873.5</ele>
        <time>2019-05-01T13:43:23Z</time>
      </trkpt>
      <trkpt lat="44.86801" lon="5.19193">
        <ele>873.01</ele>
        <time>2019-05-01T13:43:36Z</time>
      </trkpt>
      <trkpt lat="44.86808" lon="5.19189">
        <ele>873.01</ele>
        <time>2019-05-01T13:43:50Z</time>
      </trkpt>
      <trkpt lat="44.86821" lon="5.19188">
        <ele>871.09</ele>
        <time>2019-05-01T13:44:04Z</time>
      </trkpt>
      <trkpt lat="44.86831" lon="5.19183">
        <ele>868.21</ele>
        <time>2019-05-01T13:44:20Z</time>
      </trkpt>
      <trkpt lat="44.86844" lon="5.19177">
        <ele>865.32</ele>
        <time>2019-05-01T13:44:32Z</time>
      </trkpt>
      <trkpt lat="44.86855" lon="5.19162">
        <ele>863.4</ele>
        <time>2019-05-01T13:44:44Z</time>
      </trkpt>
      <trkpt lat="44.86865" lon="5.19158">
        <ele>861</ele>
        <time>2019-05-01T13:44:56Z</time>
      </trkpt>
      <trkpt lat="44.86876" lon="5.19146">
        <ele>857.15</ele>
        <time>2019-05-01T13:45:13Z</time>
      </trkpt>
      <trkpt lat="44.86891" lon="5.19135">
        <ele>851.87</ele>
        <time>2019-05-01T13:45:34Z</time>
      </trkpt>
      <trkpt lat="44.86893" lon="5.19133">
        <ele>862.44</ele>
        <time>2019-05-01T13:45:37Z</time>
      </trkpt>
      <trkpt lat="44.86894" lon="5.19132">
        <ele>855.71</ele>
        <time>2019-05-01T13:45:38Z</time>
      </trkpt>
      <trkpt lat="44.86898" lon="5.19129">
        <ele>852.35</ele>
        <time>2019-05-01T13:45:43Z</time>
      </trkpt>
      <trkpt lat="44.86907" lon="5.1912">
        <ele>850.9</ele>
        <time>2019-05-01T13:45:58Z</time>
      </trkpt>
      <trkpt lat="44.86918" lon="5.19111">
        <ele>849.46</ele>
        <time>2019-05-01T13:46:09Z</time>
      </trkpt>
      <trkpt lat="44.86929" lon="5.19107">
        <ele>848.02</ele>
        <time>2019-05-01T13:46:22Z</time>
      </trkpt>
      <trkpt lat="44.8694" lon="5.19112">
        <ele>847.06</ele>
        <time>2019-05-01T13:46:34Z</time>
      </trkpt>
      <trkpt lat="44.8695" lon="5.19114">
        <ele>845.14</ele>
        <time>2019-05-01T13:46:45Z</time>
      </trkpt>
      <trkpt lat="44.86967" lon="5.19112">
        <ele>843.69</ele>
        <time>2019-05-01T13:47:00Z</time>
      </trkpt>
      <trkpt lat="44.86968" lon="5.19112">
        <ele>843.21</ele>
        <time>2019-05-01T13:47:01Z</time>
      </trkpt>
      <trkpt lat="44.8698" lon="5.19113">
        <ele>842.25</ele>
        <time>2019-05-01T13:47:13Z</time>
      </trkpt>
      <trkpt lat="44.86992" lon="5.19117">
        <ele>841.29</ele>
        <time>2019-05-01T13:47:26Z</time>
      </trkpt>
      <trkpt lat="44.87005" lon="5.19119">
        <ele>841.29</ele>
        <time>2019-05-01T13:47:39Z</time>
      </trkpt>
      <trkpt lat="44.8701" lon="5.1912">
        <ele>840.81</ele>
        <time>2019-05-01T13:47:43Z</time>
      </trkpt>
      <trkpt lat="44.87024" lon="5.19123">
        <ele>840.81</ele>
        <time>2019-05-01T13:47:56Z</time>
      </trkpt>
      <trkpt lat="44.87027" lon="5.19123">
        <ele>840.81</ele>
        <time>2019-05-01T13:47:59Z</time>
      </trkpt>
      <trkpt lat="44.87046" lon="5.19125">
        <ele>841.77</ele>
        <time>2019-05-01T13:48:14Z</time>
      </trkpt>
      <trkpt lat="44.87058" lon="5.19125">
        <ele>841.29</ele>
        <time>2019-05-01T13:48:26Z</time>
      </trkpt>
      <trkpt lat="44.87073" lon="5.19127">
        <ele>842.25</ele>
        <time>2019-05-01T13:48:39Z</time>
      </trkpt>
      <trkpt lat="44.87084" lon="5.19127">
        <ele>841.77</ele>
        <time>2019-05-01T13:48:51Z</time>
      </trkpt>
      <trkpt lat="44.87093" lon="5.19129">
        <ele>841.29</ele>
        <time>2019-05-01T13:49:01Z</time>
      </trkpt>
      <trkpt lat="44.87105" lon="5.19131">
        <ele>841.77</ele>
        <time>2019-05-01T13:49:13Z</time>
      </trkpt>
      <trkpt lat="44.87109" lon="5.1913">
        <ele>841.77</ele>
        <time>2019-05-01T13:49:17Z</time>
      </trkpt>
      <trkpt lat="44.87121" lon="5.19125">
        <ele>840.81</ele>
        <time>2019-05-01T13:49:30Z</time>
      </trkpt>
      <trkpt lat="44.87135" lon="5.19121">
        <ele>840.33</ele>
        <time>2019-05-01T13:49:42Z</time>
      </trkpt>
      <trkpt lat="44.87147" lon="5.19119">
        <ele>839.37</ele>
        <time>2019-05-01T13:49:54Z</time>
      </trkpt>
      <trkpt lat="44.8716" lon="5.19118">
        <ele>838.89</ele>
        <time>2019-05-01T13:50:09Z</time>
      </trkpt>
      <trkpt lat="44.87173" lon="5.19116">
        <ele>837.93</ele>
        <time>2019-05-01T13:50:22Z</time>
      </trkpt>
      <trkpt lat="44.87187" lon="5.19115">
        <ele>837.45</ele>
        <time>2019-05-01T13:50:35Z</time>
      </trkpt>
      <trkpt lat="44.87208" lon="5.1911">
        <ele>837.93</ele>
        <time>2019-05-01T13:50:49Z</time>
      </trkpt>
      <trkpt lat="44.87213" lon="5.19109">
        <ele>838.41</ele>
        <time>2019-05-01T13:50:53Z</time>
      </trkpt>
      <trkpt lat="44.87226" lon="5.19115">
        <ele>837.45</ele>
        <time>2019-05-01T13:51:07Z</time>
      </trkpt>
      <trkpt lat="44.87234" lon="5.1911">
        <ele>836.96</ele>
        <time>2019-05-01T13:51:25Z</time>
      </trkpt>
      <trkpt lat="44.87244" lon="5.19107">
        <ele>836.48</ele>
        <time>2019-05-01T13:51:38Z</time>
      </trkpt>
      <trkpt lat="44.87254" lon="5.19104">
        <ele>836</ele>
        <time>2019-05-01T13:51:50Z</time>
      </trkpt>
      <trkpt lat="44.87267" lon="5.191">
        <ele>835.52</ele>
        <time>2019-05-01T13:52:02Z</time>
      </trkpt>
      <trkpt lat="44.87283" lon="5.19088">
        <ele>834.56</ele>
        <time>2019-05-01T13:52:17Z</time>
      </trkpt>
      <trkpt lat="44.87294" lon="5.19078">
        <ele>834.08</ele>
        <time>2019-05-01T13:52:30Z</time>
      </trkpt>
      <trkpt lat="44.87303" lon="5.1907">
        <ele>833.6</ele>
        <time>2019-05-01T13:52:41Z</time>
      </trkpt>
      <trkpt lat="44.87321" lon="5.19061">
        <ele>832.64</ele>
        <time>2019-05-01T13:52:55Z</time>
      </trkpt>
      <trkpt lat="44.87332" lon="5.19057">
        <ele>832.16</ele>
        <time>2019-05-01T13:53:05Z</time>
      </trkpt>
      <trkpt lat="44.87341" lon="5.19053">
        <ele>830.72</ele>
        <time>2019-05-01T13:53:15Z</time>
      </trkpt>
      <trkpt lat="44.87352" lon="5.19048">
        <ele>830.24</ele>
        <time>2019-05-01T13:53:24Z</time>
      </trkpt>
      <trkpt lat="44.87366" lon="5.19038">
        <ele>829.76</ele>
        <time>2019-05-01T13:53:36Z</time>
      </trkpt>
      <trkpt lat="44.87376" lon="5.19029">
        <ele>829.27</ele>
        <time>2019-05-01T13:53:47Z</time>
      </trkpt>
      <trkpt lat="44.87388" lon="5.19022">
        <ele>829.27</ele>
        <time>2019-05-01T13:54:00Z</time>
      </trkpt>
      <trkpt lat="44.87398" lon="5.19016">
        <ele>828.79</ele>
        <time>2019-05-01T13:54:11Z</time>
      </trkpt>
      <trkpt lat="44.87404" lon="5.19014">
        <ele>822.06</ele>
        <time>2019-05-01T13:54:16Z</time>
      </trkpt>
      <trkpt lat="44.87405" lon="5.19014">
        <ele>826.87</ele>
        <time>2019-05-01T13:54:17Z</time>
      </trkpt>
      <trkpt lat="44.87406" lon="5.19014">
        <ele>829.27</ele>
        <time>2019-05-01T13:54:18Z</time>
      </trkpt>
      <trkpt lat="44.87408" lon="5.19012">
        <ele>836.48</ele>
        <time>2019-05-01T13:54:20Z</time>
      </trkpt>
      <trkpt lat="44.87409" lon="5.19012">
        <ele>828.79</ele>
        <time>2019-05-01T13:54:21Z</time>
      </trkpt>
      <trkpt lat="44.87418" lon="5.19007">
        <ele>827.83</ele>
        <time>2019-05-01T13:54:29Z</time>
      </trkpt>
      <trkpt lat="44.87431" lon="5.18998">
        <ele>826.87</ele>
        <time>2019-05-01T13:54:43Z</time>
      </trkpt>
      <trkpt lat="44.87437" lon="5.18994">
        <ele>826.39</ele>
        <time>2019-05-01T13:54:49Z</time>
      </trkpt>
      <trkpt lat="44.87438" lon="5.18993">
        <ele>826.87</ele>
        <time>2019-05-01T13:54:50Z</time>
      </trkpt>
      <trkpt lat="44.87454" lon="5.18977">
        <ele>826.39</ele>
        <time>2019-05-01T13:55:05Z</time>
      </trkpt>
      <trkpt lat="44.87458" lon="5.18974">
        <ele>826.39</ele>
        <time>2019-05-01T13:55:09Z</time>
      </trkpt>
      <trkpt lat="44.87471" lon="5.18963">
        <ele>826.39</ele>
        <time>2019-05-01T13:55:22Z</time>
      </trkpt>
      <trkpt lat="44.87481" lon="5.18953">
        <ele>825.43</ele>
        <time>2019-05-01T13:55:34Z</time>
      </trkpt>
      <trkpt lat="44.87483" lon="5.18951">
        <ele>824.95</ele>
        <time>2019-05-01T13:55:40Z</time>
      </trkpt>
      <trkpt lat="44.87486" lon="5.18952">
        <ele>825.43</ele>
        <time>2019-05-01T13:56:00Z</time>
      </trkpt>
      <trkpt lat="44.87486" lon="5.18947">
        <ele>826.39</ele>
        <time>2019-05-01T13:56:09Z</time>
      </trkpt>
      <trkpt lat="44.87489" lon="5.18935">
        <ele>827.35</ele>
        <time>2019-05-01T13:56:24Z</time>
      </trkpt>
      <trkpt lat="44.8749" lon="5.1894">
        <ele>825.91</ele>
        <time>2019-05-01T13:56:46Z</time>
      </trkpt>
      <trkpt lat="44.87485" lon="5.18927">
        <ele>825.91</ele>
        <time>2019-05-01T13:56:56Z</time>
      </trkpt>
      <trkpt lat="44.87479" lon="5.1892">
        <ele>826.39</ele>
        <time>2019-05-01T13:57:04Z</time>
      </trkpt>
      <trkpt lat="44.87472" lon="5.18921">
        <ele>827.35</ele>
        <time>2019-05-01T13:57:11Z</time>
      </trkpt>
      <trkpt lat="44.8747" lon="5.18921">
        <ele>827.83</ele>
        <time>2019-05-01T13:57:13Z</time>
      </trkpt>
      <trkpt lat="44.87454" lon="5.18921">
        <ele>827.83</ele>
        <time>2019-05-01T13:57:26Z</time>
      </trkpt>
      <trkpt lat="44.87441" lon="5.18918">
        <ele>828.31</ele>
        <time>2019-05-01T13:57:40Z</time>
      </trkpt>
      <trkpt lat="44.87432" lon="5.18912">
        <ele>829.27</ele>
        <time>2019-05-01T13:57:49Z</time>
      </trkpt>
      <trkpt lat="44.87427" lon="5.18909">
        <ele>830.24</ele>
        <time>2019-05-01T13:57:54Z</time>
      </trkpt>
      <trkpt lat="44.87415" lon="5.18901">
        <ele>830.24</ele>
        <time>2019-05-01T13:58:07Z</time>
      </trkpt>
      <trkpt lat="44.87405" lon="5.18896">
        <ele>831.2</ele>
        <time>2019-05-01T13:58:18Z</time>
      </trkpt>
      <trkpt lat="44.87395" lon="5.18892">
        <ele>832.16</ele>
        <time>2019-05-01T13:58:28Z</time>
      </trkpt>
      <trkpt lat="44.87386" lon="5.18889">
        <ele>833.12</ele>
        <time>2019-05-01T13:58:38Z</time>
      </trkpt>
      <trkpt lat="44.87375" lon="5.18883">
        <ele>834.08</ele>
        <time>2019-05-01T13:58:50Z</time>
      </trkpt>
      <trkpt lat="44.87367" lon="5.18877">
        <ele>835.04</ele>
        <time>2019-05-01T13:58:59Z</time>
      </trkpt>
      <trkpt lat="44.87349" lon="5.18869">
        <ele>836</ele>
        <time>2019-05-01T13:59:14Z</time>
      </trkpt>
      <trkpt lat="44.87334" lon="5.18867">
        <ele>836.96</ele>
        <time>2019-05-01T13:59:26Z</time>
      </trkpt>
      <trkpt lat="44.8733" lon="5.18866">
        <ele>836.96</ele>
        <time>2019-05-01T13:59:36Z</time>
      </trkpt>
      <trkpt lat="44.8732" lon="5.18865">
        <ele>837.93</ele>
        <time>2019-05-01T13:59:48Z</time>
      </trkpt>
      <trkpt lat="44.87317" lon="5.18865">
        <ele>837.93</ele>
        <time>2019-05-01T13:59:51Z</time>
      </trkpt>
      <trkpt lat="44.87303" lon="5.1886">
        <ele>838.41</ele>
        <time>2019-05-01T14:00:05Z</time>
      </trkpt>
      <trkpt lat="44.87291" lon="5.18855">
        <ele>839.37</ele>
        <time>2019-05-01T14:00:19Z</time>
      </trkpt>
      <trkpt lat="44.87285" lon="5.1885">
        <ele>837.93</ele>
        <time>2019-05-01T14:00:30Z</time>
      </trkpt>
      <trkpt lat="44.87284" lon="5.1885">
        <ele>842.25</ele>
        <time>2019-05-01T14:00:31Z</time>
      </trkpt>
      <trkpt lat="44.87283" lon="5.18836">
        <ele>841.77</ele>
        <time>2019-05-01T14:00:46Z</time>
      </trkpt>
      <trkpt lat="44.8729" lon="5.18831">
        <ele>842.73</ele>
        <time>2019-05-01T14:01:03Z</time>
      </trkpt>
      <trkpt lat="44.8729" lon="5.18836">
        <ele>842.25</ele>
        <time>2019-05-01T14:01:21Z</time>
      </trkpt>
      <trkpt lat="44.8729" lon="5.18835">
        <ele>842.25</ele>
        <time>2019-05-01T14:01:32Z</time>
      </trkpt>
      <trkpt lat="44.87301" lon="5.18831">
        <ele>843.21</ele>
        <time>2019-05-01T14:01:45Z</time>
      </trkpt>
      <trkpt lat="44.87306" lon="5.18829">
        <ele>843.69</ele>
        <time>2019-05-01T14:01:50Z</time>
      </trkpt>
      <trkpt lat="44.87308" lon="5.18829">
        <ele>843.69</ele>
        <time>2019-05-01T14:01:52Z</time>
      </trkpt>
      <trkpt lat="44.8731" lon="5.18828">
        <ele>843.69</ele>
        <time>2019-05-01T14:01:54Z</time>
      </trkpt>
      <trkpt lat="44.87321" lon="5.18823">
        <ele>844.18</ele>
        <time>2019-05-01T14:02:07Z</time>
      </trkpt>
      <trkpt lat="44.87331" lon="5.18818">
        <ele>845.14</ele>
        <time>2019-05-01T14:02:19Z</time>
      </trkpt>
      <trkpt lat="44.87342" lon="5.18816">
        <ele>846.58</ele>
        <time>2019-05-01T14:02:30Z</time>
      </trkpt>
      <trkpt lat="44.87354" lon="5.18815">
        <ele>846.58</ele>
        <time>2019-05-01T14:02:40Z</time>
      </trkpt>
      <trkpt lat="44.87365" lon="5.1881">
        <ele>847.54</ele>
        <time>2019-05-01T14:02:52Z</time>
      </trkpt>
      <trkpt lat="44.87376" lon="5.18797">
        <ele>848.98</ele>
        <time>2019-05-01T14:03:03Z</time>
      </trkpt>
      <trkpt lat="44.87385" lon="5.18785">
        <ele>848.98</ele>
        <time>2019-05-01T14:03:15Z</time>
      </trkpt>
      <trkpt lat="44.87395" lon="5.18774">
        <ele>848.98</ele>
        <time>2019-05-01T14:03:26Z</time>
      </trkpt>
      <trkpt lat="44.87402" lon="5.18767">
        <ele>849.46</ele>
        <time>2019-05-01T14:03:33Z</time>
      </trkpt>
      <trkpt lat="44.87412" lon="5.18749">
        <ele>849.94</ele>
        <time>2019-05-01T14:03:45Z</time>
      </trkpt>
      <trkpt lat="44.87414" lon="5.18747">
        <ele>850.42</ele>
        <time>2019-05-01T14:03:48Z</time>
      </trkpt>
      <trkpt lat="44.87418" lon="5.18746">
        <ele>850.42</ele>
        <time>2019-05-01T14:03:51Z</time>
      </trkpt>
      <trkpt lat="44.87427" lon="5.1874">
        <ele>850.9</ele>
        <time>2019-05-01T14:04:02Z</time>
      </trkpt>
      <trkpt lat="44.87438" lon="5.18733">
        <ele>851.38</ele>
        <time>2019-05-01T14:04:15Z</time>
      </trkpt>
      <trkpt lat="44.87448" lon="5.18723">
        <ele>851.87</ele>
        <time>2019-05-01T14:04:28Z</time>
      </trkpt>
      <trkpt lat="44.87457" lon="5.18721">
        <ele>852.83</ele>
        <time>2019-05-01T14:04:39Z</time>
      </trkpt>
      <trkpt lat="44.87461" lon="5.18712">
        <ele>852.83</ele>
        <time>2019-05-01T14:04:49Z</time>
      </trkpt>
      <trkpt lat="44.87461" lon="5.1871">
        <ele>853.31</ele>
        <time>2019-05-01T14:04:57Z</time>
      </trkpt>
      <trkpt lat="44.87471" lon="5.18707">
        <ele>854.27</ele>
        <time>2019-05-01T14:05:08Z</time>
      </trkpt>
      <trkpt lat="44.87478" lon="5.18703">
        <ele>854.27</ele>
        <time>2019-05-01T14:05:16Z</time>
      </trkpt>
      <trkpt lat="44.87486" lon="5.18698">
        <ele>855.71</ele>
        <time>2019-05-01T14:05:27Z</time>
      </trkpt>
      <trkpt lat="44.87488" lon="5.18697">
        <ele>854.27</ele>
        <time>2019-05-01T14:05:28Z</time>
      </trkpt>
      <trkpt lat="44.87497" lon="5.18691">
        <ele>855.71</ele>
        <time>2019-05-01T14:05:39Z</time>
      </trkpt>
      <trkpt lat="44.87498" lon="5.1869">
        <ele>856.67</ele>
        <time>2019-05-01T14:05:40Z</time>
      </trkpt>
      <trkpt lat="44.87509" lon="5.18683">
        <ele>856.67</ele>
        <time>2019-05-01T14:05:53Z</time>
      </trkpt>
      <trkpt lat="44.87518" lon="5.18677">
        <ele>857.15</ele>
        <time>2019-05-01T14:06:06Z</time>
      </trkpt>
      <trkpt lat="44.87528" lon="5.1867">
        <ele>858.59</ele>
        <time>2019-05-01T14:06:20Z</time>
      </trkpt>
      <trkpt lat="44.8754" lon="5.18661">
        <ele>859.56</ele>
        <time>2019-05-01T14:06:31Z</time>
      </trkpt>
      <trkpt lat="44.87549" lon="5.18653">
        <ele>860.04</ele>
        <time>2019-05-01T14:06:43Z</time>
      </trkpt>
      <trkpt lat="44.87559" lon="5.18643">
        <ele>860.52</ele>
        <time>2019-05-01T14:06:55Z</time>
      </trkpt>
      <trkpt lat="44.87573" lon="5.18641">
        <ele>861.96</ele>
        <time>2019-05-01T14:07:08Z</time>
      </trkpt>
      <trkpt lat="44.87585" lon="5.18637">
        <ele>862.44</ele>
        <time>2019-05-01T14:07:22Z</time>
      </trkpt>
      <trkpt lat="44.87597" lon="5.18633">
        <ele>862.92</ele>
        <time>2019-05-01T14:07:36Z</time>
      </trkpt>
      <trkpt lat="44.87609" lon="5.18628">
        <ele>863.88</ele>
        <time>2019-05-01T14:07:50Z</time>
      </trkpt>
      <trkpt lat="44.87618" lon="5.18622">
        <ele>863.88</ele>
        <time>2019-05-01T14:08:02Z</time>
      </trkpt>
      <trkpt lat="44.87632" lon="5.18619">
        <ele>865.32</ele>
        <time>2019-05-01T14:08:16Z</time>
      </trkpt>
      <trkpt lat="44.87641" lon="5.18615">
        <ele>866.29</ele>
        <time>2019-05-01T14:08:29Z</time>
      </trkpt>
      <trkpt lat="44.87655" lon="5.1861">
        <ele>866.77</ele>
        <time>2019-05-01T14:08:46Z</time>
      </trkpt>
      <trkpt lat="44.87668" lon="5.18599">
        <ele>869.17</ele>
        <time>2019-05-01T14:09:03Z</time>
      </trkpt>
      <trkpt lat="44.8768" lon="5.18594">
        <ele>869.65</ele>
        <time>2019-05-01T14:09:17Z</time>
      </trkpt>
      <trkpt lat="44.87683" lon="5.18593">
        <ele>870.61</ele>
        <time>2019-05-01T14:09:20Z</time>
      </trkpt>
      <trkpt lat="44.87692" lon="5.18582">
        <ele>872.05</ele>
        <time>2019-05-01T14:09:34Z</time>
      </trkpt>
      <trkpt lat="44.87703" lon="5.1857">
        <ele>871.57</ele>
        <time>2019-05-01T14:09:50Z</time>
      </trkpt>
      <trkpt lat="44.87718" lon="5.18574">
        <ele>872.05</ele>
        <time>2019-05-01T14:10:03Z</time>
      </trkpt>
      <trkpt lat="44.87729" lon="5.18583">
        <ele>873.98</ele>
        <time>2019-05-01T14:10:17Z</time>
      </trkpt>
      <trkpt lat="44.87739" lon="5.18593">
        <ele>874.46</ele>
        <time>2019-05-01T14:10:31Z</time>
      </trkpt>
      <trkpt lat="44.87752" lon="5.18602">
        <ele>876.86</ele>
        <time>2019-05-01T14:10:45Z</time>
      </trkpt>
      <trkpt lat="44.87767" lon="5.18608">
        <ele>876.38</ele>
        <time>2019-05-01T14:10:59Z</time>
      </trkpt>
      <trkpt lat="44.87779" lon="5.18614">
        <ele>877.82</ele>
        <time>2019-05-01T14:11:14Z</time>
      </trkpt>
      <trkpt lat="44.87782" lon="5.18614">
        <ele>876.38</ele>
        <time>2019-05-01T14:11:21Z</time>
      </trkpt>
      <trkpt lat="44.87784" lon="5.18615">
        <ele>877.82</ele>
        <time>2019-05-01T14:11:38Z</time>
      </trkpt>
      <trkpt lat="44.87785" lon="5.18615">
        <ele>878.78</ele>
        <time>2019-05-01T14:11:47Z</time>
      </trkpt>
      <trkpt lat="44.87784" lon="5.18615">
        <ele>875.9</ele>
        <time>2019-05-01T14:11:52Z</time>
      </trkpt>
      <trkpt lat="44.87784" lon="5.18615">
        <ele>879.26</ele>
        <time>2019-05-01T14:11:53Z</time>
      </trkpt>
      <trkpt lat="44.87784" lon="5.18615">
        <ele>878.3</ele>
        <time>2019-05-01T14:11:54Z</time>
      </trkpt>
      <trkpt lat="44.87788" lon="5.18616">
        <ele>877.34</ele>
        <time>2019-05-01T14:12:01Z</time>
      </trkpt>
      <trkpt lat="44.8779" lon="5.18616">
        <ele>877.82</ele>
        <time>2019-05-01T14:12:04Z</time>
      </trkpt>
      <trkpt lat="44.87794" lon="5.18617">
        <ele>878.78</ele>
        <time>2019-05-01T14:12:08Z</time>
      </trkpt>
      <trkpt lat="44.87797" lon="5.18617">
        <ele>878.78</ele>
        <time>2019-05-01T14:12:11Z</time>
      </trkpt>
      <trkpt lat="44.87802" lon="5.18616">
        <ele>879.74</ele>
        <time>2019-05-01T14:12:17Z</time>
      </trkpt>
      <trkpt lat="44.87806" lon="5.18619">
        <ele>879.74</ele>
        <time>2019-05-01T14:12:33Z</time>
      </trkpt>
      <trkpt lat="44.87805" lon="5.18618">
        <ele>879.74</ele>
        <time>2019-05-01T14:12:58Z</time>
      </trkpt>
      <trkpt lat="44.87807" lon="5.1862">
        <ele>879.74</ele>
        <time>2019-05-01T14:13:20Z</time>
      </trkpt>
      <trkpt lat="44.87818" lon="5.1862">
        <ele>880.71</ele>
        <time>2019-05-01T14:13:29Z</time>
      </trkpt>
      <trkpt lat="44.87821" lon="5.18621">
        <ele>880.22</ele>
        <time>2019-05-01T14:13:33Z</time>
      </trkpt>
      <trkpt lat="44.87836" lon="5.18621">
        <ele>881.19</ele>
        <time>2019-05-01T14:13:48Z</time>
      </trkpt>
      <trkpt lat="44.8785" lon="5.1862">
        <ele>883.11</ele>
        <time>2019-05-01T14:14:01Z</time>
      </trkpt>
      <trkpt lat="44.87864" lon="5.18621">
        <ele>883.11</ele>
        <time>2019-05-01T14:14:14Z</time>
      </trkpt>
      <trkpt lat="44.8787" lon="5.18621">
        <ele>884.07</ele>
        <time>2019-05-01T14:14:22Z</time>
      </trkpt>
      <trkpt lat="44.87871" lon="5.18622">
        <ele>884.55</ele>
        <time>2019-05-01T14:14:24Z</time>
      </trkpt>
      <trkpt lat="44.87885" lon="5.18622">
        <ele>885.51</ele>
        <time>2019-05-01T14:14:37Z</time>
      </trkpt>
      <trkpt lat="44.87893" lon="5.1862">
        <ele>886.47</ele>
        <time>2019-05-01T14:14:48Z</time>
      </trkpt>
      <trkpt lat="44.87904" lon="5.1862">
        <ele>886.47</ele>
        <time>2019-05-01T14:15:01Z</time>
      </trkpt>
      <trkpt lat="44.87914" lon="5.18623">
        <ele>886.47</ele>
        <time>2019-05-01T14:15:10Z</time>
      </trkpt>
      <trkpt lat="44.87919" lon="5.18626">
        <ele>886.95</ele>
        <time>2019-05-01T14:15:15Z</time>
      </trkpt>
      <trkpt lat="44.8792" lon="5.18627">
        <ele>885.51</ele>
        <time>2019-05-01T14:15:16Z</time>
      </trkpt>
      <trkpt lat="44.87934" lon="5.18637">
        <ele>886.47</ele>
        <time>2019-05-01T14:15:32Z</time>
      </trkpt>
      <trkpt lat="44.87947" lon="5.18647">
        <ele>887.43</ele>
        <time>2019-05-01T14:15:45Z</time>
      </trkpt>
      <trkpt lat="44.87958" lon="5.18653">
        <ele>887.43</ele>
        <time>2019-05-01T14:16:01Z</time>
      </trkpt>
      <trkpt lat="44.87965" lon="5.18649">
        <ele>887.91</ele>
        <time>2019-05-01T14:16:12Z</time>
      </trkpt>
      <trkpt lat="44.87977" lon="5.1865">
        <ele>889.84</ele>
        <time>2019-05-01T14:16:25Z</time>
      </trkpt>
      <trkpt lat="44.87989" lon="5.18656">
        <ele>890.8</ele>
        <time>2019-05-01T14:16:40Z</time>
      </trkpt>
      <trkpt lat="44.87994" lon="5.18656">
        <ele>890.32</ele>
        <time>2019-05-01T14:16:46Z</time>
      </trkpt>
      <trkpt lat="44.87995" lon="5.18656">
        <ele>891.76</ele>
        <time>2019-05-01T14:16:47Z</time>
      </trkpt>
      <trkpt lat="44.88" lon="5.18657">
        <ele>892.24</ele>
        <time>2019-05-01T14:16:52Z</time>
      </trkpt>
      <trkpt lat="44.88003" lon="5.18656">
        <ele>892.72</ele>
        <time>2019-05-01T14:16:55Z</time>
      </trkpt>
      <trkpt lat="44.88017" lon="5.18659">
        <ele>892.72</ele>
        <time>2019-05-01T14:17:09Z</time>
      </trkpt>
      <trkpt lat="44.88027" lon="5.1866">
        <ele>893.68</ele>
        <time>2019-05-01T14:17:20Z</time>
      </trkpt>
      <trkpt lat="44.88035" lon="5.1866">
        <ele>895.12</ele>
        <time>2019-05-01T14:17:29Z</time>
      </trkpt>
      <trkpt lat="44.88039" lon="5.18652">
        <ele>895.12</ele>
        <time>2019-05-01T14:17:34Z</time>
      </trkpt>
      <trkpt lat="44.88039" lon="5.18652">
        <ele>896.57</ele>
        <time>2019-05-01T14:17:35Z</time>
      </trkpt>
      <trkpt lat="44.88039" lon="5.18651">
        <ele>895.12</ele>
        <time>2019-05-01T14:17:38Z</time>
      </trkpt>
      <trkpt lat="44.88043" lon="5.18651">
        <ele>895.61</ele>
        <time>2019-05-01T14:17:45Z</time>
      </trkpt>
      <trkpt lat="44.88051" lon="5.18649">
        <ele>896.57</ele>
        <time>2019-05-01T14:17:57Z</time>
      </trkpt>
      <trkpt lat="44.8805" lon="5.18645">
        <ele>898.49</ele>
        <time>2019-05-01T14:18:01Z</time>
      </trkpt>
      <trkpt lat="44.88045" lon="5.18632">
        <ele>899.93</ele>
        <time>2019-05-01T14:18:12Z</time>
      </trkpt>
      <trkpt lat="44.88044" lon="5.18629">
        <ele>900.41</ele>
        <time>2019-05-01T14:18:16Z</time>
      </trkpt>
      <trkpt lat="44.88044" lon="5.18628">
        <ele>898.97</ele>
        <time>2019-05-01T14:18:17Z</time>
      </trkpt>
      <trkpt lat="44.88045" lon="5.18627">
        <ele>900.41</ele>
        <time>2019-05-01T14:18:18Z</time>
      </trkpt>
      <trkpt lat="44.88046" lon="5.18626">
        <ele>901.37</ele>
        <time>2019-05-01T14:18:20Z</time>
      </trkpt>
      <trkpt lat="44.8805" lon="5.18622">
        <ele>902.82</ele>
        <time>2019-05-01T14:18:31Z</time>
      </trkpt>
      <trkpt lat="44.8806" lon="5.18618">
        <ele>904.74</ele>
        <time>2019-05-01T14:18:43Z</time>
      </trkpt>
      <trkpt lat="44.88062" lon="5.18612">
        <ele>906.18</ele>
        <time>2019-05-01T14:18:48Z</time>
      </trkpt>
      <trkpt lat="44.88069" lon="5.18606">
        <ele>907.62</ele>
        <time>2019-05-01T14:18:57Z</time>
      </trkpt>
      <trkpt lat="44.88068" lon="5.186">
        <ele>907.62</ele>
        <time>2019-05-01T14:19:01Z</time>
      </trkpt>
      <trkpt lat="44.88071" lon="5.18594">
        <ele>905.22</ele>
        <time>2019-05-01T14:19:06Z</time>
      </trkpt>
      <trkpt lat="44.88072" lon="5.18593">
        <ele>909.06</ele>
        <time>2019-05-01T14:19:07Z</time>
      </trkpt>
      <trkpt lat="44.88073" lon="5.18588">
        <ele>901.85</ele>
        <time>2019-05-01T14:19:11Z</time>
      </trkpt>
      <trkpt lat="44.88073" lon="5.18588">
        <ele>914.35</ele>
        <time>2019-05-01T14:19:12Z</time>
      </trkpt>
      <trkpt lat="44.88074" lon="5.18586">
        <ele>908.1</ele>
        <time>2019-05-01T14:19:13Z</time>
      </trkpt>
      <trkpt lat="44.88074" lon="5.18585">
        <ele>909.06</ele>
        <time>2019-05-01T14:19:14Z</time>
      </trkpt>
      <trkpt lat="44.8807" lon="5.18561">
        <ele>908.58</ele>
        <time>2019-05-01T14:19:28Z</time>
      </trkpt>
      <trkpt lat="44.8808" lon="5.18547">
        <ele>908.1</ele>
        <time>2019-05-01T14:19:42Z</time>
      </trkpt>
      <trkpt lat="44.88082" lon="5.18542">
        <ele>909.06</ele>
        <time>2019-05-01T14:19:57Z</time>
      </trkpt>
      <trkpt lat="44.88094" lon="5.18536">
        <ele>906.66</ele>
        <time>2019-05-01T14:20:13Z</time>
      </trkpt>
      <trkpt lat="44.88103" lon="5.18522">
        <ele>905.7</ele>
        <time>2019-05-01T14:20:26Z</time>
      </trkpt>
      <trkpt lat="44.88113" lon="5.18509">
        <ele>905.7</ele>
        <time>2019-05-01T14:20:39Z</time>
      </trkpt>
      <trkpt lat="44.88125" lon="5.18492">
        <ele>904.26</ele>
        <time>2019-05-01T14:20:54Z</time>
      </trkpt>
      <trkpt lat="44.88133" lon="5.1848">
        <ele>904.74</ele>
        <time>2019-05-01T14:21:05Z</time>
      </trkpt>
      <trkpt lat="44.88133" lon="5.18479">
        <ele>904.74</ele>
        <time>2019-05-01T14:21:06Z</time>
      </trkpt>
      <trkpt lat="44.88144" lon="5.18468">
        <ele>904.26</ele>
        <time>2019-05-01T14:21:19Z</time>
      </trkpt>
      <trkpt lat="44.88154" lon="5.18457">
        <ele>904.26</ele>
        <time>2019-05-01T14:21:30Z</time>
      </trkpt>
      <trkpt lat="44.88158" lon="5.18452">
        <ele>903.78</ele>
        <time>2019-05-01T14:21:35Z</time>
      </trkpt>
      <trkpt lat="44.88169" lon="5.18439">
        <ele>904.74</ele>
        <time>2019-05-01T14:21:46Z</time>
      </trkpt>
      <trkpt lat="44.88174" lon="5.18435">
        <ele>902.82</ele>
        <time>2019-05-01T14:21:50Z</time>
      </trkpt>
      <trkpt lat="44.88185" lon="5.18428">
        <ele>904.26</ele>
        <time>2019-05-01T14:22:02Z</time>
      </trkpt>
      <trkpt lat="44.88189" lon="5.18426">
        <ele>903.78</ele>
        <time>2019-05-01T14:22:05Z</time>
      </trkpt>
      <trkpt lat="44.88194" lon="5.18421">
        <ele>904.74</ele>
        <time>2019-05-01T14:22:12Z</time>
      </trkpt>
      <trkpt lat="44.88198" lon="5.18417">
        <ele>904.74</ele>
        <time>2019-05-01T14:22:16Z</time>
      </trkpt>
      <trkpt lat="44.88203" lon="5.1841">
        <ele>905.22</ele>
        <time>2019-05-01T14:22:24Z</time>
      </trkpt>
      <trkpt lat="44.88213" lon="5.18401">
        <ele>904.74</ele>
        <time>2019-05-01T14:22:35Z</time>
      </trkpt>
      <trkpt lat="44.88222" lon="5.18393">
        <ele>905.7</ele>
        <time>2019-05-01T14:22:48Z</time>
      </trkpt>
      <trkpt lat="44.88236" lon="5.18378">
        <ele>906.18</ele>
        <time>2019-05-01T14:22:59Z</time>
      </trkpt>
      <trkpt lat="44.88245" lon="5.18368">
        <ele>906.18</ele>
        <time>2019-05-01T14:23:12Z</time>
      </trkpt>
      <trkpt lat="44.88257" lon="5.18355">
        <ele>906.66</ele>
        <time>2019-05-01T14:23:27Z</time>
      </trkpt>
      <trkpt lat="44.88259" lon="5.18354">
        <ele>906.18</ele>
        <time>2019-05-01T14:23:29Z</time>
      </trkpt>
      <trkpt lat="44.88268" lon="5.18345">
        <ele>906.18</ele>
        <time>2019-05-01T14:23:41Z</time>
      </trkpt>
      <trkpt lat="44.88278" lon="5.18337">
        <ele>905.7</ele>
        <time>2019-05-01T14:23:51Z</time>
      </trkpt>
      <trkpt lat="44.88291" lon="5.18347">
        <ele>906.18</ele>
        <time>2019-05-01T14:24:05Z</time>
      </trkpt>
      <trkpt lat="44.88291" lon="5.1836">
        <ele>907.62</ele>
        <time>2019-05-01T14:24:17Z</time>
      </trkpt>
      <trkpt lat="44.88292" lon="5.18376">
        <ele>909.06</ele>
        <time>2019-05-01T14:24:31Z</time>
      </trkpt>
      <trkpt lat="44.88291" lon="5.18387">
        <ele>910.51</ele>
        <time>2019-05-01T14:24:38Z</time>
      </trkpt>
      <trkpt lat="44.8829" lon="5.18403">
        <ele>911.95</ele>
        <time>2019-05-01T14:24:52Z</time>
      </trkpt>
      <trkpt lat="44.8829" lon="5.18413">
        <ele>913.39</ele>
        <time>2019-05-01T14:24:59Z</time>
      </trkpt>
      <trkpt lat="44.88288" lon="5.18421">
        <ele>911.95</ele>
        <time>2019-05-01T14:25:06Z</time>
      </trkpt>
      <trkpt lat="44.88289" lon="5.18423">
        <ele>914.35</ele>
        <time>2019-05-01T14:25:08Z</time>
      </trkpt>
      <trkpt lat="44.88286" lon="5.18436">
        <ele>914.83</ele>
        <time>2019-05-01T14:25:21Z</time>
      </trkpt>
      <trkpt lat="44.88281" lon="5.18451">
        <ele>914.83</ele>
        <time>2019-05-01T14:25:34Z</time>
      </trkpt>
      <trkpt lat="44.88278" lon="5.18456">
        <ele>917.72</ele>
        <time>2019-05-01T14:25:49Z</time>
      </trkpt>
      <trkpt lat="44.88279" lon="5.18455">
        <ele>912.91</ele>
        <time>2019-05-01T14:25:56Z</time>
      </trkpt>
      <trkpt lat="44.88279" lon="5.18454">
        <ele>918.68</ele>
        <time>2019-05-01T14:25:57Z</time>
      </trkpt>
      <trkpt lat="44.88279" lon="5.18454">
        <ele>912.91</ele>
        <time>2019-05-01T14:25:58Z</time>
      </trkpt>
      <trkpt lat="44.88279" lon="5.18454">
        <ele>917.24</ele>
        <time>2019-05-01T14:25:59Z</time>
      </trkpt>
      <trkpt lat="44.88279" lon="5.18453">
        <ele>913.87</ele>
        <time>2019-05-01T14:26:00Z</time>
      </trkpt>
      <trkpt lat="44.88279" lon="5.18453">
        <ele>916.75</ele>
        <time>2019-05-01T14:26:01Z</time>
      </trkpt>
      <trkpt lat="44.88279" lon="5.18454">
        <ele>911.95</ele>
        <time>2019-05-01T14:26:05Z</time>
      </trkpt>
      <trkpt lat="44.88278" lon="5.18455">
        <ele>918.2</ele>
        <time>2019-05-01T14:26:06Z</time>
      </trkpt>
      <trkpt lat="44.88278" lon="5.18456">
        <ele>913.39</ele>
        <time>2019-05-01T14:26:07Z</time>
      </trkpt>
      <trkpt lat="44.88277" lon="5.18457">
        <ele>918.2</ele>
        <time>2019-05-01T14:26:08Z</time>
      </trkpt>
      <trkpt lat="44.8827" lon="5.1847">
        <ele>916.75</ele>
        <time>2019-05-01T14:26:19Z</time>
      </trkpt>
      <trkpt lat="44.88262" lon="5.18482">
        <ele>917.72</ele>
        <time>2019-05-01T14:26:31Z</time>
      </trkpt>
      <trkpt lat="44.88256" lon="5.18493">
        <ele>919.64</ele>
        <time>2019-05-01T14:26:39Z</time>
      </trkpt>
      <trkpt lat="44.88258" lon="5.18496">
        <ele>919.64</ele>
        <time>2019-05-01T14:26:42Z</time>
      </trkpt>
      <trkpt lat="44.8826" lon="5.18496">
        <ele>919.64</ele>
        <time>2019-05-01T14:26:44Z</time>
      </trkpt>
      <trkpt lat="44.88263" lon="5.18494">
        <ele>920.12</ele>
        <time>2019-05-01T14:26:47Z</time>
      </trkpt>
      <trkpt lat="44.88269" lon="5.18489">
        <ele>921.08</ele>
        <time>2019-05-01T14:26:53Z</time>
      </trkpt>
      <trkpt lat="44.88272" lon="5.18487">
        <ele>921.56</ele>
        <time>2019-05-01T14:26:56Z</time>
      </trkpt>
      <trkpt lat="44.88274" lon="5.18486">
        <ele>922.04</ele>
        <time>2019-05-01T14:26:58Z</time>
      </trkpt>
      <trkpt lat="44.88276" lon="5.18484">
        <ele>923</ele>
        <time>2019-05-01T14:27:00Z</time>
      </trkpt>
      <trkpt lat="44.8828" lon="5.1848">
        <ele>922.04</ele>
        <time>2019-05-01T14:27:06Z</time>
      </trkpt>
      <trkpt lat="44.88281" lon="5.1848">
        <ele>923.48</ele>
        <time>2019-05-01T14:27:07Z</time>
      </trkpt>
      <trkpt lat="44.88284" lon="5.18479">
        <ele>923.96</ele>
        <time>2019-05-01T14:27:10Z</time>
      </trkpt>
      <trkpt lat="44.88285" lon="5.18478">
        <ele>922.04</ele>
        <time>2019-05-01T14:27:11Z</time>
      </trkpt>
      <trkpt lat="44.88286" lon="5.18478">
        <ele>923.96</ele>
        <time>2019-05-01T14:27:12Z</time>
      </trkpt>
      <trkpt lat="44.88291" lon="5.18474">
        <ele>923.48</ele>
        <time>2019-05-01T14:27:20Z</time>
      </trkpt>
      <trkpt lat="44.88291" lon="5.18473">
        <ele>926.37</ele>
        <time>2019-05-01T14:27:24Z</time>
      </trkpt>
      <trkpt lat="44.88292" lon="5.18474">
        <ele>922.04</ele>
        <time>2019-05-01T14:27:31Z</time>
      </trkpt>
      <trkpt lat="44.88292" lon="5.18474">
        <ele>922.04</ele>
        <time>2019-05-01T14:27:32Z</time>
      </trkpt>
      <trkpt lat="44.88292" lon="5.18474">
        <ele>925.41</ele>
        <time>2019-05-01T14:27:34Z</time>
      </trkpt>
      <trkpt lat="44.88294" lon="5.18476">
        <ele>926.37</ele>
        <time>2019-05-01T14:27:47Z</time>
      </trkpt>
      <trkpt lat="44.88293" lon="5.18475">
        <ele>925.89</ele>
        <time>2019-05-01T14:28:02Z</time>
      </trkpt>
      <trkpt lat="44.88293" lon="5.18472">
        <ele>926.37</ele>
        <time>2019-05-01T14:28:11Z</time>
      </trkpt>
      <trkpt lat="44.88299" lon="5.18452">
        <ele>924.93</ele>
        <time>2019-05-01T14:28:28Z</time>
      </trkpt>
      <trkpt lat="44.88304" lon="5.18447">
        <ele>924.93</ele>
        <time>2019-05-01T14:28:37Z</time>
      </trkpt>
      <trkpt lat="44.88305" lon="5.18446">
        <ele>924.45</ele>
        <time>2019-05-01T14:28:39Z</time>
      </trkpt>
      <trkpt lat="44.88316" lon="5.18433">
        <ele>926.37</ele>
        <time>2019-05-01T14:28:52Z</time>
      </trkpt>
      <trkpt lat="44.88318" lon="5.18431">
        <ele>925.89</ele>
        <time>2019-05-01T14:29:04Z</time>
      </trkpt>
      <trkpt lat="44.88321" lon="5.18429">
        <ele>926.37</ele>
        <time>2019-05-01T14:29:18Z</time>
      </trkpt>
      <trkpt lat="44.88326" lon="5.18428">
        <ele>927.33</ele>
        <time>2019-05-01T14:29:23Z</time>
      </trkpt>
      <trkpt lat="44.88328" lon="5.18427">
        <ele>927.33</ele>
        <time>2019-05-01T14:29:25Z</time>
      </trkpt>
      <trkpt lat="44.8834" lon="5.18427">
        <ele>930.21</ele>
        <time>2019-05-01T14:29:38Z</time>
      </trkpt>
      <trkpt lat="44.88344" lon="5.18425">
        <ele>929.73</ele>
        <time>2019-05-01T14:29:42Z</time>
      </trkpt>
      <trkpt lat="44.88349" lon="5.18422">
        <ele>930.69</ele>
        <time>2019-05-01T14:29:48Z</time>
      </trkpt>
      <trkpt lat="44.8836" lon="5.18421">
        <ele>931.65</ele>
        <time>2019-05-01T14:29:59Z</time>
      </trkpt>
      <trkpt lat="44.88371" lon="5.18416">
        <ele>930.69</ele>
        <time>2019-05-01T14:30:13Z</time>
      </trkpt>
      <trkpt lat="44.88374" lon="5.18416">
        <ele>932.14</ele>
        <time>2019-05-01T14:30:16Z</time>
      </trkpt>
      <trkpt lat="44.8838" lon="5.18415">
        <ele>932.62</ele>
        <time>2019-05-01T14:30:22Z</time>
      </trkpt>
      <trkpt lat="44.88389" lon="5.18415">
        <ele>932.14</ele>
        <time>2019-05-01T14:30:32Z</time>
      </trkpt>
      <trkpt lat="44.88391" lon="5.18415">
        <ele>932.62</ele>
        <time>2019-05-01T14:30:34Z</time>
      </trkpt>
      <trkpt lat="44.88395" lon="5.18414">
        <ele>931.65</ele>
        <time>2019-05-01T14:30:39Z</time>
      </trkpt>
      <trkpt lat="44.88402" lon="5.18414">
        <ele>932.62</ele>
        <time>2019-05-01T14:30:46Z</time>
      </trkpt>
      <trkpt lat="44.88404" lon="5.18414">
        <ele>931.17</ele>
        <time>2019-05-01T14:30:48Z</time>
      </trkpt>
      <trkpt lat="44.88406" lon="5.18414">
        <ele>931.65</ele>
        <time>2019-05-01T14:30:50Z</time>
      </trkpt>
      <trkpt lat="44.88409" lon="5.18415">
        <ele>930.21</ele>
        <time>2019-05-01T14:30:54Z</time>
      </trkpt>
      <trkpt lat="44.88416" lon="5.18415">
        <ele>932.62</ele>
        <time>2019-05-01T14:31:00Z</time>
      </trkpt>
      <trkpt lat="44.88429" lon="5.18415">
        <ele>931.65</ele>
        <time>2019-05-01T14:31:14Z</time>
      </trkpt>
      <trkpt lat="44.88434" lon="5.18415">
        <ele>933.1</ele>
        <time>2019-05-01T14:31:19Z</time>
      </trkpt>
      <trkpt lat="44.88436" lon="5.18416">
        <ele>931.65</ele>
        <time>2019-05-01T14:31:21Z</time>
      </trkpt>
      <trkpt lat="44.88448" lon="5.18411">
        <ele>934.06</ele>
        <time>2019-05-01T14:31:32Z</time>
      </trkpt>
      <trkpt lat="44.8846" lon="5.18407">
        <ele>932.62</ele>
        <time>2019-05-01T14:31:44Z</time>
      </trkpt>
      <trkpt lat="44.88462" lon="5.18407">
        <ele>933.58</ele>
        <time>2019-05-01T14:31:46Z</time>
      </trkpt>
      <trkpt lat="44.88474" lon="5.18404">
        <ele>932.14</ele>
        <time>2019-05-01T14:31:57Z</time>
      </trkpt>
      <trkpt lat="44.88489" lon="5.18399">
        <ele>932.14</ele>
        <time>2019-05-01T14:32:12Z</time>
      </trkpt>
      <trkpt lat="44.88501" lon="5.18398">
        <ele>932.14</ele>
        <time>2019-05-01T14:32:25Z</time>
      </trkpt>
      <trkpt lat="44.88504" lon="5.18398">
        <ele>932.14</ele>
        <time>2019-05-01T14:32:28Z</time>
      </trkpt>
      <trkpt lat="44.88521" lon="5.18397">
        <ele>932.62</ele>
        <time>2019-05-01T14:32:42Z</time>
      </trkpt>
      <trkpt lat="44.88527" lon="5.18396">
        <ele>933.1</ele>
        <time>2019-05-01T14:32:47Z</time>
      </trkpt>
      <trkpt lat="44.88545" lon="5.18397">
        <ele>933.1</ele>
        <time>2019-05-01T14:33:03Z</time>
      </trkpt>
      <trkpt lat="44.88558" lon="5.18401">
        <ele>932.62</ele>
        <time>2019-05-01T14:33:15Z</time>
      </trkpt>
      <trkpt lat="44.8857" lon="5.18404">
        <ele>933.58</ele>
        <time>2019-05-01T14:33:27Z</time>
      </trkpt>
      <trkpt lat="44.88584" lon="5.18406">
        <ele>932.62</ele>
        <time>2019-05-01T14:33:40Z</time>
      </trkpt>
      <trkpt lat="44.88597" lon="5.18409">
        <ele>932.62</ele>
        <time>2019-05-01T14:33:51Z</time>
      </trkpt>
      <trkpt lat="44.88607" lon="5.18412">
        <ele>932.62</ele>
        <time>2019-05-01T14:34:03Z</time>
      </trkpt>
      <trkpt lat="44.8862" lon="5.18419">
        <ele>932.62</ele>
        <time>2019-05-01T14:34:15Z</time>
      </trkpt>
      <trkpt lat="44.88633" lon="5.18427">
        <ele>933.1</ele>
        <time>2019-05-01T14:34:28Z</time>
      </trkpt>
      <trkpt lat="44.88646" lon="5.18433">
        <ele>933.58</ele>
        <time>2019-05-01T14:34:41Z</time>
      </trkpt>
      <trkpt lat="44.88659" lon="5.18443">
        <ele>934.06</ele>
        <time>2019-05-01T14:34:55Z</time>
      </trkpt>
      <trkpt lat="44.8867" lon="5.18453">
        <ele>933.58</ele>
        <time>2019-05-01T14:35:08Z</time>
      </trkpt>
      <trkpt lat="44.88676" lon="5.18456">
        <ele>934.54</ele>
        <time>2019-05-01T14:35:13Z</time>
      </trkpt>
      <trkpt lat="44.88687" lon="5.18463">
        <ele>935.02</ele>
        <time>2019-05-01T14:35:29Z</time>
      </trkpt>
      <trkpt lat="44.88696" lon="5.18472">
        <ele>935.98</ele>
        <time>2019-05-01T14:35:44Z</time>
      </trkpt>
      <trkpt lat="44.88698" lon="5.18474">
        <ele>935.02</ele>
        <time>2019-05-01T14:35:47Z</time>
      </trkpt>
      <trkpt lat="44.887" lon="5.18476">
        <ele>935.5</ele>
        <time>2019-05-01T14:35:50Z</time>
      </trkpt>
      <trkpt lat="44.88709" lon="5.18487">
        <ele>936.46</ele>
        <time>2019-05-01T14:36:01Z</time>
      </trkpt>
      <trkpt lat="44.88711" lon="5.18501">
        <ele>935.98</ele>
        <time>2019-05-01T14:36:10Z</time>
      </trkpt>
      <trkpt lat="44.88713" lon="5.18507">
        <ele>935.98</ele>
        <time>2019-05-01T14:36:14Z</time>
      </trkpt>
      <trkpt lat="44.88713" lon="5.18514">
        <ele>936.46</ele>
        <time>2019-05-01T14:36:19Z</time>
      </trkpt>
      <trkpt lat="44.88715" lon="5.1853">
        <ele>935.98</ele>
        <time>2019-05-01T14:36:29Z</time>
      </trkpt>
      <trkpt lat="44.88717" lon="5.18547">
        <ele>936.94</ele>
        <time>2019-05-01T14:36:41Z</time>
      </trkpt>
      <trkpt lat="44.8872" lon="5.1857">
        <ele>937.42</ele>
        <time>2019-05-01T14:36:56Z</time>
      </trkpt>
      <trkpt lat="44.8872" lon="5.18588">
        <ele>937.9</ele>
        <time>2019-05-01T14:37:08Z</time>
      </trkpt>
      <trkpt lat="44.88717" lon="5.18596">
        <ele>938.38</ele>
        <time>2019-05-01T14:37:15Z</time>
      </trkpt>
      <trkpt lat="44.88716" lon="5.18598">
        <ele>938.38</ele>
        <time>2019-05-01T14:37:17Z</time>
      </trkpt>
      <trkpt lat="44.88704" lon="5.18599">
        <ele>938.38</ele>
        <time>2019-05-01T14:37:29Z</time>
      </trkpt>
      <trkpt lat="44.88697" lon="5.18601">
        <ele>938.86</ele>
        <time>2019-05-01T14:37:39Z</time>
      </trkpt>
      <trkpt lat="44.88696" lon="5.18603">
        <ele>941.75</ele>
        <time>2019-05-01T14:37:53Z</time>
      </trkpt>
    </trkseg>
  </trk>
</gpx>